<gpx creator="Mission Planner 1.3.38 build 1.1.5983.12141 " xmlns="http://www.topografix.com/GPX/1/1"><trk><trkseg><trkpt lat="60.3698226" lon="25.2590513"><ele>21.48</ele><time>2016-05-22T15:14:18+03:00</time><course>244.7</course><roll>-2.87</roll><pitch>-3.13</pitch><mode /></trkpt><trkpt lat="60.3698235" lon="25.2590512"><ele>21.63</ele><time>2016-05-22T15:14:18+03:00</time><course>244.7</course><roll>-2.89</roll><pitch>-3.19</pitch><mode /></trkpt><trkpt lat="60.3698237" lon="25.2590511"><ele>21.65</ele><time>2016-05-22T15:14:20+03:00</time><course>244.7</course><roll>-2.9</roll><pitch>-3.16</pitch><mode /></trkpt><trkpt lat="60.3698238" lon="25.2590509"><ele>21.68</ele><time>2016-05-22T15:14:21+03:00</time><course>244.7</course><roll>-2.89</roll><pitch>-3.15</pitch><mode /></trkpt><trkpt lat="60.369824" lon="25.2590509"><ele>21.74</ele><time>2016-05-22T15:14:22+03:00</time><course>244.69</course><roll>-2.9</roll><pitch>-3.17</pitch><mode /></trkpt><trkpt lat="60.3698241" lon="25.259051"><ele>21.74</ele><time>2016-05-22T15:14:22+03:00</time><course>244.69</course><roll>-2.87</roll><pitch>-3.19</pitch><mode /></trkpt><trkpt lat="60.3698242" lon="25.2590511"><ele>21.75</ele><time>2016-05-22T15:14:22+03:00</time><course>244.69</course><roll>-2.86</roll><pitch>-3.17</pitch><mode /></trkpt><trkpt lat="60.3698243" lon="25.259051"><ele>21.77</ele><time>2016-05-22T15:14:23+03:00</time><course>244.69</course><roll>-2.88</roll><pitch>-3.15</pitch><mode /></trkpt><trkpt lat="60.3698245" lon="25.2590509"><ele>21.77</ele><time>2016-05-22T15:14:23+03:00</time><course>244.69</course><roll>-2.92</roll><pitch>-3.16</pitch><mode /></trkpt><trkpt lat="60.3698246" lon="25.2590508"><ele>21.79</ele><time>2016-05-22T15:14:23+03:00</time><course>244.69</course><roll>-2.92</roll><pitch>-3.15</pitch><mode /></trkpt><trkpt lat="60.3698248" lon="25.2590506"><ele>21.81</ele><time>2016-05-22T15:14:23+03:00</time><course>244.69</course><roll>-2.91</roll><pitch>-3.13</pitch><mode /></trkpt><trkpt lat="60.3698249" lon="25.2590505"><ele>21.81</ele><time>2016-05-22T15:14:23+03:00</time><course>244.69</course><roll>-2.93</roll><pitch>-3.16</pitch><mode /></trkpt><trkpt lat="60.3698248" lon="25.2590504"><ele>21.79</ele><time>2016-05-22T15:14:24+03:00</time><course>244.69</course><roll>-2.86</roll><pitch>-3.16</pitch><mode /></trkpt><trkpt lat="60.3698249" lon="25.2590505"><ele>21.83</ele><time>2016-05-22T15:14:24+03:00</time><course>244.77</course><roll>-2.83</roll><pitch>-2.95</pitch><mode /></trkpt><trkpt lat="60.369825" lon="25.2590508"><ele>21.81</ele><time>2016-05-22T15:14:24+03:00</time><course>244.66</course><roll>-2.59</roll><pitch>-2.45</pitch><mode /></trkpt><trkpt lat="60.3698251" lon="25.2590507"><ele>21.84</ele><time>2016-05-22T15:14:24+03:00</time><course>244.59</course><roll>-2.41</roll><pitch>-2.04</pitch><mode /></trkpt><trkpt lat="60.3698253" lon="25.2590507"><ele>21.89</ele><time>2016-05-22T15:14:25+03:00</time><course>244.52</course><roll>-1.86</roll><pitch>-1.44</pitch><mode /></trkpt><trkpt lat="60.3698255" lon="25.2590508"><ele>21.92</ele><time>2016-05-22T15:14:25+03:00</time><course>244.5</course><roll>-1.73</roll><pitch>-1.2</pitch><mode /></trkpt><trkpt lat="60.3698256" lon="25.2590509"><ele>21.95</ele><time>2016-05-22T15:14:25+03:00</time><course>244.52</course><roll>-1.3</roll><pitch>-0.9</pitch><mode /></trkpt><trkpt lat="60.3698258" lon="25.2590507"><ele>21.99</ele><time>2016-05-22T15:14:26+03:00</time><course>244.66</course><roll>-0.86</roll><pitch>-0.62</pitch><mode /></trkpt><trkpt lat="60.3698261" lon="25.2590505"><ele>22.06</ele><time>2016-05-22T15:14:26+03:00</time><course>244.71</course><roll>-0.38</roll><pitch>-0.49</pitch><mode /></trkpt><trkpt lat="60.3698263" lon="25.2590502"><ele>22.09</ele><time>2016-05-22T15:14:26+03:00</time><course>244.82</course><roll>0.96</roll><pitch>-0.12</pitch><mode /></trkpt><trkpt lat="60.3698264" lon="25.2590501"><ele>22.12</ele><time>2016-05-22T15:14:26+03:00</time><course>245</course><roll>3</roll><pitch>0.63</pitch><mode /></trkpt><trkpt lat="60.3698263" lon="25.2590496"><ele>22.2</ele><time>2016-05-22T15:14:27+03:00</time><course>245.1</course><roll>6.11</roll><pitch>-1.55</pitch><mode /></trkpt><trkpt lat="60.3698258" lon="25.2590478"><ele>22.24</ele><time>2016-05-22T15:14:27+03:00</time><course>245.52</course><roll>21.2</roll><pitch>-12.2</pitch><mode /></trkpt><trkpt lat="60.3698242" lon="25.2590467"><ele>22.32</ele><time>2016-05-22T15:14:27+03:00</time><course>252.84</course><roll>17.76</roll><pitch>-12.6</pitch><mode /></trkpt><trkpt lat="60.3698222" lon="25.2590486"><ele>22.64</ele><time>2016-05-22T15:14:27+03:00</time><course>258.42</course><roll>-1.21</roll><pitch>-1.61</pitch><mode /></trkpt><trkpt lat="60.3698193" lon="25.2590521"><ele>22.94</ele><time>2016-05-22T15:14:28+03:00</time><course>261.78</course><roll>-1.09</roll><pitch>2.16</pitch><mode /></trkpt><trkpt lat="60.3698161" lon="25.2590566"><ele>23.31</ele><time>2016-05-22T15:14:28+03:00</time><course>261.76</course><roll>0.32</roll><pitch>1.76</pitch><mode /></trkpt><trkpt lat="60.3698134" lon="25.2590609"><ele>23.57</ele><time>2016-05-22T15:14:28+03:00</time><course>259.31</course><roll>-0.43</roll><pitch>1.88</pitch><mode /></trkpt><trkpt lat="60.369811" lon="25.2590654"><ele>23.79</ele><time>2016-05-22T15:14:28+03:00</time><course>256.78</course><roll>0.02</roll><pitch>1.3</pitch><mode /></trkpt><trkpt lat="60.3698084" lon="25.2590699"><ele>23.88</ele><time>2016-05-22T15:14:28+03:00</time><course>255.51</course><roll>-7.11</roll><pitch>0.83</pitch><mode /></trkpt><trkpt lat="60.3698063" lon="25.2590742"><ele>23.79</ele><time>2016-05-22T15:14:29+03:00</time><course>254.78</course><roll>-20.88</roll><pitch>9.32</pitch><mode /></trkpt><trkpt lat="60.3698043" lon="25.2590774"><ele>23.39</ele><time>2016-05-22T15:14:29+03:00</time><course>261.64</course><roll>-10.55</roll><pitch>8.18</pitch><mode /></trkpt><trkpt lat="60.3698032" lon="25.2590812"><ele>23.09</ele><time>2016-05-22T15:14:29+03:00</time><course>268.48</course><roll>-0.73</roll><pitch>4.02</pitch><mode /></trkpt><trkpt lat="60.3698025" lon="25.2590851"><ele>22.77</ele><time>2016-05-22T15:14:29+03:00</time><course>270.3</course><roll>-4.8</roll><pitch>6.44</pitch><mode /></trkpt><trkpt lat="60.3698022" lon="25.2590868"><ele>22.26</ele><time>2016-05-22T15:14:29+03:00</time><course>272</course><roll>-4.71</roll><pitch>5.22</pitch><mode /></trkpt><trkpt lat="60.3698025" lon="25.2590886"><ele>21.72</ele><time>2016-05-22T15:14:30+03:00</time><course>269.07</course><roll>9.16</roll><pitch>-20.85</pitch><mode /></trkpt><trkpt lat="60.3698023" lon="25.2590916"><ele>21.56</ele><time>2016-05-22T15:14:30+03:00</time><course>270.86</course><roll>12.17</roll><pitch>-20.93</pitch><mode /></trkpt><trkpt lat="60.3698014" lon="25.2590948"><ele>21.69</ele><time>2016-05-22T15:14:30+03:00</time><course>279.9</course><roll>0.88</roll><pitch>-4.03</pitch><mode /></trkpt><trkpt lat="60.3698007" lon="25.2590982"><ele>21.77</ele><time>2016-05-22T15:14:30+03:00</time><course>303.82</course><roll>-14.01</roll><pitch>-16.62</pitch><mode /></trkpt><trkpt lat="60.3698005" lon="25.2591002"><ele>21.64</ele><time>2016-05-22T15:14:30+03:00</time><course>317.46</course><roll>-20.52</roll><pitch>-6.47</pitch><mode /></trkpt><trkpt lat="60.3698018" lon="25.2590985"><ele>21.58</ele><time>2016-05-22T15:14:31+03:00</time><course>325.07</course><roll>2.92</roll><pitch>2.87</pitch><mode /></trkpt><trkpt lat="60.3698015" lon="25.2590972"><ele>21.63</ele><time>2016-05-22T15:14:31+03:00</time><course>324.92</course><roll>-0.31</roll><pitch>5</pitch><mode /></trkpt><trkpt lat="60.3698009" lon="25.2590963"><ele>21.52</ele><time>2016-05-22T15:14:31+03:00</time><course>324.89</course><roll>0.28</roll><pitch>4.25</pitch><mode /></trkpt><trkpt lat="60.3698007" lon="25.2590965"><ele>21.49</ele><time>2016-05-22T15:14:31+03:00</time><course>324.8</course><roll>0.02</roll><pitch>4.12</pitch><mode /></trkpt><trkpt lat="60.3698005" lon="25.2590967"><ele>21.44</ele><time>2016-05-22T15:14:32+03:00</time><course>324.85</course><roll>-0.04</roll><pitch>4.15</pitch><mode /></trkpt><trkpt lat="60.3698006" lon="25.2590973"><ele>21.34</ele><time>2016-05-22T15:14:32+03:00</time><course>324.85</course><roll>-0.19</roll><pitch>4.13</pitch><mode /></trkpt><trkpt lat="60.3698007" lon="25.2590975"><ele>21.34</ele><time>2016-05-22T15:14:32+03:00</time><course>324.87</course><roll>-0.17</roll><pitch>4.18</pitch><mode /></trkpt><trkpt lat="60.3698006" lon="25.2590985"><ele>21.3</ele><time>2016-05-22T15:14:33+03:00</time><course>324.87</course><roll>-0.26</roll><pitch>4.02</pitch><mode /></trkpt><trkpt lat="60.3698006" lon="25.2590993"><ele>21.18</ele><time>2016-05-22T15:14:34+03:00</time><course>324.96</course><roll>-0.37</roll><pitch>4</pitch><mode /></trkpt><trkpt lat="60.3698005" lon="25.2590998"><ele>21.07</ele><time>2016-05-22T15:14:34+03:00</time><course>324.99</course><roll>-0.38</roll><pitch>3.92</pitch><mode /></trkpt><trkpt lat="60.3698007" lon="25.2591001"><ele>21.05</ele><time>2016-05-22T15:14:34+03:00</time><course>325.05</course><roll>-0.44</roll><pitch>3.87</pitch><mode /></trkpt><trkpt lat="60.3698004" lon="25.2591004"><ele>20.93</ele><time>2016-05-22T15:14:35+03:00</time><course>325.11</course><roll>-0.46</roll><pitch>3.84</pitch><mode /></trkpt><trkpt lat="60.3698007" lon="25.2591007"><ele>20.91</ele><time>2016-05-22T15:14:35+03:00</time><course>325.23</course><roll>-0.55</roll><pitch>3.89</pitch><mode /></trkpt><trkpt lat="60.3698006" lon="25.259101"><ele>20.89</ele><time>2016-05-22T15:14:35+03:00</time><course>325.27</course><roll>-0.6</roll><pitch>3.78</pitch><mode /></trkpt><trkpt lat="60.3698004" lon="25.2591009"><ele>20.82</ele><time>2016-05-22T15:14:36+03:00</time><course>325.31</course><roll>-0.59</roll><pitch>3.73</pitch><mode /></trkpt><trkpt lat="60.3698003" lon="25.2591006"><ele>20.83</ele><time>2016-05-22T15:14:36+03:00</time><course>325.35</course><roll>-0.54</roll><pitch>3.77</pitch><mode /></trkpt><trkpt lat="60.3698002" lon="25.2591008"><ele>20.81</ele><time>2016-05-22T15:14:36+03:00</time><course>325.43</course><roll>-0.65</roll><pitch>3.71</pitch><mode /></trkpt><trkpt lat="60.3698" lon="25.2591015"><ele>20.85</ele><time>2016-05-22T15:14:37+03:00</time><course>325.51</course><roll>-0.74</roll><pitch>3.58</pitch><mode /></trkpt><trkpt lat="60.3697999" lon="25.2591014"><ele>20.79</ele><time>2016-05-22T15:14:37+03:00</time><course>325.55</course><roll>-0.72</roll><pitch>3.63</pitch><mode /></trkpt><trkpt lat="60.3697997" lon="25.2591013"><ele>20.77</ele><time>2016-05-22T15:14:37+03:00</time><course>325.6</course><roll>-0.68</roll><pitch>3.64</pitch><mode /></trkpt><trkpt lat="60.3697996" lon="25.2591015"><ele>20.76</ele><time>2016-05-22T15:14:37+03:00</time><course>325.64</course><roll>-0.7</roll><pitch>3.59</pitch><mode /></trkpt><trkpt lat="60.3697995" lon="25.2591021"><ele>20.77</ele><time>2016-05-22T15:14:37+03:00</time><course>325.69</course><roll>-0.79</roll><pitch>3.54</pitch><mode /></trkpt><trkpt lat="60.3697994" lon="25.2591027"><ele>20.78</ele><time>2016-05-22T15:14:38+03:00</time><course>325.73</course><roll>-0.85</roll><pitch>3.52</pitch><mode /></trkpt><trkpt lat="60.3697993" lon="25.259103"><ele>20.78</ele><time>2016-05-22T15:14:38+03:00</time><course>325.77</course><roll>-0.85</roll><pitch>3.55</pitch><mode /></trkpt><trkpt lat="60.3697992" lon="25.2591033"><ele>20.73</ele><time>2016-05-22T15:14:38+03:00</time><course>325.83</course><roll>-0.83</roll><pitch>3.53</pitch><mode /></trkpt><trkpt lat="60.3697991" lon="25.2591036"><ele>20.73</ele><time>2016-05-22T15:14:38+03:00</time><course>325.88</course><roll>-0.86</roll><pitch>3.5</pitch><mode /></trkpt><trkpt lat="60.3697989" lon="25.2591038"><ele>20.71</ele><time>2016-05-22T15:14:38+03:00</time><course>325.94</course><roll>-0.84</roll><pitch>3.44</pitch><mode /></trkpt><trkpt lat="60.3697988" lon="25.2591048"><ele>20.63</ele><time>2016-05-22T15:14:39+03:00</time><course>326.12</course><roll>-0.9</roll><pitch>3.44</pitch><mode /></trkpt><trkpt lat="60.3697987" lon="25.2591051"><ele>20.62</ele><time>2016-05-22T15:14:39+03:00</time><course>326.18</course><roll>-0.95</roll><pitch>3.39</pitch><mode /></trkpt><trkpt lat="60.3697986" lon="25.2591052"><ele>20.61</ele><time>2016-05-22T15:14:39+03:00</time><course>326.24</course><roll>-0.93</roll><pitch>3.38</pitch><mode /></trkpt><trkpt lat="60.3697985" lon="25.2591054"><ele>20.6</ele><time>2016-05-22T15:14:40+03:00</time><course>326.31</course><roll>-0.95</roll><pitch>3.4</pitch><mode /></trkpt><trkpt lat="60.3697983" lon="25.2591055"><ele>20.58</ele><time>2016-05-22T15:14:40+03:00</time><course>326.36</course><roll>-0.95</roll><pitch>3.34</pitch><mode /></trkpt><trkpt lat="60.3697984" lon="25.2591058"><ele>20.59</ele><time>2016-05-22T15:14:40+03:00</time><course>326.42</course><roll>-1.02</roll><pitch>3.34</pitch><mode /></trkpt><trkpt lat="60.3697983" lon="25.2591062"><ele>20.55</ele><time>2016-05-22T15:14:40+03:00</time><course>326.55</course><roll>-1.04</roll><pitch>3.33</pitch><mode /></trkpt><trkpt lat="60.369798" lon="25.2591064"><ele>20.46</ele><time>2016-05-22T15:14:41+03:00</time><course>326.68</course><roll>-1</roll><pitch>3.26</pitch><mode /></trkpt><trkpt lat="60.3697981" lon="25.259107"><ele>20.4</ele><time>2016-05-22T15:14:41+03:00</time><course>326.78</course><roll>-1.11</roll><pitch>3.25</pitch><mode /></trkpt><trkpt lat="60.3697983" lon="25.2591084"><ele>20.29</ele><time>2016-05-22T15:14:42+03:00</time><course>327.08</course><roll>-1.21</roll><pitch>3.19</pitch><mode /></trkpt><trkpt lat="60.3697984" lon="25.2591085"><ele>20.26</ele><time>2016-05-22T15:14:42+03:00</time><course>327.15</course><roll>-1.26</roll><pitch>3.21</pitch><mode /></trkpt><trkpt lat="60.3697983" lon="25.2591081"><ele>20.12</ele><time>2016-05-22T15:14:43+03:00</time><course>327.29</course><roll>-1.18</roll><pitch>3.13</pitch><mode /></trkpt><trkpt lat="60.3697982" lon="25.2591086"><ele>19.97</ele><time>2016-05-22T15:14:44+03:00</time><course>327.55</course><roll>-1.26</roll><pitch>3.06</pitch><mode /></trkpt><trkpt lat="60.3697983" lon="25.2591089"><ele>19.89</ele><time>2016-05-22T15:14:44+03:00</time><course>327.7</course><roll>-1.33</roll><pitch>3.1</pitch><mode /></trkpt><trkpt lat="60.3697984" lon="25.2591092"><ele>19.86</ele><time>2016-05-22T15:14:44+03:00</time><course>327.76</course><roll>-1.36</roll><pitch>3.07</pitch><mode /></trkpt><trkpt lat="60.3697985" lon="25.2591094"><ele>19.84</ele><time>2016-05-22T15:14:44+03:00</time><course>327.84</course><roll>-1.39</roll><pitch>3.11</pitch><mode /></trkpt><trkpt lat="60.3698484" lon="25.2590771"><ele>19.65</ele><time>2016-05-22T15:24:20+03:00</time><course>266.55</course><roll>1.02</roll><pitch>-0.9</pitch><mode /></trkpt><trkpt lat="60.3698483" lon="25.2590777"><ele>19.62</ele><time>2016-05-22T15:24:21+03:00</time><course>266.56</course><roll>0.98</roll><pitch>-0.95</pitch><mode /></trkpt><trkpt lat="60.3698484" lon="25.2590784"><ele>19.52</ele><time>2016-05-22T15:24:22+03:00</time><course>266.6</course><roll>0.9</roll><pitch>-1</pitch><mode /></trkpt><trkpt lat="60.3698483" lon="25.2590787"><ele>19.51</ele><time>2016-05-22T15:24:23+03:00</time><course>266.61</course><roll>0.9</roll><pitch>-0.97</pitch><mode /></trkpt><trkpt lat="60.3698482" lon="25.2590788"><ele>19.49</ele><time>2016-05-22T15:24:23+03:00</time><course>266.62</course><roll>0.92</roll><pitch>-1.05</pitch><mode /></trkpt><trkpt lat="60.3698481" lon="25.2590794"><ele>19.35</ele><time>2016-05-22T15:24:25+03:00</time><course>266.67</course><roll>0.84</roll><pitch>-1.02</pitch><mode /></trkpt><trkpt lat="60.369848" lon="25.2590792"><ele>19.32</ele><time>2016-05-22T15:24:25+03:00</time><course>266.75</course><roll>0.79</roll><pitch>-0.94</pitch><mode /></trkpt><trkpt lat="60.3698481" lon="25.2590795"><ele>19.33</ele><time>2016-05-22T15:24:25+03:00</time><course>266.84</course><roll>0.69</roll><pitch>-0.93</pitch><mode /></trkpt><trkpt lat="60.3698482" lon="25.2590797"><ele>19.32</ele><time>2016-05-22T15:24:26+03:00</time><course>266.87</course><roll>0.66</roll><pitch>-0.88</pitch><mode /></trkpt><trkpt lat="60.3698483" lon="25.2590801"><ele>19.31</ele><time>2016-05-22T15:24:26+03:00</time><course>266.98</course><roll>0.45</roll><pitch>-0.81</pitch><mode /></trkpt><trkpt lat="60.3698484" lon="25.2590804"><ele>19.32</ele><time>2016-05-22T15:24:26+03:00</time><course>266.98</course><roll>0.39</roll><pitch>-0.88</pitch><mode /></trkpt><trkpt lat="60.3698483" lon="25.2590807"><ele>19.31</ele><time>2016-05-22T15:24:27+03:00</time><course>266.99</course><roll>0.48</roll><pitch>-1.03</pitch><mode /></trkpt><trkpt lat="60.3698484" lon="25.2590816"><ele>19.3</ele><time>2016-05-22T15:24:27+03:00</time><course>266.03</course><roll>-1.48</roll><pitch>-1.01</pitch><mode /></trkpt><trkpt lat="60.3698485" lon="25.2590821"><ele>19.32</ele><time>2016-05-22T15:24:27+03:00</time><course>264.05</course><roll>-0.84</roll><pitch>-1.41</pitch><mode /></trkpt><trkpt lat="60.3698486" lon="25.2590827"><ele>19.48</ele><time>2016-05-22T15:24:28+03:00</time><course>262.22</course><roll>-0.17</roll><pitch>-2.27</pitch><mode /></trkpt><trkpt lat="60.3698488" lon="25.2590834"><ele>19.78</ele><time>2016-05-22T15:24:28+03:00</time><course>262.04</course><roll>-0.09</roll><pitch>-0.98</pitch><mode /></trkpt><trkpt lat="60.3698489" lon="25.2590845"><ele>20.1</ele><time>2016-05-22T15:24:28+03:00</time><course>263.19</course><roll>-0.82</roll><pitch>-0.05</pitch><mode /></trkpt><trkpt lat="60.3698491" lon="25.2590879"><ele>20.68</ele><time>2016-05-22T15:24:28+03:00</time><course>265.54</course><roll>-0.58</roll><pitch>0.24</pitch><mode /></trkpt><trkpt lat="60.3698493" lon="25.25909"><ele>20.96</ele><time>2016-05-22T15:24:29+03:00</time><course>265.73</course><roll>-0.41</roll><pitch>1.32</pitch><mode /></trkpt><trkpt lat="60.3698497" lon="25.2590923"><ele>21.18</ele><time>2016-05-22T15:24:29+03:00</time><course>265.73</course><roll>-0.25</roll><pitch>4.33</pitch><mode /></trkpt><trkpt lat="60.3698504" lon="25.2590943"><ele>21.3</ele><time>2016-05-22T15:24:29+03:00</time><course>265.61</course><roll>-0.41</roll><pitch>3.66</pitch><mode /></trkpt><trkpt lat="60.3698511" lon="25.2590963"><ele>21.3</ele><time>2016-05-22T15:24:29+03:00</time><course>265.37</course><roll>-0.01</roll><pitch>0.57</pitch><mode /></trkpt><trkpt lat="60.3698521" lon="25.2590984"><ele>21.28</ele><time>2016-05-22T15:24:29+03:00</time><course>265.14</course><roll>4.41</roll><pitch>-0.51</pitch><mode /></trkpt><trkpt lat="60.3698532" lon="25.2591005"><ele>21.24</ele><time>2016-05-22T15:24:30+03:00</time><course>264.5</course><roll>5.13</roll><pitch>-0.4</pitch><mode /></trkpt><trkpt lat="60.3698543" lon="25.2591021"><ele>21.21</ele><time>2016-05-22T15:24:30+03:00</time><course>264.08</course><roll>2.55</roll><pitch>0.83</pitch><mode /></trkpt><trkpt lat="60.3698548" lon="25.2591033"><ele>21.07</ele><time>2016-05-22T15:24:30+03:00</time><course>263.89</course><roll>1.82</roll><pitch>1.18</pitch><mode /></trkpt><trkpt lat="60.3698553" lon="25.2591045"><ele>20.99</ele><time>2016-05-22T15:24:30+03:00</time><course>263.76</course><roll>-0.3</roll><pitch>5.92</pitch><mode /></trkpt><trkpt lat="60.3698556" lon="25.2591062"><ele>20.85</ele><time>2016-05-22T15:24:30+03:00</time><course>263.84</course><roll>-0.49</roll><pitch>7.83</pitch><mode /></trkpt><trkpt lat="60.3698559" lon="25.2591075"><ele>20.71</ele><time>2016-05-22T15:24:31+03:00</time><course>264.07</course><roll>0</roll><pitch>7.01</pitch><mode /></trkpt><trkpt lat="60.3698564" lon="25.2591081"><ele>20.58</ele><time>2016-05-22T15:24:31+03:00</time><course>264.19</course><roll>1.79</roll><pitch>5.57</pitch><mode /></trkpt><trkpt lat="60.3698567" lon="25.2591083"><ele>20.33</ele><time>2016-05-22T15:24:31+03:00</time><course>263.66</course><roll>3.71</roll><pitch>2.16</pitch><mode /></trkpt><trkpt lat="60.3698568" lon="25.2591078"><ele>20.16</ele><time>2016-05-22T15:24:31+03:00</time><course>262.72</course><roll>4.55</roll><pitch>1.58</pitch><mode /></trkpt><trkpt lat="60.3698567" lon="25.2591069"><ele>20.09</ele><time>2016-05-22T15:24:31+03:00</time><course>262.21</course><roll>1.49</roll><pitch>2.26</pitch><mode /></trkpt><trkpt lat="60.3698566" lon="25.2591054"><ele>20.11</ele><time>2016-05-22T15:24:32+03:00</time><course>263.24</course><roll>0.15</roll><pitch>3.91</pitch><mode /></trkpt><trkpt lat="60.3698563" lon="25.2591037"><ele>20.23</ele><time>2016-05-22T15:24:32+03:00</time><course>264.84</course><roll>-0.28</roll><pitch>3.27</pitch><mode /></trkpt><trkpt lat="60.3698558" lon="25.2591018"><ele>20.3</ele><time>2016-05-22T15:24:32+03:00</time><course>266.03</course><roll>0.07</roll><pitch>2.07</pitch><mode /></trkpt><trkpt lat="60.3698553" lon="25.2590999"><ele>20.37</ele><time>2016-05-22T15:24:32+03:00</time><course>266.37</course><roll>0.15</roll><pitch>1.56</pitch><mode /></trkpt><trkpt lat="60.369855" lon="25.259098"><ele>20.47</ele><time>2016-05-22T15:24:32+03:00</time><course>266.13</course><roll>-0.08</roll><pitch>0.48</pitch><mode /></trkpt><trkpt lat="60.3698547" lon="25.2590958"><ele>20.53</ele><time>2016-05-22T15:24:33+03:00</time><course>265.86</course><roll>-0.57</roll><pitch>0.62</pitch><mode /></trkpt><trkpt lat="60.3698541" lon="25.2590932"><ele>20.55</ele><time>2016-05-22T15:24:33+03:00</time><course>265.43</course><roll>-0.09</roll><pitch>0.38</pitch><mode /></trkpt><trkpt lat="60.3698536" lon="25.2590906"><ele>20.58</ele><time>2016-05-22T15:24:33+03:00</time><course>265.21</course><roll>0.62</roll><pitch>0.43</pitch><mode /></trkpt><trkpt lat="60.3698533" lon="25.2590877"><ele>20.72</ele><time>2016-05-22T15:24:33+03:00</time><course>265.35</course><roll>-0.11</roll><pitch>0.1</pitch><mode /></trkpt><trkpt lat="60.3698529" lon="25.2590849"><ele>20.84</ele><time>2016-05-22T15:24:33+03:00</time><course>265.24</course><roll>0.05</roll><pitch>-0.05</pitch><mode /></trkpt><trkpt lat="60.3698527" lon="25.2590825"><ele>20.99</ele><time>2016-05-22T15:24:34+03:00</time><course>265.08</course><roll>0.21</roll><pitch>-0.45</pitch><mode /></trkpt><trkpt lat="60.3698526" lon="25.25908"><ele>21.15</ele><time>2016-05-22T15:24:34+03:00</time><course>265.12</course><roll>0.47</roll><pitch>-0.25</pitch><mode /></trkpt><trkpt lat="60.3698524" lon="25.2590774"><ele>21.29</ele><time>2016-05-22T15:24:34+03:00</time><course>265.28</course><roll>1.53</roll><pitch>0.11</pitch><mode /></trkpt><trkpt lat="60.3698517" lon="25.2590749"><ele>21.43</ele><time>2016-05-22T15:24:34+03:00</time><course>265.54</course><roll>1.56</roll><pitch>-0.35</pitch><mode /></trkpt><trkpt lat="60.3698507" lon="25.2590726"><ele>21.56</ele><time>2016-05-22T15:24:34+03:00</time><course>265.79</course><roll>1.55</roll><pitch>0.14</pitch><mode /></trkpt><trkpt lat="60.3698499" lon="25.259071"><ele>21.67</ele><time>2016-05-22T15:24:35+03:00</time><course>266.19</course><roll>0.01</roll><pitch>0.11</pitch><mode /></trkpt><trkpt lat="60.3698496" lon="25.2590694"><ele>21.89</ele><time>2016-05-22T15:24:35+03:00</time><course>266.63</course><roll>0.62</roll><pitch>0.58</pitch><mode /></trkpt><trkpt lat="60.369849" lon="25.2590678"><ele>22</ele><time>2016-05-22T15:24:35+03:00</time><course>266.85</course><roll>0.26</roll><pitch>0.2</pitch><mode /></trkpt><trkpt lat="60.3698484" lon="25.2590664"><ele>22.06</ele><time>2016-05-22T15:24:35+03:00</time><course>266.97</course><roll>2.74</roll><pitch>0.19</pitch><mode /></trkpt><trkpt lat="60.3698478" lon="25.2590652"><ele>22.11</ele><time>2016-05-22T15:24:35+03:00</time><course>266.96</course><roll>2.71</roll><pitch>0.26</pitch><mode /></trkpt><trkpt lat="60.369847" lon="25.2590643"><ele>22.18</ele><time>2016-05-22T15:24:36+03:00</time><course>267.02</course><roll>1.76</roll><pitch>0.53</pitch><mode /></trkpt><trkpt lat="60.3698461" lon="25.2590635"><ele>22.21</ele><time>2016-05-22T15:24:36+03:00</time><course>267.2</course><roll>1.93</roll><pitch>0.24</pitch><mode /></trkpt><trkpt lat="60.3698452" lon="25.2590626"><ele>22.2</ele><time>2016-05-22T15:24:36+03:00</time><course>267.3</course><roll>0.77</roll><pitch>0.18</pitch><mode /></trkpt><trkpt lat="60.3698444" lon="25.259062"><ele>22.21</ele><time>2016-05-22T15:24:36+03:00</time><course>267.49</course><roll>1.13</roll><pitch>0.11</pitch><mode /></trkpt><trkpt lat="60.3698435" lon="25.2590615"><ele>22.2</ele><time>2016-05-22T15:24:36+03:00</time><course>267.42</course><roll>0.09</roll><pitch>-0.14</pitch><mode /></trkpt><trkpt lat="60.3698424" lon="25.2590607"><ele>22.19</ele><time>2016-05-22T15:24:37+03:00</time><course>267.02</course><roll>0.47</roll><pitch>-0.58</pitch><mode /></trkpt><trkpt lat="60.3698413" lon="25.2590603"><ele>22.19</ele><time>2016-05-22T15:24:37+03:00</time><course>266.44</course><roll>0.06</roll><pitch>-0.67</pitch><mode /></trkpt><trkpt lat="60.3698403" lon="25.2590606"><ele>22.19</ele><time>2016-05-22T15:24:37+03:00</time><course>265.92</course><roll>-0.2</roll><pitch>-0.47</pitch><mode /></trkpt><trkpt lat="60.3698393" lon="25.2590611"><ele>22.23</ele><time>2016-05-22T15:24:37+03:00</time><course>265.6</course><roll>-0.08</roll><pitch>-0.43</pitch><mode /></trkpt><trkpt lat="60.3698383" lon="25.2590615"><ele>22.25</ele><time>2016-05-22T15:24:37+03:00</time><course>265.84</course><roll>-0.34</roll><pitch>-0.05</pitch><mode /></trkpt><trkpt lat="60.3698373" lon="25.2590623"><ele>22.32</ele><time>2016-05-22T15:24:38+03:00</time><course>265.9</course><roll>0.24</roll><pitch>0.02</pitch><mode /></trkpt><trkpt lat="60.3698361" lon="25.259063"><ele>22.4</ele><time>2016-05-22T15:24:38+03:00</time><course>265.21</course><roll>-0.1</roll><pitch>0.1</pitch><mode /></trkpt><trkpt lat="60.3698352" lon="25.2590638"><ele>22.53</ele><time>2016-05-22T15:24:38+03:00</time><course>264.18</course><roll>0.01</roll><pitch>0.74</pitch><mode /></trkpt><trkpt lat="60.3698346" lon="25.2590645"><ele>22.68</ele><time>2016-05-22T15:24:38+03:00</time><course>264.2</course><roll>1.04</roll><pitch>0.96</pitch><mode /></trkpt><trkpt lat="60.369834" lon="25.2590653"><ele>22.78</ele><time>2016-05-22T15:24:38+03:00</time><course>265.1</course><roll>0.17</roll><pitch>0.63</pitch><mode /></trkpt><trkpt lat="60.3698333" lon="25.2590663"><ele>22.83</ele><time>2016-05-22T15:24:39+03:00</time><course>266.09</course><roll>0.03</roll><pitch>1.72</pitch><mode /></trkpt><trkpt lat="60.3698325" lon="25.2590672"><ele>22.92</ele><time>2016-05-22T15:24:39+03:00</time><course>266.6</course><roll>0.77</roll><pitch>2.18</pitch><mode /></trkpt><trkpt lat="60.3698317" lon="25.259068"><ele>22.95</ele><time>2016-05-22T15:24:39+03:00</time><course>266.45</course><roll>0.45</roll><pitch>2.7</pitch><mode /></trkpt><trkpt lat="60.369831" lon="25.2590685"><ele>22.93</ele><time>2016-05-22T15:24:39+03:00</time><course>266.25</course><roll>-0.15</roll><pitch>2.23</pitch><mode /></trkpt><trkpt lat="60.3698301" lon="25.2590687"><ele>22.86</ele><time>2016-05-22T15:24:39+03:00</time><course>266.02</course><roll>-0.24</roll><pitch>2.8</pitch><mode /></trkpt><trkpt lat="60.3698295" lon="25.2590686"><ele>22.83</ele><time>2016-05-22T15:24:40+03:00</time><course>265.76</course><roll>-1.39</roll><pitch>3.4</pitch><mode /></trkpt><trkpt lat="60.369829" lon="25.2590683"><ele>22.79</ele><time>2016-05-22T15:24:40+03:00</time><course>265.79</course><roll>-1.52</roll><pitch>3.99</pitch><mode /></trkpt><trkpt lat="60.3698285" lon="25.259068"><ele>22.8</ele><time>2016-05-22T15:24:40+03:00</time><course>265.62</course><roll>-1.03</roll><pitch>3.26</pitch><mode /></trkpt><trkpt lat="60.3698283" lon="25.2590673"><ele>22.77</ele><time>2016-05-22T15:24:40+03:00</time><course>265.34</course><roll>-0.88</roll><pitch>2.69</pitch><mode /></trkpt><trkpt lat="60.3698282" lon="25.259066"><ele>22.72</ele><time>2016-05-22T15:24:40+03:00</time><course>265.31</course><roll>-1.13</roll><pitch>2.58</pitch><mode /></trkpt><trkpt lat="60.3698279" lon="25.2590649"><ele>22.62</ele><time>2016-05-22T15:24:41+03:00</time><course>265.24</course><roll>-0.08</roll><pitch>2.24</pitch><mode /></trkpt><trkpt lat="60.3698278" lon="25.2590627"><ele>22.39</ele><time>2016-05-22T15:24:41+03:00</time><course>265.26</course><roll>-0.01</roll><pitch>0.9</pitch><mode /></trkpt><trkpt lat="60.369828" lon="25.2590619"><ele>22.3</ele><time>2016-05-22T15:24:41+03:00</time><course>265.35</course><roll>0.15</roll><pitch>0.69</pitch><mode /></trkpt><trkpt lat="60.3698282" lon="25.2590611"><ele>22.15</ele><time>2016-05-22T15:24:41+03:00</time><course>265.27</course><roll>-0.06</roll><pitch>0.24</pitch><mode /></trkpt><trkpt lat="60.3698283" lon="25.2590599"><ele>21.99</ele><time>2016-05-22T15:24:42+03:00</time><course>265.06</course><roll>0.66</roll><pitch>0.16</pitch><mode /></trkpt><trkpt lat="60.3698285" lon="25.2590585"><ele>21.82</ele><time>2016-05-22T15:24:42+03:00</time><course>264.83</course><roll>0.86</roll><pitch>0</pitch><mode /></trkpt><trkpt lat="60.3698289" lon="25.2590574"><ele>21.68</ele><time>2016-05-22T15:24:42+03:00</time><course>264.83</course><roll>0.89</roll><pitch>-0.35</pitch><mode /></trkpt><trkpt lat="60.3698292" lon="25.2590565"><ele>21.63</ele><time>2016-05-22T15:24:42+03:00</time><course>264.86</course><roll>1.25</roll><pitch>-0.34</pitch><mode /></trkpt><trkpt lat="60.3698295" lon="25.2590558"><ele>21.64</ele><time>2016-05-22T15:24:42+03:00</time><course>265.22</course><roll>0.84</roll><pitch>0.69</pitch><mode /></trkpt><trkpt lat="60.3698298" lon="25.2590551"><ele>21.69</ele><time>2016-05-22T15:24:43+03:00</time><course>265.98</course><roll>0.54</roll><pitch>0.74</pitch><mode /></trkpt><trkpt lat="60.36983" lon="25.2590541"><ele>21.78</ele><time>2016-05-22T15:24:43+03:00</time><course>266.84</course><roll>0.71</roll><pitch>0.78</pitch><mode /></trkpt><trkpt lat="60.3698302" lon="25.2590527"><ele>21.92</ele><time>2016-05-22T15:24:43+03:00</time><course>267.53</course><roll>-0.12</roll><pitch>0.73</pitch><mode /></trkpt><trkpt lat="60.3698309" lon="25.2590509"><ele>22.05</ele><time>2016-05-22T15:24:43+03:00</time><course>267.77</course><roll>-0.07</roll><pitch>0.54</pitch><mode /></trkpt><trkpt lat="60.3698316" lon="25.2590491"><ele>22.15</ele><time>2016-05-22T15:24:43+03:00</time><course>267.57</course><roll>-0.19</roll><pitch>0.39</pitch><mode /></trkpt><trkpt lat="60.369832" lon="25.2590477"><ele>22.24</ele><time>2016-05-22T15:24:44+03:00</time><course>267.22</course><roll>-0.05</roll><pitch>0.23</pitch><mode /></trkpt><trkpt lat="60.3698325" lon="25.2590463"><ele>22.39</ele><time>2016-05-22T15:24:44+03:00</time><course>266.69</course><roll>-0.09</roll><pitch>0.24</pitch><mode /></trkpt><trkpt lat="60.3698329" lon="25.2590446"><ele>22.43</ele><time>2016-05-22T15:24:44+03:00</time><course>266.23</course><roll>0.4</roll><pitch>0.2</pitch><mode /></trkpt><trkpt lat="60.3698333" lon="25.2590429"><ele>22.49</ele><time>2016-05-22T15:24:44+03:00</time><course>266.29</course><roll>1.02</roll><pitch>-0.27</pitch><mode /></trkpt><trkpt lat="60.3698338" lon="25.2590411"><ele>22.53</ele><time>2016-05-22T15:24:44+03:00</time><course>267.21</course><roll>1.44</roll><pitch>-0.06</pitch><mode /></trkpt><trkpt lat="60.3698344" lon="25.2590393"><ele>22.53</ele><time>2016-05-22T15:24:45+03:00</time><course>270.24</course><roll>0.79</roll><pitch>-0.15</pitch><mode /></trkpt><trkpt lat="60.369835" lon="25.2590376"><ele>22.5</ele><time>2016-05-22T15:24:45+03:00</time><course>273.2</course><roll>0.94</roll><pitch>-0.41</pitch><mode /></trkpt><trkpt lat="60.3698355" lon="25.2590358"><ele>22.47</ele><time>2016-05-22T15:24:45+03:00</time><course>276.2</course><roll>1.73</roll><pitch>-0.27</pitch><mode /></trkpt><trkpt lat="60.3698361" lon="25.2590342"><ele>22.43</ele><time>2016-05-22T15:24:45+03:00</time><course>280.69</course><roll>0.4</roll><pitch>-0.36</pitch><mode /></trkpt><trkpt lat="60.3698367" lon="25.2590329"><ele>22.45</ele><time>2016-05-22T15:24:45+03:00</time><course>287.24</course><roll>-0.29</roll><pitch>0.12</pitch><mode /></trkpt><trkpt lat="60.3698372" lon="25.2590315"><ele>22.47</ele><time>2016-05-22T15:24:46+03:00</time><course>294.39</course><roll>-0.53</roll><pitch>0.38</pitch><mode /></trkpt><trkpt lat="60.3698377" lon="25.2590303"><ele>22.55</ele><time>2016-05-22T15:24:46+03:00</time><course>301.66</course><roll>-1.35</roll><pitch>0.06</pitch><mode /></trkpt><trkpt lat="60.3698384" lon="25.2590293"><ele>22.61</ele><time>2016-05-22T15:24:46+03:00</time><course>308.91</course><roll>-1.02</roll><pitch>0.42</pitch><mode /></trkpt><trkpt lat="60.3698394" lon="25.259028"><ele>22.65</ele><time>2016-05-22T15:24:46+03:00</time><course>315.73</course><roll>-1.17</roll><pitch>1.12</pitch><mode /></trkpt><trkpt lat="60.3698406" lon="25.2590271"><ele>22.76</ele><time>2016-05-22T15:24:46+03:00</time><course>322.52</course><roll>-1.22</roll><pitch>0.73</pitch><mode /></trkpt><trkpt lat="60.3698418" lon="25.2590263"><ele>22.93</ele><time>2016-05-22T15:24:47+03:00</time><course>329.18</course><roll>-0.74</roll><pitch>0.53</pitch><mode /></trkpt><trkpt lat="60.3698432" lon="25.2590256"><ele>23.09</ele><time>2016-05-22T15:24:47+03:00</time><course>332.63</course><roll>-1.44</roll><pitch>0.81</pitch><mode /></trkpt><trkpt lat="60.3698466" lon="25.2590254"><ele>23.45</ele><time>2016-05-22T15:24:47+03:00</time><course>330.75</course><roll>-0.62</roll><pitch>0.15</pitch><mode /></trkpt><trkpt lat="60.3698506" lon="25.2590265"><ele>23.74</ele><time>2016-05-22T15:24:48+03:00</time><course>328.25</course><roll>-0.12</roll><pitch>-0.19</pitch><mode /></trkpt><trkpt lat="60.3698527" lon="25.259028"><ele>23.86</ele><time>2016-05-22T15:24:48+03:00</time><course>327.74</course><roll>-0.41</roll><pitch>-0.44</pitch><mode /></trkpt><trkpt lat="60.3698549" lon="25.2590292"><ele>23.92</ele><time>2016-05-22T15:24:48+03:00</time><course>327.34</course><roll>0.68</roll><pitch>0.26</pitch><mode /></trkpt><trkpt lat="60.369857" lon="25.2590306"><ele>23.94</ele><time>2016-05-22T15:24:48+03:00</time><course>327.37</course><roll>1.56</roll><pitch>0.22</pitch><mode /></trkpt><trkpt lat="60.3698591" lon="25.259032"><ele>23.92</ele><time>2016-05-22T15:24:48+03:00</time><course>327.63</course><roll>2.04</roll><pitch>0.39</pitch><mode /></trkpt><trkpt lat="60.3698614" lon="25.2590336"><ele>23.9</ele><time>2016-05-22T15:24:49+03:00</time><course>327.14</course><roll>3.9</roll><pitch>0.02</pitch><mode /></trkpt><trkpt lat="60.3698638" lon="25.259035"><ele>23.84</ele><time>2016-05-22T15:24:49+03:00</time><course>326.57</course><roll>3.75</roll><pitch>-0.84</pitch><mode /></trkpt><trkpt lat="60.3698661" lon="25.2590365"><ele>23.73</ele><time>2016-05-22T15:24:49+03:00</time><course>326.39</course><roll>4.28</roll><pitch>-0.59</pitch><mode /></trkpt><trkpt lat="60.369868" lon="25.2590383"><ele>23.64</ele><time>2016-05-22T15:24:49+03:00</time><course>326.18</course><roll>3.68</roll><pitch>-0.6</pitch><mode /></trkpt><trkpt lat="60.3698699" lon="25.2590399"><ele>23.51</ele><time>2016-05-22T15:24:49+03:00</time><course>326.5</course><roll>3.54</roll><pitch>-0.21</pitch><mode /></trkpt><trkpt lat="60.3698719" lon="25.2590411"><ele>23.39</ele><time>2016-05-22T15:24:50+03:00</time><course>326.92</course><roll>2.55</roll><pitch>-0.27</pitch><mode /></trkpt><trkpt lat="60.3698738" lon="25.259042"><ele>23.21</ele><time>2016-05-22T15:24:50+03:00</time><course>327.16</course><roll>3.32</roll><pitch>0.28</pitch><mode /></trkpt><trkpt lat="60.3698752" lon="25.2590426"><ele>23</ele><time>2016-05-22T15:24:50+03:00</time><course>327.2</course><roll>4.59</roll><pitch>-0.4</pitch><mode /></trkpt><trkpt lat="60.3698765" lon="25.2590428"><ele>22.74</ele><time>2016-05-22T15:24:50+03:00</time><course>327.48</course><roll>3.71</roll><pitch>-0.6</pitch><mode /></trkpt><trkpt lat="60.3698779" lon="25.2590429"><ele>22.46</ele><time>2016-05-22T15:24:50+03:00</time><course>327.93</course><roll>4.43</roll><pitch>-0.9</pitch><mode /></trkpt><trkpt lat="60.3698793" lon="25.259043"><ele>22.23</ele><time>2016-05-22T15:24:51+03:00</time><course>327.79</course><roll>4.75</roll><pitch>-1</pitch><mode /></trkpt><trkpt lat="60.3698822" lon="25.2590427"><ele>21.85</ele><time>2016-05-22T15:24:51+03:00</time><course>327.51</course><roll>6.17</roll><pitch>-2.07</pitch><mode /></trkpt><trkpt lat="60.369883" lon="25.259042"><ele>21.67</ele><time>2016-05-22T15:24:51+03:00</time><course>327.69</course><roll>6.13</roll><pitch>-1.39</pitch><mode /></trkpt><trkpt lat="60.3698839" lon="25.2590415"><ele>21.63</ele><time>2016-05-22T15:24:51+03:00</time><course>327.7</course><roll>4.85</roll><pitch>-0.33</pitch><mode /></trkpt><trkpt lat="60.3698845" lon="25.2590409"><ele>21.63</ele><time>2016-05-22T15:24:52+03:00</time><course>327.66</course><roll>3.8</roll><pitch>0.36</pitch><mode /></trkpt><trkpt lat="60.3698852" lon="25.2590403"><ele>21.73</ele><time>2016-05-22T15:24:52+03:00</time><course>327.73</course><roll>4.58</roll><pitch>0.81</pitch><mode /></trkpt><trkpt lat="60.369886" lon="25.2590398"><ele>21.8</ele><time>2016-05-22T15:24:52+03:00</time><course>327.77</course><roll>6.67</roll><pitch>0.32</pitch><mode /></trkpt><trkpt lat="60.3698867" lon="25.2590389"><ele>21.84</ele><time>2016-05-22T15:24:52+03:00</time><course>327.74</course><roll>7.81</roll><pitch>-1.12</pitch><mode /></trkpt><trkpt lat="60.3698875" lon="25.2590378"><ele>21.93</ele><time>2016-05-22T15:24:52+03:00</time><course>327.24</course><roll>8.06</roll><pitch>-3.06</pitch><mode /></trkpt><trkpt lat="60.3698881" lon="25.2590367"><ele>21.94</ele><time>2016-05-22T15:24:53+03:00</time><course>326.98</course><roll>5.75</roll><pitch>-4.88</pitch><mode /></trkpt><trkpt lat="60.3698885" lon="25.2590358"><ele>21.99</ele><time>2016-05-22T15:24:53+03:00</time><course>327.02</course><roll>5.01</roll><pitch>-5.26</pitch><mode /></trkpt><trkpt lat="60.3698888" lon="25.2590342"><ele>22.01</ele><time>2016-05-22T15:24:53+03:00</time><course>326.83</course><roll>4.21</roll><pitch>-5.61</pitch><mode /></trkpt><trkpt lat="60.3698891" lon="25.2590327"><ele>22.02</ele><time>2016-05-22T15:24:53+03:00</time><course>326.91</course><roll>5.02</roll><pitch>-5.34</pitch><mode /></trkpt><trkpt lat="60.369889" lon="25.2590316"><ele>22.06</ele><time>2016-05-22T15:24:53+03:00</time><course>327.04</course><roll>3.95</roll><pitch>-5.47</pitch><mode /></trkpt><trkpt lat="60.3698884" lon="25.2590307"><ele>22.07</ele><time>2016-05-22T15:24:54+03:00</time><course>327.26</course><roll>4.26</roll><pitch>-4.82</pitch><mode /></trkpt><trkpt lat="60.3698877" lon="25.2590301"><ele>22.07</ele><time>2016-05-22T15:24:54+03:00</time><course>327.64</course><roll>3.63</roll><pitch>-4.05</pitch><mode /></trkpt><trkpt lat="60.369887" lon="25.2590299"><ele>22.05</ele><time>2016-05-22T15:24:54+03:00</time><course>327.69</course><roll>2.99</roll><pitch>-3.72</pitch><mode /></trkpt><trkpt lat="60.3698864" lon="25.25903"><ele>22.06</ele><time>2016-05-22T15:24:54+03:00</time><course>327.48</course><roll>2.26</roll><pitch>-3.64</pitch><mode /></trkpt><trkpt lat="60.3698857" lon="25.2590304"><ele>22.09</ele><time>2016-05-22T15:24:54+03:00</time><course>326.84</course><roll>3.05</roll><pitch>-4.25</pitch><mode /></trkpt><trkpt lat="60.3698846" lon="25.2590309"><ele>22.13</ele><time>2016-05-22T15:24:55+03:00</time><course>326.19</course><roll>3.47</roll><pitch>-4.91</pitch><mode /></trkpt><trkpt lat="60.3698834" lon="25.2590314"><ele>22.18</ele><time>2016-05-22T15:24:55+03:00</time><course>325.91</course><roll>2.48</roll><pitch>-3.04</pitch><mode /></trkpt><trkpt lat="60.3698821" lon="25.2590323"><ele>22.29</ele><time>2016-05-22T15:24:55+03:00</time><course>326.11</course><roll>2.18</roll><pitch>-2.48</pitch><mode /></trkpt><trkpt lat="60.369881" lon="25.2590338"><ele>22.4</ele><time>2016-05-22T15:24:55+03:00</time><course>326.52</course><roll>1.27</roll><pitch>-1.95</pitch><mode /></trkpt><trkpt lat="60.3698799" lon="25.2590358"><ele>22.51</ele><time>2016-05-22T15:24:55+03:00</time><course>326.92</course><roll>2.77</roll><pitch>-1.84</pitch><mode /></trkpt><trkpt lat="60.3698787" lon="25.2590373"><ele>22.54</ele><time>2016-05-22T15:24:56+03:00</time><course>327.16</course><roll>3.69</roll><pitch>-3.26</pitch><mode /></trkpt><trkpt lat="60.3698775" lon="25.2590381"><ele>22.6</ele><time>2016-05-22T15:24:56+03:00</time><course>327.2</course><roll>3.36</roll><pitch>-3.19</pitch><mode /></trkpt><trkpt lat="60.3698763" lon="25.2590392"><ele>22.67</ele><time>2016-05-22T15:24:56+03:00</time><course>326.77</course><roll>3.18</roll><pitch>-2.89</pitch><mode /></trkpt><trkpt lat="60.3698753" lon="25.2590406"><ele>22.74</ele><time>2016-05-22T15:24:56+03:00</time><course>326.06</course><roll>2.9</roll><pitch>-2.71</pitch><mode /></trkpt><trkpt lat="60.3698742" lon="25.2590423"><ele>22.8</ele><time>2016-05-22T15:24:56+03:00</time><course>325.64</course><roll>2.64</roll><pitch>-2.39</pitch><mode /></trkpt><trkpt lat="60.3698726" lon="25.2590434"><ele>22.87</ele><time>2016-05-22T15:24:57+03:00</time><course>325.7</course><roll>2.85</roll><pitch>-2.2</pitch><mode /></trkpt><trkpt lat="60.3698716" lon="25.2590441"><ele>22.95</ele><time>2016-05-22T15:24:57+03:00</time><course>325.83</course><roll>2.15</roll><pitch>-2.33</pitch><mode /></trkpt><trkpt lat="60.3698708" lon="25.2590451"><ele>22.98</ele><time>2016-05-22T15:24:57+03:00</time><course>326.09</course><roll>1.01</roll><pitch>-1.17</pitch><mode /></trkpt><trkpt lat="60.3698698" lon="25.2590459"><ele>23.04</ele><time>2016-05-22T15:24:57+03:00</time><course>326.37</course><roll>0.62</roll><pitch>-0.06</pitch><mode /></trkpt><trkpt lat="60.369869" lon="25.2590464"><ele>23.11</ele><time>2016-05-22T15:24:57+03:00</time><course>326.68</course><roll>0.52</roll><pitch>-0.28</pitch><mode /></trkpt><trkpt lat="60.3698685" lon="25.2590473"><ele>23.17</ele><time>2016-05-22T15:24:58+03:00</time><course>326.96</course><roll>0.8</roll><pitch>0.07</pitch><mode /></trkpt><trkpt lat="60.3698683" lon="25.2590482"><ele>23.26</ele><time>2016-05-22T15:24:58+03:00</time><course>326.98</course><roll>0.65</roll><pitch>-0.11</pitch><mode /></trkpt><trkpt lat="60.3698684" lon="25.2590488"><ele>23.29</ele><time>2016-05-22T15:24:58+03:00</time><course>326.87</course><roll>0.44</roll><pitch>-0.09</pitch><mode /></trkpt><trkpt lat="60.3698686" lon="25.2590495"><ele>23.3</ele><time>2016-05-22T15:24:58+03:00</time><course>326.89</course><roll>0.03</roll><pitch>0.01</pitch><mode /></trkpt><trkpt lat="60.369869" lon="25.2590501"><ele>23.3</ele><time>2016-05-22T15:24:58+03:00</time><course>327.05</course><roll>0.46</roll><pitch>-0.74</pitch><mode /></trkpt><trkpt lat="60.3698696" lon="25.2590504"><ele>23.32</ele><time>2016-05-22T15:24:59+03:00</time><course>326.88</course><roll>0.7</roll><pitch>-2</pitch><mode /></trkpt><trkpt lat="60.3698706" lon="25.2590508"><ele>23.34</ele><time>2016-05-22T15:24:59+03:00</time><course>326.62</course><roll>1.91</roll><pitch>-3.69</pitch><mode /></trkpt><trkpt lat="60.3698716" lon="25.2590516"><ele>23.35</ele><time>2016-05-22T15:24:59+03:00</time><course>326.37</course><roll>2.47</roll><pitch>-6.3</pitch><mode /></trkpt><trkpt lat="60.3698725" lon="25.2590525"><ele>23.32</ele><time>2016-05-22T15:24:59+03:00</time><course>326.29</course><roll>4.01</roll><pitch>-7.26</pitch><mode /></trkpt><trkpt lat="60.3698733" lon="25.2590535"><ele>23.3</ele><time>2016-05-22T15:24:59+03:00</time><course>326.13</course><roll>4.65</roll><pitch>-7.39</pitch><mode /></trkpt><trkpt lat="60.3698739" lon="25.2590547"><ele>23.25</ele><time>2016-05-22T15:25:00+03:00</time><course>326.04</course><roll>4.57</roll><pitch>-7.19</pitch><mode /></trkpt><trkpt lat="60.3698742" lon="25.2590557"><ele>23.23</ele><time>2016-05-22T15:25:00+03:00</time><course>325.88</course><roll>3.92</roll><pitch>-7.09</pitch><mode /></trkpt><trkpt lat="60.3698739" lon="25.2590575"><ele>23.16</ele><time>2016-05-22T15:25:00+03:00</time><course>325.52</course><roll>2.83</roll><pitch>-5.69</pitch><mode /></trkpt><trkpt lat="60.3698735" lon="25.2590587"><ele>23.08</ele><time>2016-05-22T15:25:00+03:00</time><course>325.81</course><roll>2.35</roll><pitch>-5.56</pitch><mode /></trkpt><trkpt lat="60.3698731" lon="25.2590601"><ele>23.03</ele><time>2016-05-22T15:25:01+03:00</time><course>326.03</course><roll>2.22</roll><pitch>-3.26</pitch><mode /></trkpt><trkpt lat="60.3698726" lon="25.2590613"><ele>22.97</ele><time>2016-05-22T15:25:01+03:00</time><course>325.97</course><roll>2.5</roll><pitch>-3.65</pitch><mode /></trkpt><trkpt lat="60.3698722" lon="25.2590631"><ele>22.85</ele><time>2016-05-22T15:25:01+03:00</time><course>326.04</course><roll>2.59</roll><pitch>-4.54</pitch><mode /></trkpt><trkpt lat="60.3698717" lon="25.2590651"><ele>22.77</ele><time>2016-05-22T15:25:01+03:00</time><course>326.31</course><roll>3.11</roll><pitch>-4.96</pitch><mode /></trkpt><trkpt lat="60.3698712" lon="25.2590666"><ele>22.71</ele><time>2016-05-22T15:25:01+03:00</time><course>326.41</course><roll>3.17</roll><pitch>-5.11</pitch><mode /></trkpt><trkpt lat="60.3698707" lon="25.2590682"><ele>22.67</ele><time>2016-05-22T15:25:02+03:00</time><course>326.34</course><roll>2.82</roll><pitch>-4.43</pitch><mode /></trkpt><trkpt lat="60.3698702" lon="25.2590696"><ele>22.61</ele><time>2016-05-22T15:25:02+03:00</time><course>326.06</course><roll>1.45</roll><pitch>-3.6</pitch><mode /></trkpt><trkpt lat="60.3698696" lon="25.2590713"><ele>22.62</ele><time>2016-05-22T15:25:02+03:00</time><course>325.71</course><roll>2.02</roll><pitch>-3.64</pitch><mode /></trkpt><trkpt lat="60.3698688" lon="25.259073"><ele>22.63</ele><time>2016-05-22T15:25:02+03:00</time><course>325.57</course><roll>2.69</roll><pitch>-4.16</pitch><mode /></trkpt><trkpt lat="60.3698682" lon="25.2590746"><ele>22.69</ele><time>2016-05-22T15:25:02+03:00</time><course>325.66</course><roll>3.06</roll><pitch>-4.47</pitch><mode /></trkpt><trkpt lat="60.3698675" lon="25.259076"><ele>22.7</ele><time>2016-05-22T15:25:03+03:00</time><course>325.87</course><roll>3.13</roll><pitch>-3.9</pitch><mode /></trkpt><trkpt lat="60.3698668" lon="25.2590774"><ele>22.79</ele><time>2016-05-22T15:25:03+03:00</time><course>325.99</course><roll>2.41</roll><pitch>-3.7</pitch><mode /></trkpt><trkpt lat="60.3698659" lon="25.2590788"><ele>22.84</ele><time>2016-05-22T15:25:03+03:00</time><course>326.12</course><roll>1.02</roll><pitch>-2.39</pitch><mode /></trkpt><trkpt lat="60.3698651" lon="25.2590802"><ele>22.89</ele><time>2016-05-22T15:25:03+03:00</time><course>326.23</course><roll>0</roll><pitch>-1.77</pitch><mode /></trkpt><trkpt lat="60.3698644" lon="25.2590818"><ele>22.89</ele><time>2016-05-22T15:25:03+03:00</time><course>326.36</course><roll>1.33</roll><pitch>-3.53</pitch><mode /></trkpt><trkpt lat="60.3698636" lon="25.2590835"><ele>22.86</ele><time>2016-05-22T15:25:04+03:00</time><course>326.52</course><roll>0.97</roll><pitch>-2.94</pitch><mode /></trkpt><trkpt lat="60.3698627" lon="25.2590853"><ele>22.81</ele><time>2016-05-22T15:25:04+03:00</time><course>326.4</course><roll>0.84</roll><pitch>-3.02</pitch><mode /></trkpt><trkpt lat="60.3698621" lon="25.259087"><ele>22.78</ele><time>2016-05-22T15:25:04+03:00</time><course>326.26</course><roll>1.19</roll><pitch>-3.09</pitch><mode /></trkpt><trkpt lat="60.3698616" lon="25.2590886"><ele>22.76</ele><time>2016-05-22T15:25:04+03:00</time><course>326.31</course><roll>1.44</roll><pitch>-3.2</pitch><mode /></trkpt><trkpt lat="60.3698611" lon="25.2590901"><ele>22.74</ele><time>2016-05-22T15:25:04+03:00</time><course>326.48</course><roll>0.95</roll><pitch>-3.07</pitch><mode /></trkpt><trkpt lat="60.3698606" lon="25.2590916"><ele>22.7</ele><time>2016-05-22T15:25:05+03:00</time><course>326.63</course><roll>1.23</roll><pitch>-2.93</pitch><mode /></trkpt><trkpt lat="60.3698603" lon="25.2590931"><ele>22.68</ele><time>2016-05-22T15:25:05+03:00</time><course>326.72</course><roll>1.3</roll><pitch>-2.99</pitch><mode /></trkpt><trkpt lat="60.3698599" lon="25.2590946"><ele>22.66</ele><time>2016-05-22T15:25:05+03:00</time><course>326.7</course><roll>1.17</roll><pitch>-2.92</pitch><mode /></trkpt><trkpt lat="60.3698595" lon="25.2590962"><ele>22.66</ele><time>2016-05-22T15:25:05+03:00</time><course>326.55</course><roll>0.48</roll><pitch>-2.14</pitch><mode /></trkpt><trkpt lat="60.3698591" lon="25.2590975"><ele>22.65</ele><time>2016-05-22T15:25:05+03:00</time><course>326.34</course><roll>0.32</roll><pitch>-1.94</pitch><mode /></trkpt><trkpt lat="60.3698589" lon="25.2590989"><ele>22.63</ele><time>2016-05-22T15:25:06+03:00</time><course>326.23</course><roll>0.87</roll><pitch>-2.52</pitch><mode /></trkpt><trkpt lat="60.3698588" lon="25.2591003"><ele>22.62</ele><time>2016-05-22T15:25:06+03:00</time><course>326.15</course><roll>0.94</roll><pitch>-2.82</pitch><mode /></trkpt><trkpt lat="60.3698589" lon="25.2591016"><ele>22.61</ele><time>2016-05-22T15:25:06+03:00</time><course>326.21</course><roll>2.41</roll><pitch>-4.8</pitch><mode /></trkpt><trkpt lat="60.3698588" lon="25.2591029"><ele>22.6</ele><time>2016-05-22T15:25:06+03:00</time><course>326.2</course><roll>5.54</roll><pitch>-5.64</pitch><mode /></trkpt><trkpt lat="60.3698585" lon="25.2591043"><ele>22.64</ele><time>2016-05-22T15:25:06+03:00</time><course>326.28</course><roll>6.78</roll><pitch>-4.25</pitch><mode /></trkpt><trkpt lat="60.369858" lon="25.2591056"><ele>22.71</ele><time>2016-05-22T15:25:07+03:00</time><course>326.38</course><roll>6.98</roll><pitch>-2.67</pitch><mode /></trkpt><trkpt lat="60.3698574" lon="25.2591062"><ele>22.81</ele><time>2016-05-22T15:25:07+03:00</time><course>326.55</course><roll>6.14</roll><pitch>-1.42</pitch><mode /></trkpt><trkpt lat="60.3698564" lon="25.2591069"><ele>22.91</ele><time>2016-05-22T15:25:07+03:00</time><course>326.66</course><roll>5.26</roll><pitch>-0.51</pitch><mode /></trkpt><trkpt lat="60.3698552" lon="25.2591072"><ele>22.97</ele><time>2016-05-22T15:25:07+03:00</time><course>326.62</course><roll>5.38</roll><pitch>-0.44</pitch><mode /></trkpt><trkpt lat="60.3698542" lon="25.2591069"><ele>23.02</ele><time>2016-05-22T15:25:07+03:00</time><course>326.49</course><roll>5.45</roll><pitch>-0.53</pitch><mode /></trkpt><trkpt lat="60.3698531" lon="25.2591059"><ele>23.05</ele><time>2016-05-22T15:25:08+03:00</time><course>326.42</course><roll>4.8</roll><pitch>-0.15</pitch><mode /></trkpt><trkpt lat="60.369852" lon="25.2591043"><ele>23.07</ele><time>2016-05-22T15:25:08+03:00</time><course>326.17</course><roll>4.19</roll><pitch>-0.05</pitch><mode /></trkpt><trkpt lat="60.3698508" lon="25.259102"><ele>23.06</ele><time>2016-05-22T15:25:08+03:00</time><course>325.81</course><roll>1.01</roll><pitch>-0.19</pitch><mode /></trkpt><trkpt lat="60.3698497" lon="25.2590998"><ele>23.09</ele><time>2016-05-22T15:25:08+03:00</time><course>325.97</course><roll>1.16</roll><pitch>-0.55</pitch><mode /></trkpt><trkpt lat="60.3698488" lon="25.2590971"><ele>23.19</ele><time>2016-05-22T15:25:08+03:00</time><course>326.36</course><roll>1.49</roll><pitch>-0.53</pitch><mode /></trkpt><trkpt lat="60.3698482" lon="25.2590939"><ele>23.26</ele><time>2016-05-22T15:25:09+03:00</time><course>326.81</course><roll>1.23</roll><pitch>-0.37</pitch><mode /></trkpt><trkpt lat="60.3698474" lon="25.2590906"><ele>23.31</ele><time>2016-05-22T15:25:09+03:00</time><course>327.21</course><roll>0.88</roll><pitch>-0.36</pitch><mode /></trkpt><trkpt lat="60.3698468" lon="25.2590875"><ele>23.44</ele><time>2016-05-22T15:25:09+03:00</time><course>327.26</course><roll>0.27</roll><pitch>-0.07</pitch><mode /></trkpt><trkpt lat="60.3698462" lon="25.2590845"><ele>23.54</ele><time>2016-05-22T15:25:09+03:00</time><course>327.06</course><roll>0.14</roll><pitch>-0.21</pitch><mode /></trkpt><trkpt lat="60.3698456" lon="25.2590817"><ele>23.63</ele><time>2016-05-22T15:25:09+03:00</time><course>326.79</course><roll>0.4</roll><pitch>-0.48</pitch><mode /></trkpt><trkpt lat="60.3698452" lon="25.2590782"><ele>23.68</ele><time>2016-05-22T15:25:10+03:00</time><course>326.68</course><roll>0.78</roll><pitch>-0.45</pitch><mode /></trkpt><trkpt lat="60.3698451" lon="25.259075"><ele>23.88</ele><time>2016-05-22T15:25:10+03:00</time><course>326.73</course><roll>0.39</roll><pitch>-0.34</pitch><mode /></trkpt><trkpt lat="60.3698453" lon="25.2590695"><ele>24.22</ele><time>2016-05-22T15:25:10+03:00</time><course>326.76</course><roll>0.48</roll><pitch>-0.31</pitch><mode /></trkpt><trkpt lat="60.3698456" lon="25.2590666"><ele>24.36</ele><time>2016-05-22T15:25:10+03:00</time><course>326.62</course><roll>0.49</roll><pitch>-0.22</pitch><mode /></trkpt><trkpt lat="60.3698458" lon="25.2590634"><ele>24.45</ele><time>2016-05-22T15:25:11+03:00</time><course>326.43</course><roll>0.45</roll><pitch>-0.18</pitch><mode /></trkpt><trkpt lat="60.369846" lon="25.2590601"><ele>24.59</ele><time>2016-05-22T15:25:11+03:00</time><course>326.31</course><roll>0.29</roll><pitch>-0.1</pitch><mode /></trkpt><trkpt lat="60.3698461" lon="25.2590563"><ele>24.67</ele><time>2016-05-22T15:25:11+03:00</time><course>326.12</course><roll>0.19</roll><pitch>0.07</pitch><mode /></trkpt><trkpt lat="60.3698467" lon="25.2590521"><ele>24.72</ele><time>2016-05-22T15:25:11+03:00</time><course>326.06</course><roll>0.29</roll><pitch>0.26</pitch><mode /></trkpt><trkpt lat="60.3698473" lon="25.2590477"><ele>24.76</ele><time>2016-05-22T15:25:11+03:00</time><course>326.18</course><roll>0.02</roll><pitch>0.24</pitch><mode /></trkpt><trkpt lat="60.3698482" lon="25.2590437"><ele>24.86</ele><time>2016-05-22T15:25:12+03:00</time><course>326.3</course><roll>0.35</roll><pitch>-0.27</pitch><mode /></trkpt><trkpt lat="60.3698493" lon="25.25904"><ele>24.93</ele><time>2016-05-22T15:25:12+03:00</time><course>326.17</course><roll>0.66</roll><pitch>-0.49</pitch><mode /></trkpt><trkpt lat="60.3698503" lon="25.2590361"><ele>24.94</ele><time>2016-05-22T15:25:12+03:00</time><course>325.86</course><roll>0.49</roll><pitch>-0.74</pitch><mode /></trkpt><trkpt lat="60.3698512" lon="25.2590319"><ele>24.98</ele><time>2016-05-22T15:25:12+03:00</time><course>325.67</course><roll>0.72</roll><pitch>-0.7</pitch><mode /></trkpt><trkpt lat="60.3698522" lon="25.2590279"><ele>25.05</ele><time>2016-05-22T15:25:12+03:00</time><course>325.61</course><roll>0.15</roll><pitch>-0.2</pitch><mode /></trkpt><trkpt lat="60.3698533" lon="25.2590235"><ele>25.14</ele><time>2016-05-22T15:25:13+03:00</time><course>325.72</course><roll>0.39</roll><pitch>-0.02</pitch><mode /></trkpt><trkpt lat="60.3698547" lon="25.2590189"><ele>25.24</ele><time>2016-05-22T15:25:13+03:00</time><course>325.97</course><roll>1.03</roll><pitch>-1.48</pitch><mode /></trkpt><trkpt lat="60.3698564" lon="25.2590149"><ele>25.32</ele><time>2016-05-22T15:25:13+03:00</time><course>326.25</course><roll>1.13</roll><pitch>-2.33</pitch><mode /></trkpt><trkpt lat="60.369858" lon="25.2590114"><ele>25.33</ele><time>2016-05-22T15:25:13+03:00</time><course>326.47</course><roll>0.77</roll><pitch>-2.78</pitch><mode /></trkpt><trkpt lat="60.3698593" lon="25.2590079"><ele>25.37</ele><time>2016-05-22T15:25:13+03:00</time><course>326.62</course><roll>0.39</roll><pitch>-2.63</pitch><mode /></trkpt><trkpt lat="60.3698607" lon="25.2590044"><ele>25.41</ele><time>2016-05-22T15:25:14+03:00</time><course>326.63</course><roll>0.63</roll><pitch>-2.86</pitch><mode /></trkpt><trkpt lat="60.369862" lon="25.2590011"><ele>25.46</ele><time>2016-05-22T15:25:14+03:00</time><course>326.59</course><roll>0.69</roll><pitch>-4.52</pitch><mode /></trkpt><trkpt lat="60.3698632" lon="25.258998"><ele>25.42</ele><time>2016-05-22T15:25:14+03:00</time><course>326.53</course><roll>0.99</roll><pitch>-4.76</pitch><mode /></trkpt><trkpt lat="60.3698644" lon="25.2589951"><ele>25.36</ele><time>2016-05-22T15:25:14+03:00</time><course>326.62</course><roll>0.84</roll><pitch>-4.88</pitch><mode /></trkpt><trkpt lat="60.3698654" lon="25.258992"><ele>25.3</ele><time>2016-05-22T15:25:14+03:00</time><course>326.76</course><roll>0.65</roll><pitch>-4.44</pitch><mode /></trkpt><trkpt lat="60.3698662" lon="25.2589894"><ele>25.26</ele><time>2016-05-22T15:25:15+03:00</time><course>326.92</course><roll>0.21</roll><pitch>-4.33</pitch><mode /></trkpt><trkpt lat="60.369867" lon="25.258987"><ele>25.13</ele><time>2016-05-22T15:25:15+03:00</time><course>326.97</course><roll>0.09</roll><pitch>-4.32</pitch><mode /></trkpt><trkpt lat="60.3698676" lon="25.2589852"><ele>25.04</ele><time>2016-05-22T15:25:15+03:00</time><course>326.95</course><roll>0.43</roll><pitch>-4.97</pitch><mode /></trkpt><trkpt lat="60.3698683" lon="25.2589836"><ele>24.92</ele><time>2016-05-22T15:25:15+03:00</time><course>326.93</course><roll>0.94</roll><pitch>-5.52</pitch><mode /></trkpt><trkpt lat="60.3698688" lon="25.2589824"><ele>24.76</ele><time>2016-05-22T15:25:15+03:00</time><course>326.82</course><roll>0.62</roll><pitch>-5.7</pitch><mode /></trkpt><trkpt lat="60.3698693" lon="25.2589815"><ele>24.6</ele><time>2016-05-22T15:25:16+03:00</time><course>326.75</course><roll>-0.27</roll><pitch>-5.33</pitch><mode /></trkpt><trkpt lat="60.3698697" lon="25.2589811"><ele>24.51</ele><time>2016-05-22T15:25:16+03:00</time><course>326.66</course><roll>-0.4</roll><pitch>-3.63</pitch><mode /></trkpt><trkpt lat="60.36987" lon="25.2589812"><ele>24.28</ele><time>2016-05-22T15:25:16+03:00</time><course>326.61</course><roll>-0.01</roll><pitch>-4.39</pitch><mode /></trkpt><trkpt lat="60.3698701" lon="25.2589808"><ele>24.13</ele><time>2016-05-22T15:25:16+03:00</time><course>326.53</course><roll>0.26</roll><pitch>-5.3</pitch><mode /></trkpt><trkpt lat="60.3698703" lon="25.2589806"><ele>23.99</ele><time>2016-05-22T15:25:16+03:00</time><course>326.53</course><roll>0.1</roll><pitch>-4.98</pitch><mode /></trkpt><trkpt lat="60.3698702" lon="25.2589828"><ele>23.6</ele><time>2016-05-22T15:25:17+03:00</time><course>326.59</course><roll>0.18</roll><pitch>-3.58</pitch><mode /></trkpt><trkpt lat="60.3698699" lon="25.2589845"><ele>23.38</ele><time>2016-05-22T15:25:17+03:00</time><course>326.5</course><roll>0.02</roll><pitch>-3.17</pitch><mode /></trkpt><trkpt lat="60.3698694" lon="25.258986"><ele>23.22</ele><time>2016-05-22T15:25:17+03:00</time><course>326.4</course><roll>0.36</roll><pitch>-2.65</pitch><mode /></trkpt><trkpt lat="60.3698691" lon="25.2589874"><ele>23.13</ele><time>2016-05-22T15:25:17+03:00</time><course>326.46</course><roll>0.92</roll><pitch>-3.5</pitch><mode /></trkpt><trkpt lat="60.3698688" lon="25.2589894"><ele>23.03</ele><time>2016-05-22T15:25:18+03:00</time><course>326.52</course><roll>0.29</roll><pitch>-3.02</pitch><mode /></trkpt><trkpt lat="60.3698683" lon="25.2589922"><ele>23</ele><time>2016-05-22T15:25:18+03:00</time><course>326.57</course><roll>0.42</roll><pitch>-2.96</pitch><mode /></trkpt><trkpt lat="60.3698677" lon="25.2589947"><ele>22.99</ele><time>2016-05-22T15:25:18+03:00</time><course>326.73</course><roll>0.19</roll><pitch>-2.29</pitch><mode /></trkpt><trkpt lat="60.3698672" lon="25.2589972"><ele>23.03</ele><time>2016-05-22T15:25:18+03:00</time><course>327.05</course><roll>0.2</roll><pitch>-1.96</pitch><mode /></trkpt><trkpt lat="60.3698669" lon="25.259"><ele>23.04</ele><time>2016-05-22T15:25:18+03:00</time><course>327.34</course><roll>0.28</roll><pitch>-1.9</pitch><mode /></trkpt><trkpt lat="60.3698666" lon="25.2590029"><ele>23.02</ele><time>2016-05-22T15:25:19+03:00</time><course>327.65</course><roll>0.06</roll><pitch>-1.82</pitch><mode /></trkpt><trkpt lat="60.3698663" lon="25.2590063"><ele>23</ele><time>2016-05-22T15:25:19+03:00</time><course>328.1</course><roll>0.73</roll><pitch>-2.91</pitch><mode /></trkpt><trkpt lat="60.3698657" lon="25.2590097"><ele>22.95</ele><time>2016-05-22T15:25:19+03:00</time><course>328.55</course><roll>0.59</roll><pitch>-2.76</pitch><mode /></trkpt><trkpt lat="60.369865" lon="25.2590129"><ele>22.85</ele><time>2016-05-22T15:25:19+03:00</time><course>328.98</course><roll>1.26</roll><pitch>-3.02</pitch><mode /></trkpt><trkpt lat="60.3698641" lon="25.2590164"><ele>22.69</ele><time>2016-05-22T15:25:19+03:00</time><course>329.19</course><roll>1.02</roll><pitch>-2.77</pitch><mode /></trkpt><trkpt lat="60.3698633" lon="25.2590202"><ele>22.54</ele><time>2016-05-22T15:25:20+03:00</time><course>329.09</course><roll>0.51</roll><pitch>-2.45</pitch><mode /></trkpt><trkpt lat="60.3698624" lon="25.2590238"><ele>22.5</ele><time>2016-05-22T15:25:20+03:00</time><course>329.33</course><roll>0.6</roll><pitch>-0.67</pitch><mode /></trkpt><trkpt lat="60.3698615" lon="25.2590271"><ele>22.46</ele><time>2016-05-22T15:25:20+03:00</time><course>331.3</course><roll>0.38</roll><pitch>-0.99</pitch><mode /></trkpt><trkpt lat="60.3698605" lon="25.2590305"><ele>22.35</ele><time>2016-05-22T15:25:20+03:00</time><course>335.56</course><roll>0.36</roll><pitch>-0.94</pitch><mode /></trkpt><trkpt lat="60.3698594" lon="25.2590336"><ele>22.29</ele><time>2016-05-22T15:25:20+03:00</time><course>341.63</course><roll>-0.14</roll><pitch>-1.67</pitch><mode /></trkpt><trkpt lat="60.3698584" lon="25.2590362"><ele>22.29</ele><time>2016-05-22T15:25:21+03:00</time><course>348.68</course><roll>0.34</roll><pitch>-1.14</pitch><mode /></trkpt><trkpt lat="60.3698576" lon="25.2590382"><ele>22.39</ele><time>2016-05-22T15:25:21+03:00</time><course>355.45</course><roll>0.27</roll><pitch>-0.52</pitch><mode /></trkpt><trkpt lat="60.3698571" lon="25.2590408"><ele>22.59</ele><time>2016-05-22T15:25:21+03:00</time><course>1.45</course><roll>0.24</roll><pitch>-0.23</pitch><mode /></trkpt><trkpt lat="60.3698563" lon="25.2590433"><ele>22.73</ele><time>2016-05-22T15:25:21+03:00</time><course>7.25</course><roll>0.09</roll><pitch>-0.62</pitch><mode /></trkpt><trkpt lat="60.3698554" lon="25.2590458"><ele>22.91</ele><time>2016-05-22T15:25:21+03:00</time><course>13.16</course><roll>0.43</roll><pitch>-0.66</pitch><mode /></trkpt><trkpt lat="60.3698548" lon="25.2590479"><ele>23.16</ele><time>2016-05-22T15:25:22+03:00</time><course>19.19</course><roll>0.6</roll><pitch>-0.43</pitch><mode /></trkpt><trkpt lat="60.3698542" lon="25.2590503"><ele>23.4</ele><time>2016-05-22T15:25:22+03:00</time><course>26.47</course><roll>0.56</roll><pitch>-0.3</pitch><mode /></trkpt><trkpt lat="60.3698531" lon="25.2590522"><ele>23.62</ele><time>2016-05-22T15:25:22+03:00</time><course>34.11</course><roll>0.46</roll><pitch>-0.26</pitch><mode /></trkpt><trkpt lat="60.3698522" lon="25.2590544"><ele>23.9</ele><time>2016-05-22T15:25:22+03:00</time><course>41.02</course><roll>0.28</roll><pitch>-0.12</pitch><mode /></trkpt><trkpt lat="60.3698518" lon="25.2590565"><ele>24.22</ele><time>2016-05-22T15:25:22+03:00</time><course>45.69</course><roll>-0.1</roll><pitch>-0.02</pitch><mode /></trkpt><trkpt lat="60.369851" lon="25.2590577"><ele>24.43</ele><time>2016-05-22T15:25:23+03:00</time><course>46.32</course><roll>0.03</roll><pitch>0.04</pitch><mode /></trkpt><trkpt lat="60.3698501" lon="25.2590588"><ele>24.64</ele><time>2016-05-22T15:25:23+03:00</time><course>44.83</course><roll>0.3</roll><pitch>-0.05</pitch><mode /></trkpt><trkpt lat="60.3698488" lon="25.25906"><ele>24.73</ele><time>2016-05-22T15:25:23+03:00</time><course>42.72</course><roll>-1.04</roll><pitch>-0.02</pitch><mode /></trkpt><trkpt lat="60.3698478" lon="25.2590612"><ele>24.9</ele><time>2016-05-22T15:25:23+03:00</time><course>41.02</course><roll>-1.55</roll><pitch>-0.06</pitch><mode /></trkpt><trkpt lat="60.3698473" lon="25.2590621"><ele>25</ele><time>2016-05-22T15:25:23+03:00</time><course>39.98</course><roll>-4.97</roll><pitch>0.96</pitch><mode /></trkpt><trkpt lat="60.3698469" lon="25.2590632"><ele>25.09</ele><time>2016-05-22T15:25:24+03:00</time><course>39.65</course><roll>-5.3</roll><pitch>1.64</pitch><mode /></trkpt><trkpt lat="60.3698463" lon="25.2590648"><ele>25.15</ele><time>2016-05-22T15:25:24+03:00</time><course>39.47</course><roll>-4.93</roll><pitch>5.28</pitch><mode /></trkpt><trkpt lat="60.3698458" lon="25.2590671"><ele>25.21</ele><time>2016-05-22T15:25:24+03:00</time><course>40</course><roll>-2.43</roll><pitch>2.96</pitch><mode /></trkpt><trkpt lat="60.3698449" lon="25.25907"><ele>25.26</ele><time>2016-05-22T15:25:24+03:00</time><course>40.45</course><roll>-0.92</roll><pitch>2.1</pitch><mode /></trkpt><trkpt lat="60.3698446" lon="25.2590732"><ele>25.23</ele><time>2016-05-22T15:25:24+03:00</time><course>40.96</course><roll>-0.82</roll><pitch>2.68</pitch><mode /></trkpt><trkpt lat="60.3698443" lon="25.2590766"><ele>25.17</ele><time>2016-05-22T15:25:25+03:00</time><course>41.18</course><roll>-0.07</roll><pitch>0.27</pitch><mode /></trkpt><trkpt lat="60.3698437" lon="25.2590801"><ele>25.07</ele><time>2016-05-22T15:25:25+03:00</time><course>41.15</course><roll>0.29</roll><pitch>0.56</pitch><mode /></trkpt><trkpt lat="60.3698434" lon="25.2590835"><ele>24.92</ele><time>2016-05-22T15:25:25+03:00</time><course>40.87</course><roll>0.34</roll><pitch>0.71</pitch><mode /></trkpt><trkpt lat="60.3698431" lon="25.2590868"><ele>24.82</ele><time>2016-05-22T15:25:25+03:00</time><course>40.51</course><roll>0.14</roll><pitch>1.34</pitch><mode /></trkpt><trkpt lat="60.3698432" lon="25.2590939"><ele>24.76</ele><time>2016-05-22T15:25:26+03:00</time><course>40.4</course><roll>-1.16</roll><pitch>1.93</pitch><mode /></trkpt><trkpt lat="60.3698433" lon="25.2590973"><ele>24.68</ele><time>2016-05-22T15:25:26+03:00</time><course>40.36</course><roll>-1.17</roll><pitch>1.75</pitch><mode /></trkpt><trkpt lat="60.3698439" lon="25.2591045"><ele>24.74</ele><time>2016-05-22T15:25:26+03:00</time><course>44.15</course><roll>-0.26</roll><pitch>1.04</pitch><mode /></trkpt><trkpt lat="60.3698447" lon="25.2591084"><ele>24.81</ele><time>2016-05-22T15:25:26+03:00</time><course>53.89</course><roll>-0.08</roll><pitch>0.83</pitch><mode /></trkpt><trkpt lat="60.3698453" lon="25.2591125"><ele>24.82</ele><time>2016-05-22T15:25:27+03:00</time><course>58.64</course><roll>-0.35</roll><pitch>0.47</pitch><mode /></trkpt><trkpt lat="60.3698459" lon="25.2591164"><ele>24.81</ele><time>2016-05-22T15:25:27+03:00</time><course>59.75</course><roll>-0.42</roll><pitch>0.5</pitch><mode /></trkpt><trkpt lat="60.3698467" lon="25.2591208"><ele>24.82</ele><time>2016-05-22T15:25:27+03:00</time><course>60.02</course><roll>-1.43</roll><pitch>1.52</pitch><mode /></trkpt><trkpt lat="60.3698475" lon="25.2591256"><ele>24.92</ele><time>2016-05-22T15:25:27+03:00</time><course>59.15</course><roll>-1.75</roll><pitch>0.97</pitch><mode /></trkpt><trkpt lat="60.3698481" lon="25.2591302"><ele>24.99</ele><time>2016-05-22T15:25:27+03:00</time><course>57.95</course><roll>-3.77</roll><pitch>0.94</pitch><mode /></trkpt><trkpt lat="60.3698486" lon="25.259135"><ele>24.98</ele><time>2016-05-22T15:25:28+03:00</time><course>57.02</course><roll>-3.77</roll><pitch>1.52</pitch><mode /></trkpt><trkpt lat="60.3698492" lon="25.2591401"><ele>24.93</ele><time>2016-05-22T15:25:28+03:00</time><course>56.52</course><roll>-2.78</roll><pitch>1.22</pitch><mode /></trkpt><trkpt lat="60.3698497" lon="25.2591458"><ele>24.89</ele><time>2016-05-22T15:25:28+03:00</time><course>56.2</course><roll>-2.87</roll><pitch>1.18</pitch><mode /></trkpt><trkpt lat="60.36985" lon="25.2591515"><ele>24.76</ele><time>2016-05-22T15:25:28+03:00</time><course>56.12</course><roll>-2.86</roll><pitch>1.28</pitch><mode /></trkpt><trkpt lat="60.3698507" lon="25.2591575"><ele>24.73</ele><time>2016-05-22T15:25:28+03:00</time><course>56.2</course><roll>-3.08</roll><pitch>1.83</pitch><mode /></trkpt><trkpt lat="60.3698514" lon="25.259164"><ele>24.73</ele><time>2016-05-22T15:25:29+03:00</time><course>56.35</course><roll>-2.44</roll><pitch>1.21</pitch><mode /></trkpt><trkpt lat="60.3698518" lon="25.2591712"><ele>24.62</ele><time>2016-05-22T15:25:29+03:00</time><course>56.48</course><roll>-3.01</roll><pitch>1.06</pitch><mode /></trkpt><trkpt lat="60.3698523" lon="25.2591786"><ele>24.51</ele><time>2016-05-22T15:25:29+03:00</time><course>56.46</course><roll>-1.6</roll><pitch>0.19</pitch><mode /></trkpt><trkpt lat="60.369853" lon="25.2591862"><ele>24.41</ele><time>2016-05-22T15:25:29+03:00</time><course>56.37</course><roll>0.01</roll><pitch>-0.02</pitch><mode /></trkpt><trkpt lat="60.3698536" lon="25.2591937"><ele>24.28</ele><time>2016-05-22T15:25:29+03:00</time><course>56.31</course><roll>-0.1</roll><pitch>-0.08</pitch><mode /></trkpt><trkpt lat="60.3698538" lon="25.2592005"><ele>24.14</ele><time>2016-05-22T15:25:30+03:00</time><course>56.32</course><roll>-0.12</roll><pitch>-0.22</pitch><mode /></trkpt><trkpt lat="60.369854" lon="25.2592073"><ele>24</ele><time>2016-05-22T15:25:30+03:00</time><course>56.37</course><roll>-0.43</roll><pitch>-0.37</pitch><mode /></trkpt><trkpt lat="60.3698546" lon="25.2592147"><ele>23.93</ele><time>2016-05-22T15:25:30+03:00</time><course>56.47</course><roll>-0.09</roll><pitch>-0.04</pitch><mode /></trkpt><trkpt lat="60.369855" lon="25.2592214"><ele>23.75</ele><time>2016-05-22T15:25:30+03:00</time><course>56.62</course><roll>-0.27</roll><pitch>-0.52</pitch><mode /></trkpt><trkpt lat="60.3698559" lon="25.2592272"><ele>23.64</ele><time>2016-05-22T15:25:30+03:00</time><course>56.77</course><roll>0.22</roll><pitch>-0.61</pitch><mode /></trkpt><trkpt lat="60.3698569" lon="25.2592326"><ele>23.54</ele><time>2016-05-22T15:25:31+03:00</time><course>56.87</course><roll>-0.18</roll><pitch>-1.56</pitch><mode /></trkpt><trkpt lat="60.3698576" lon="25.2592377"><ele>23.47</ele><time>2016-05-22T15:25:31+03:00</time><course>56.93</course><roll>-0.31</roll><pitch>-0.36</pitch><mode /></trkpt><trkpt lat="60.3698585" lon="25.2592432"><ele>23.55</ele><time>2016-05-22T15:25:31+03:00</time><course>56.9</course><roll>-0.36</roll><pitch>-0.51</pitch><mode /></trkpt><trkpt lat="60.3698596" lon="25.2592492"><ele>23.65</ele><time>2016-05-22T15:25:31+03:00</time><course>56.8</course><roll>-0.46</roll><pitch>-0.39</pitch><mode /></trkpt><trkpt lat="60.3698607" lon="25.2592548"><ele>23.74</ele><time>2016-05-22T15:25:31+03:00</time><course>56.87</course><roll>-0.62</roll><pitch>-0.3</pitch><mode /></trkpt><trkpt lat="60.3698619" lon="25.2592591"><ele>23.88</ele><time>2016-05-22T15:25:32+03:00</time><course>56.9</course><roll>-0.31</roll><pitch>-1.63</pitch><mode /></trkpt><trkpt lat="60.3698631" lon="25.2592631"><ele>24.01</ele><time>2016-05-22T15:25:32+03:00</time><course>56.74</course><roll>1.03</roll><pitch>-4.65</pitch><mode /></trkpt><trkpt lat="60.3698642" lon="25.2592672"><ele>24.06</ele><time>2016-05-22T15:25:32+03:00</time><course>56.59</course><roll>1.2</roll><pitch>-5.11</pitch><mode /></trkpt><trkpt lat="60.3698652" lon="25.259271"><ele>24.17</ele><time>2016-05-22T15:25:32+03:00</time><course>56.64</course><roll>-0.3</roll><pitch>-2.79</pitch><mode /></trkpt><trkpt lat="60.3698662" lon="25.2592743"><ele>24.18</ele><time>2016-05-22T15:25:32+03:00</time><course>56.64</course><roll>-0.3</roll><pitch>-1.73</pitch><mode /></trkpt><trkpt lat="60.3698678" lon="25.2592774"><ele>24.25</ele><time>2016-05-22T15:25:33+03:00</time><course>56.59</course><roll>-0.05</roll><pitch>-1.55</pitch><mode /></trkpt><trkpt lat="60.369869" lon="25.2592801"><ele>24.21</ele><time>2016-05-22T15:25:33+03:00</time><course>56.47</course><roll>-0.17</roll><pitch>-1.56</pitch><mode /></trkpt><trkpt lat="60.3698701" lon="25.2592826"><ele>24.24</ele><time>2016-05-22T15:25:33+03:00</time><course>56.4</course><roll>-0.05</roll><pitch>-1.48</pitch><mode /></trkpt><trkpt lat="60.3698714" lon="25.2592845"><ele>24.21</ele><time>2016-05-22T15:25:33+03:00</time><course>56.34</course><roll>-0.06</roll><pitch>-1.82</pitch><mode /></trkpt><trkpt lat="60.3698726" lon="25.2592865"><ele>24.19</ele><time>2016-05-22T15:25:33+03:00</time><course>56.35</course><roll>-0.06</roll><pitch>-1.68</pitch><mode /></trkpt><trkpt lat="60.3698738" lon="25.2592885"><ele>24.26</ele><time>2016-05-22T15:25:34+03:00</time><course>56.33</course><roll>-0.1</roll><pitch>-1.58</pitch><mode /></trkpt><trkpt lat="60.3698749" lon="25.25929"><ele>24.35</ele><time>2016-05-22T15:25:34+03:00</time><course>56.33</course><roll>-0.15</roll><pitch>-0.86</pitch><mode /></trkpt><trkpt lat="60.3698761" lon="25.2592913"><ele>24.38</ele><time>2016-05-22T15:25:34+03:00</time><course>56.51</course><roll>-0.19</roll><pitch>-0.46</pitch><mode /></trkpt><trkpt lat="60.3698768" lon="25.2592924"><ele>24.51</ele><time>2016-05-22T15:25:34+03:00</time><course>56.74</course><roll>-0.34</roll><pitch>0.16</pitch><mode /></trkpt><trkpt lat="60.3698777" lon="25.2592932"><ele>24.61</ele><time>2016-05-22T15:25:34+03:00</time><course>56.9</course><roll>-0.35</roll><pitch>0.12</pitch><mode /></trkpt><trkpt lat="60.3698789" lon="25.2592941"><ele>24.66</ele><time>2016-05-22T15:25:35+03:00</time><course>57.05</course><roll>-0.2</roll><pitch>0.21</pitch><mode /></trkpt><trkpt lat="60.3698802" lon="25.2592951"><ele>24.67</ele><time>2016-05-22T15:25:35+03:00</time><course>57.17</course><roll>0.08</roll><pitch>-0.56</pitch><mode /></trkpt><trkpt lat="60.3698815" lon="25.2592961"><ele>24.68</ele><time>2016-05-22T15:25:35+03:00</time><course>57.28</course><roll>0.06</roll><pitch>-0.35</pitch><mode /></trkpt><trkpt lat="60.3698828" lon="25.259297"><ele>24.73</ele><time>2016-05-22T15:25:35+03:00</time><course>57.25</course><roll>0.04</roll><pitch>-0.09</pitch><mode /></trkpt><trkpt lat="60.3698843" lon="25.2592977"><ele>24.74</ele><time>2016-05-22T15:25:35+03:00</time><course>57.06</course><roll>-0.03</roll><pitch>0.17</pitch><mode /></trkpt><trkpt lat="60.3698856" lon="25.2592983"><ele>24.75</ele><time>2016-05-22T15:25:36+03:00</time><course>56.87</course><roll>0.01</roll><pitch>0.12</pitch><mode /></trkpt><trkpt lat="60.3698873" lon="25.2592987"><ele>24.71</ele><time>2016-05-22T15:25:36+03:00</time><course>56.63</course><roll>-0.14</roll><pitch>0.14</pitch><mode /></trkpt><trkpt lat="60.369889" lon="25.2592992"><ele>24.71</ele><time>2016-05-22T15:25:36+03:00</time><course>56.45</course><roll>-0.2</roll><pitch>-0.66</pitch><mode /></trkpt><trkpt lat="60.3698906" lon="25.2592997"><ele>24.67</ele><time>2016-05-22T15:25:36+03:00</time><course>56.43</course><roll>-0.07</roll><pitch>0.06</pitch><mode /></trkpt><trkpt lat="60.3698923" lon="25.2593"><ele>24.56</ele><time>2016-05-22T15:25:36+03:00</time><course>56.43</course><roll>-0.24</roll><pitch>0.11</pitch><mode /></trkpt><trkpt lat="60.369894" lon="25.2593004"><ele>24.48</ele><time>2016-05-22T15:25:37+03:00</time><course>56.45</course><roll>-0.07</roll><pitch>0.18</pitch><mode /></trkpt><trkpt lat="60.3698958" lon="25.2593012"><ele>24.41</ele><time>2016-05-22T15:25:37+03:00</time><course>56.47</course><roll>-0.55</roll><pitch>0.05</pitch><mode /></trkpt><trkpt lat="60.3698977" lon="25.2593017"><ele>24.34</ele><time>2016-05-22T15:25:37+03:00</time><course>56.53</course><roll>-2</roll><pitch>0.01</pitch><mode /></trkpt><trkpt lat="60.3698998" lon="25.259302"><ele>24.33</ele><time>2016-05-22T15:25:37+03:00</time><course>56.51</course><roll>-2.6</roll><pitch>-0.02</pitch><mode /></trkpt><trkpt lat="60.3699019" lon="25.2593024"><ele>24.36</ele><time>2016-05-22T15:25:37+03:00</time><course>56.47</course><roll>-2.65</roll><pitch>-0.17</pitch><mode /></trkpt><trkpt lat="60.3699039" lon="25.259303"><ele>24.45</ele><time>2016-05-22T15:25:38+03:00</time><course>56.5</course><roll>-2.27</roll><pitch>-0.28</pitch><mode /></trkpt><trkpt lat="60.369906" lon="25.259304"><ele>24.55</ele><time>2016-05-22T15:25:38+03:00</time><course>56.44</course><roll>-3.45</roll><pitch>-0.16</pitch><mode /></trkpt><trkpt lat="60.3699082" lon="25.2593054"><ele>24.71</ele><time>2016-05-22T15:25:38+03:00</time><course>56.44</course><roll>-5.77</roll><pitch>-0.17</pitch><mode /></trkpt><trkpt lat="60.3699101" lon="25.2593071"><ele>24.84</ele><time>2016-05-22T15:25:38+03:00</time><course>56.46</course><roll>-8.2</roll><pitch>-0.12</pitch><mode /></trkpt><trkpt lat="60.3699118" lon="25.2593094"><ele>24.97</ele><time>2016-05-22T15:25:38+03:00</time><course>56.57</course><roll>-5.29</roll><pitch>-0.17</pitch><mode /></trkpt><trkpt lat="60.3699135" lon="25.259312"><ele>25.07</ele><time>2016-05-22T15:25:39+03:00</time><course>56.46</course><roll>-1.21</roll><pitch>-0.21</pitch><mode /></trkpt><trkpt lat="60.3699148" lon="25.2593151"><ele>25.23</ele><time>2016-05-22T15:25:39+03:00</time><course>56.39</course><roll>-0.05</roll><pitch>-0.14</pitch><mode /></trkpt><trkpt lat="60.3699159" lon="25.2593176"><ele>25.32</ele><time>2016-05-22T15:25:39+03:00</time><course>56.56</course><roll>3.47</roll><pitch>-2.54</pitch><mode /></trkpt><trkpt lat="60.3699172" lon="25.2593199"><ele>25.38</ele><time>2016-05-22T15:25:39+03:00</time><course>56.6</course><roll>-0.48</roll><pitch>-0.28</pitch><mode /></trkpt><trkpt lat="60.3699187" lon="25.259322"><ele>25.46</ele><time>2016-05-22T15:25:39+03:00</time><course>56.77</course><roll>0.33</roll><pitch>0.11</pitch><mode /></trkpt><trkpt lat="60.36992" lon="25.2593238"><ele>25.49</ele><time>2016-05-22T15:25:40+03:00</time><course>56.76</course><roll>-0.19</roll><pitch>0</pitch><mode /></trkpt><trkpt lat="60.3699214" lon="25.2593257"><ele>25.46</ele><time>2016-05-22T15:25:40+03:00</time><course>56.74</course><roll>0.06</roll><pitch>0.15</pitch><mode /></trkpt><trkpt lat="60.3699231" lon="25.2593273"><ele>25.41</ele><time>2016-05-22T15:25:40+03:00</time><course>56.7</course><roll>-0.26</roll><pitch>0.07</pitch><mode /></trkpt><trkpt lat="60.3699249" lon="25.2593284"><ele>25.35</ele><time>2016-05-22T15:25:40+03:00</time><course>56.77</course><roll>-0.16</roll><pitch>0.07</pitch><mode /></trkpt><trkpt lat="60.3699266" lon="25.2593297"><ele>25.22</ele><time>2016-05-22T15:25:40+03:00</time><course>56.8</course><roll>-0.36</roll><pitch>0.03</pitch><mode /></trkpt><trkpt lat="60.3699284" lon="25.2593314"><ele>25.16</ele><time>2016-05-22T15:25:41+03:00</time><course>56.78</course><roll>-0.24</roll><pitch>0.04</pitch><mode /></trkpt><trkpt lat="60.3699299" lon="25.2593328"><ele>25.03</ele><time>2016-05-22T15:25:41+03:00</time><course>56.74</course><roll>-0.52</roll><pitch>-0.21</pitch><mode /></trkpt><trkpt lat="60.3699316" lon="25.259334"><ele>24.97</ele><time>2016-05-22T15:25:41+03:00</time><course>56.63</course><roll>-0.99</roll><pitch>-0.35</pitch><mode /></trkpt><trkpt lat="60.3699337" lon="25.2593355"><ele>24.97</ele><time>2016-05-22T15:25:41+03:00</time><course>56.45</course><roll>-2.44</roll><pitch>-0.35</pitch><mode /></trkpt><trkpt lat="60.3699358" lon="25.2593371"><ele>24.98</ele><time>2016-05-22T15:25:41+03:00</time><course>56.33</course><roll>-2.51</roll><pitch>-0.19</pitch><mode /></trkpt><trkpt lat="60.3699376" lon="25.259339"><ele>24.97</ele><time>2016-05-22T15:25:42+03:00</time><course>56.25</course><roll>-3.74</roll><pitch>-0.42</pitch><mode /></trkpt><trkpt lat="60.3699395" lon="25.2593412"><ele>25.07</ele><time>2016-05-22T15:25:42+03:00</time><course>56.2</course><roll>-2.68</roll><pitch>-0.25</pitch><mode /></trkpt><trkpt lat="60.3699413" lon="25.2593433"><ele>25.15</ele><time>2016-05-22T15:25:42+03:00</time><course>56.19</course><roll>-3.81</roll><pitch>-0.15</pitch><mode /></trkpt><trkpt lat="60.3699433" lon="25.2593452"><ele>25.26</ele><time>2016-05-22T15:25:42+03:00</time><course>56.22</course><roll>-3.75</roll><pitch>-1.26</pitch><mode /></trkpt><trkpt lat="60.3699452" lon="25.2593479"><ele>25.34</ele><time>2016-05-22T15:25:42+03:00</time><course>56.2</course><roll>-3.89</roll><pitch>-3.53</pitch><mode /></trkpt><trkpt lat="60.369947" lon="25.2593509"><ele>25.41</ele><time>2016-05-22T15:25:43+03:00</time><course>56.07</course><roll>-2.61</roll><pitch>-4.96</pitch><mode /></trkpt><trkpt lat="60.3699483" lon="25.2593536"><ele>25.47</ele><time>2016-05-22T15:25:43+03:00</time><course>56.01</course><roll>-0.75</roll><pitch>-7.85</pitch><mode /></trkpt><trkpt lat="60.3699494" lon="25.2593561"><ele>25.52</ele><time>2016-05-22T15:25:43+03:00</time><course>55.92</course><roll>-0.07</roll><pitch>-9.31</pitch><mode /></trkpt><trkpt lat="60.3699505" lon="25.2593583"><ele>25.59</ele><time>2016-05-22T15:25:43+03:00</time><course>55.79</course><roll>-0.14</roll><pitch>-9.3</pitch><mode /></trkpt><trkpt lat="60.3699512" lon="25.2593598"><ele>25.58</ele><time>2016-05-22T15:25:43+03:00</time><course>55.79</course><roll>-1.31</roll><pitch>-8.27</pitch><mode /></trkpt><trkpt lat="60.3699515" lon="25.2593606"><ele>25.53</ele><time>2016-05-22T15:25:44+03:00</time><course>56.02</course><roll>-1.46</roll><pitch>-8.09</pitch><mode /></trkpt><trkpt lat="60.3699512" lon="25.2593601"><ele>25.47</ele><time>2016-05-22T15:25:44+03:00</time><course>56.51</course><roll>-2.17</roll><pitch>-7.41</pitch><mode /></trkpt><trkpt lat="60.3699506" lon="25.2593594"><ele>25.42</ele><time>2016-05-22T15:25:44+03:00</time><course>56.73</course><roll>-2.76</roll><pitch>-7.05</pitch><mode /></trkpt><trkpt lat="60.3699494" lon="25.2593582"><ele>25.37</ele><time>2016-05-22T15:25:44+03:00</time><course>56.94</course><roll>-2.31</roll><pitch>-6.55</pitch><mode /></trkpt><trkpt lat="60.3699482" lon="25.2593565"><ele>25.31</ele><time>2016-05-22T15:25:45+03:00</time><course>56.9</course><roll>-1.68</roll><pitch>-6.55</pitch><mode /></trkpt><trkpt lat="60.3699467" lon="25.2593545"><ele>25.21</ele><time>2016-05-22T15:25:45+03:00</time><course>56.86</course><roll>-1.17</roll><pitch>-7.64</pitch><mode /></trkpt><trkpt lat="60.3699448" lon="25.2593522"><ele>25.12</ele><time>2016-05-22T15:25:45+03:00</time><course>56.93</course><roll>-1.34</roll><pitch>-7.67</pitch><mode /></trkpt><trkpt lat="60.3699428" lon="25.2593497"><ele>25.05</ele><time>2016-05-22T15:25:45+03:00</time><course>56.91</course><roll>0.2</roll><pitch>-6.04</pitch><mode /></trkpt><trkpt lat="60.3699409" lon="25.2593467"><ele>25.01</ele><time>2016-05-22T15:25:45+03:00</time><course>56.65</course><roll>-0.01</roll><pitch>-6.17</pitch><mode /></trkpt><trkpt lat="60.369939" lon="25.2593431"><ele>25.04</ele><time>2016-05-22T15:25:46+03:00</time><course>56.56</course><roll>-0.23</roll><pitch>-5.77</pitch><mode /></trkpt><trkpt lat="60.369937" lon="25.2593392"><ele>25.09</ele><time>2016-05-22T15:25:46+03:00</time><course>56.53</course><roll>-1.32</roll><pitch>-4.9</pitch><mode /></trkpt><trkpt lat="60.3699348" lon="25.2593352"><ele>25.04</ele><time>2016-05-22T15:25:46+03:00</time><course>56.82</course><roll>-1.1</roll><pitch>-5.03</pitch><mode /></trkpt><trkpt lat="60.3699326" lon="25.2593308"><ele>25.04</ele><time>2016-05-22T15:25:46+03:00</time><course>57.01</course><roll>-3.11</roll><pitch>-3.24</pitch><mode /></trkpt><trkpt lat="60.3699306" lon="25.259326"><ele>25.16</ele><time>2016-05-22T15:25:46+03:00</time><course>56.9</course><roll>-3.41</roll><pitch>-3.62</pitch><mode /></trkpt><trkpt lat="60.3699285" lon="25.2593214"><ele>25.28</ele><time>2016-05-22T15:25:47+03:00</time><course>56.71</course><roll>-4.02</roll><pitch>-3.93</pitch><mode /></trkpt><trkpt lat="60.3699266" lon="25.2593173"><ele>25.41</ele><time>2016-05-22T15:25:47+03:00</time><course>56.78</course><roll>-3.86</roll><pitch>-3.95</pitch><mode /></trkpt><trkpt lat="60.3699246" lon="25.2593133"><ele>25.45</ele><time>2016-05-22T15:25:47+03:00</time><course>56.89</course><roll>-3.97</roll><pitch>-3.76</pitch><mode /></trkpt><trkpt lat="60.3699228" lon="25.2593095"><ele>25.47</ele><time>2016-05-22T15:25:47+03:00</time><course>56.92</course><roll>-0.09</roll><pitch>-5.21</pitch><mode /></trkpt><trkpt lat="60.3699213" lon="25.259306"><ele>25.5</ele><time>2016-05-22T15:25:47+03:00</time><course>56.98</course><roll>-1.92</roll><pitch>-3.88</pitch><mode /></trkpt><trkpt lat="60.3699194" lon="25.2593025"><ele>25.43</ele><time>2016-05-22T15:25:48+03:00</time><course>57.13</course><roll>-3.17</roll><pitch>-3.62</pitch><mode /></trkpt><trkpt lat="60.3699176" lon="25.2592992"><ele>25.38</ele><time>2016-05-22T15:25:48+03:00</time><course>57.25</course><roll>-3.06</roll><pitch>-3.9</pitch><mode /></trkpt><trkpt lat="60.3699158" lon="25.2592961"><ele>25.37</ele><time>2016-05-22T15:25:48+03:00</time><course>57.17</course><roll>-2.83</roll><pitch>-4.43</pitch><mode /></trkpt><trkpt lat="60.3699138" lon="25.2592924"><ele>25.27</ele><time>2016-05-22T15:25:48+03:00</time><course>56.94</course><roll>-2.52</roll><pitch>-6.57</pitch><mode /></trkpt><trkpt lat="60.3699122" lon="25.2592885"><ele>25.26</ele><time>2016-05-22T15:25:48+03:00</time><course>56.72</course><roll>-2.4</roll><pitch>-5.33</pitch><mode /></trkpt><trkpt lat="60.3699106" lon="25.2592847"><ele>25.16</ele><time>2016-05-22T15:25:49+03:00</time><course>56.44</course><roll>-2.63</roll><pitch>-4.72</pitch><mode /></trkpt><trkpt lat="60.3699085" lon="25.2592806"><ele>25.08</ele><time>2016-05-22T15:25:49+03:00</time><course>56.14</course><roll>-2.49</roll><pitch>-3.25</pitch><mode /></trkpt><trkpt lat="60.3699065" lon="25.2592765"><ele>24.95</ele><time>2016-05-22T15:25:49+03:00</time><course>57.32</course><roll>-2.24</roll><pitch>-2.65</pitch><mode /></trkpt><trkpt lat="60.3699048" lon="25.2592726"><ele>24.86</ele><time>2016-05-22T15:25:49+03:00</time><course>60.88</course><roll>-1.64</roll><pitch>-2.63</pitch><mode /></trkpt><trkpt lat="60.369903" lon="25.2592687"><ele>24.71</ele><time>2016-05-22T15:25:49+03:00</time><course>65.62</course><roll>-3.99</roll><pitch>-1.03</pitch><mode /></trkpt><trkpt lat="60.3699012" lon="25.2592652"><ele>24.63</ele><time>2016-05-22T15:25:50+03:00</time><course>70.72</course><roll>-6.81</roll><pitch>-0.01</pitch><mode /></trkpt><trkpt lat="60.3698987" lon="25.259262"><ele>24.44</ele><time>2016-05-22T15:25:50+03:00</time><course>75.49</course><roll>-6.54</roll><pitch>-0.29</pitch><mode /></trkpt><trkpt lat="60.3698963" lon="25.2592594"><ele>24.27</ele><time>2016-05-22T15:25:50+03:00</time><course>79.84</course><roll>-6.12</roll><pitch>0.07</pitch><mode /></trkpt><trkpt lat="60.3698945" lon="25.2592575"><ele>24.09</ele><time>2016-05-22T15:25:50+03:00</time><course>83.83</course><roll>-5.45</roll><pitch>-0.47</pitch><mode /></trkpt><trkpt lat="60.3698927" lon="25.2592559"><ele>23.92</ele><time>2016-05-22T15:25:50+03:00</time><course>87.81</course><roll>-5.16</roll><pitch>-0.65</pitch><mode /></trkpt><trkpt lat="60.3698902" lon="25.2592552"><ele>23.68</ele><time>2016-05-22T15:25:51+03:00</time><course>91.57</course><roll>-5.76</roll><pitch>-0.48</pitch><mode /></trkpt><trkpt lat="60.3698875" lon="25.2592553"><ele>23.49</ele><time>2016-05-22T15:25:51+03:00</time><course>95.17</course><roll>-4.14</roll><pitch>-0.69</pitch><mode /></trkpt><trkpt lat="60.369882" lon="25.2592556"><ele>23.13</ele><time>2016-05-22T15:25:51+03:00</time><course>98.58</course><roll>-1.44</roll><pitch>-0.63</pitch><mode /></trkpt><trkpt lat="60.3698788" lon="25.2592562"><ele>22.88</ele><time>2016-05-22T15:25:51+03:00</time><course>99.17</course><roll>-2.37</roll><pitch>-0.73</pitch><mode /></trkpt><trkpt lat="60.3698757" lon="25.2592568"><ele>22.69</ele><time>2016-05-22T15:25:52+03:00</time><course>99.25</course><roll>-1.29</roll><pitch>-0.67</pitch><mode /></trkpt><trkpt lat="60.3698728" lon="25.2592574"><ele>22.55</ele><time>2016-05-22T15:25:52+03:00</time><course>99</course><roll>-0.12</roll><pitch>-0.79</pitch><mode /></trkpt><trkpt lat="60.36987" lon="25.2592584"><ele>22.4</ele><time>2016-05-22T15:25:52+03:00</time><course>98.67</course><roll>0.15</roll><pitch>-0.55</pitch><mode /></trkpt><trkpt lat="60.3698674" lon="25.2592596"><ele>22.3</ele><time>2016-05-22T15:25:52+03:00</time><course>98.28</course><roll>-0.38</roll><pitch>-1.06</pitch><mode /></trkpt><trkpt lat="60.369865" lon="25.2592605"><ele>22.26</ele><time>2016-05-22T15:25:52+03:00</time><course>97.99</course><roll>0.23</roll><pitch>-0.53</pitch><mode /></trkpt><trkpt lat="60.3698627" lon="25.2592619"><ele>22.21</ele><time>2016-05-22T15:25:53+03:00</time><course>97.68</course><roll>-0.26</roll><pitch>-0.79</pitch><mode /></trkpt><trkpt lat="60.3698609" lon="25.2592643"><ele>22.3</ele><time>2016-05-22T15:25:53+03:00</time><course>97.62</course><roll>-0.89</roll><pitch>-0.41</pitch><mode /></trkpt><trkpt lat="60.3698596" lon="25.2592665"><ele>22.39</ele><time>2016-05-22T15:25:53+03:00</time><course>97.78</course><roll>-0.24</roll><pitch>-0.58</pitch><mode /></trkpt><trkpt lat="60.3698584" lon="25.2592686"><ele>22.46</ele><time>2016-05-22T15:25:53+03:00</time><course>98.08</course><roll>-0.36</roll><pitch>-0.55</pitch><mode /></trkpt><trkpt lat="60.3698574" lon="25.259271"><ele>22.51</ele><time>2016-05-22T15:25:53+03:00</time><course>98.35</course><roll>-0.33</roll><pitch>-0.06</pitch><mode /></trkpt><trkpt lat="60.3698563" lon="25.2592732"><ele>22.51</ele><time>2016-05-22T15:25:54+03:00</time><course>98.52</course><roll>0.58</roll><pitch>-0.4</pitch><mode /></trkpt><trkpt lat="60.3698552" lon="25.2592755"><ele>22.49</ele><time>2016-05-22T15:25:54+03:00</time><course>98.52</course><roll>-0.1</roll><pitch>-0.08</pitch><mode /></trkpt><trkpt lat="60.3698542" lon="25.2592781"><ele>22.42</ele><time>2016-05-22T15:25:54+03:00</time><course>98.34</course><roll>0.01</roll><pitch>-0.81</pitch><mode /></trkpt><trkpt lat="60.3698534" lon="25.2592807"><ele>22.34</ele><time>2016-05-22T15:25:54+03:00</time><course>98.01</course><roll>-0.81</roll><pitch>-4.75</pitch><mode /></trkpt><trkpt lat="60.3698528" lon="25.2592832"><ele>22.31</ele><time>2016-05-22T15:25:54+03:00</time><course>97.67</course><roll>-0.52</roll><pitch>-3.68</pitch><mode /></trkpt><trkpt lat="60.3698521" lon="25.2592856"><ele>22.23</ele><time>2016-05-22T15:25:55+03:00</time><course>97.37</course><roll>0.03</roll><pitch>-3.96</pitch><mode /></trkpt><trkpt lat="60.3698511" lon="25.2592875"><ele>22.11</ele><time>2016-05-22T15:25:55+03:00</time><course>97.45</course><roll>0.1</roll><pitch>-5.6</pitch><mode /></trkpt><trkpt lat="60.3698507" lon="25.2592891"><ele>22.09</ele><time>2016-05-22T15:25:55+03:00</time><course>97.71</course><roll>0.24</roll><pitch>-7.2</pitch><mode /></trkpt><trkpt lat="60.3698504" lon="25.2592905"><ele>22.07</ele><time>2016-05-22T15:25:55+03:00</time><course>97.91</course><roll>0.9</roll><pitch>-6.99</pitch><mode /></trkpt><trkpt lat="60.36985" lon="25.2592912"><ele>22</ele><time>2016-05-22T15:25:55+03:00</time><course>98.2</course><roll>-0.25</roll><pitch>-4.85</pitch><mode /></trkpt><trkpt lat="60.3698496" lon="25.2592914"><ele>21.97</ele><time>2016-05-22T15:25:56+03:00</time><course>98.38</course><roll>-0.18</roll><pitch>-2.41</pitch><mode /></trkpt><trkpt lat="60.3698492" lon="25.2592915"><ele>21.99</ele><time>2016-05-22T15:25:56+03:00</time><course>98.41</course><roll>-0.39</roll><pitch>-0.33</pitch><mode /></trkpt><trkpt lat="60.3698489" lon="25.2592916"><ele>22.06</ele><time>2016-05-22T15:25:56+03:00</time><course>98.4</course><roll>0.19</roll><pitch>-0.13</pitch><mode /></trkpt><trkpt lat="60.369849" lon="25.2592936"><ele>22.45</ele><time>2016-05-22T15:25:57+03:00</time><course>98.65</course><roll>-0.71</roll><pitch>-0.13</pitch><mode /></trkpt><trkpt lat="60.3698491" lon="25.2592945"><ele>22.5</ele><time>2016-05-22T15:25:57+03:00</time><course>98.44</course><roll>-0.58</roll><pitch>-0.44</pitch><mode /></trkpt><trkpt lat="60.3698495" lon="25.2592958"><ele>22.56</ele><time>2016-05-22T15:25:57+03:00</time><course>98.24</course><roll>-0.29</roll><pitch>0.02</pitch><mode /></trkpt><trkpt lat="60.3698498" lon="25.2592973"><ele>22.55</ele><time>2016-05-22T15:25:57+03:00</time><course>98.14</course><roll>-0.21</roll><pitch>0.13</pitch><mode /></trkpt><trkpt lat="60.3698503" lon="25.2592991"><ele>22.52</ele><time>2016-05-22T15:25:57+03:00</time><course>98.17</course><roll>-0.38</roll><pitch>-0.1</pitch><mode /></trkpt><trkpt lat="60.369851" lon="25.2593013"><ele>22.45</ele><time>2016-05-22T15:25:58+03:00</time><course>98.32</course><roll>-0.29</roll><pitch>-0.02</pitch><mode /></trkpt><trkpt lat="60.3698516" lon="25.2593036"><ele>22.36</ele><time>2016-05-22T15:25:58+03:00</time><course>98.52</course><roll>-0.03</roll><pitch>0</pitch><mode /></trkpt><trkpt lat="60.3698519" lon="25.2593067"><ele>22.2</ele><time>2016-05-22T15:25:58+03:00</time><course>98.54</course><roll>-0.06</roll><pitch>0.31</pitch><mode /></trkpt><trkpt lat="60.3698526" lon="25.2593101"><ele>21.97</ele><time>2016-05-22T15:25:58+03:00</time><course>98.3</course><roll>-0.14</roll><pitch>0.55</pitch><mode /></trkpt><trkpt lat="60.3698535" lon="25.2593134"><ele>21.74</ele><time>2016-05-22T15:25:58+03:00</time><course>98.1</course><roll>0.15</roll><pitch>0.04</pitch><mode /></trkpt><trkpt lat="60.369854" lon="25.2593166"><ele>21.57</ele><time>2016-05-22T15:25:59+03:00</time><course>97.86</course><roll>-0.21</roll><pitch>-0.04</pitch><mode /></trkpt><trkpt lat="60.369855" lon="25.2593198"><ele>21.39</ele><time>2016-05-22T15:25:59+03:00</time><course>97.63</course><roll>0.07</roll><pitch>-0.38</pitch><mode /></trkpt><trkpt lat="60.3698563" lon="25.2593238"><ele>21.26</ele><time>2016-05-22T15:25:59+03:00</time><course>97.09</course><roll>1.23</roll><pitch>-1.21</pitch><mode /></trkpt><trkpt lat="60.3698577" lon="25.2593282"><ele>21.31</ele><time>2016-05-22T15:25:59+03:00</time><course>97.18</course><roll>0.21</roll><pitch>-4.98</pitch><mode /></trkpt><trkpt lat="60.3698593" lon="25.2593326"><ele>21.34</ele><time>2016-05-22T15:25:59+03:00</time><course>97.71</course><roll>-0.52</roll><pitch>-4.54</pitch><mode /></trkpt><trkpt lat="60.3698613" lon="25.2593368"><ele>21.43</ele><time>2016-05-22T15:26:00+03:00</time><course>98.16</course><roll>-2.71</roll><pitch>-4.75</pitch><mode /></trkpt><trkpt lat="60.3698626" lon="25.2593406"><ele>21.44</ele><time>2016-05-22T15:26:00+03:00</time><course>98.26</course><roll>-2.77</roll><pitch>-7.14</pitch><mode /></trkpt><trkpt lat="60.3698639" lon="25.2593439"><ele>21.52</ele><time>2016-05-22T15:26:00+03:00</time><course>98.19</course><roll>-2.98</roll><pitch>-7.35</pitch><mode /></trkpt><trkpt lat="60.3698652" lon="25.2593466"><ele>21.52</ele><time>2016-05-22T15:26:00+03:00</time><course>98.25</course><roll>-2.32</roll><pitch>-6.96</pitch><mode /></trkpt><trkpt lat="60.3698664" lon="25.2593492"><ele>21.47</ele><time>2016-05-22T15:26:00+03:00</time><course>98.55</course><roll>-2.75</roll><pitch>-7.36</pitch><mode /></trkpt><trkpt lat="60.3698674" lon="25.2593515"><ele>21.31</ele><time>2016-05-22T15:26:01+03:00</time><course>98.72</course><roll>-5.89</roll><pitch>-5.08</pitch><mode /></trkpt><trkpt lat="60.3698683" lon="25.2593532"><ele>21.12</ele><time>2016-05-22T15:26:01+03:00</time><course>99.05</course><roll>-4.32</roll><pitch>-5.43</pitch><mode /></trkpt><trkpt lat="60.3698689" lon="25.2593545"><ele>20.9</ele><time>2016-05-22T15:26:01+03:00</time><course>99.32</course><roll>-3.71</roll><pitch>-6.52</pitch><mode /></trkpt><trkpt lat="60.3698697" lon="25.2593551"><ele>20.79</ele><time>2016-05-22T15:26:01+03:00</time><course>99.33</course><roll>-3.2</roll><pitch>-8.96</pitch><mode /></trkpt><trkpt lat="60.3698706" lon="25.2593552"><ele>20.67</ele><time>2016-05-22T15:26:01+03:00</time><course>99.36</course><roll>-3.54</roll><pitch>-9.43</pitch><mode /></trkpt><trkpt lat="60.3698709" lon="25.2593545"><ele>20.29</ele><time>2016-05-22T15:26:02+03:00</time><course>99.13</course><roll>-5.38</roll><pitch>-9.06</pitch><mode /></trkpt><trkpt lat="60.3698712" lon="25.2593532"><ele>20.21</ele><time>2016-05-22T15:26:02+03:00</time><course>98.84</course><roll>-4.91</roll><pitch>-7.74</pitch><mode /></trkpt><trkpt lat="60.3698708" lon="25.2593453"><ele>20.24</ele><time>2016-05-22T15:26:03+03:00</time><course>98.29</course><roll>-5.39</roll><pitch>-10.2</pitch><mode /></trkpt><trkpt lat="60.36987" lon="25.2593416"><ele>20.31</ele><time>2016-05-22T15:26:03+03:00</time><course>97.96</course><roll>-4.01</roll><pitch>-7.96</pitch><mode /></trkpt><trkpt lat="60.3698689" lon="25.2593375"><ele>20.35</ele><time>2016-05-22T15:26:03+03:00</time><course>97.52</course><roll>-0.83</roll><pitch>-3.49</pitch><mode /></trkpt><trkpt lat="60.3698678" lon="25.259333"><ele>20.37</ele><time>2016-05-22T15:26:03+03:00</time><course>97.13</course><roll>-0.17</roll><pitch>-1.34</pitch><mode /></trkpt><trkpt lat="60.3698665" lon="25.2593283"><ele>20.36</ele><time>2016-05-22T15:26:03+03:00</time><course>96.58</course><roll>-0.32</roll><pitch>-1.21</pitch><mode /></trkpt><trkpt lat="60.3698655" lon="25.259324"><ele>20.39</ele><time>2016-05-22T15:26:04+03:00</time><course>96.52</course><roll>-0.21</roll><pitch>-1.45</pitch><mode /></trkpt><trkpt lat="60.3698648" lon="25.2593201"><ele>20.45</ele><time>2016-05-22T15:26:04+03:00</time><course>96.56</course><roll>-0.75</roll><pitch>-1.83</pitch><mode /></trkpt><trkpt lat="60.3698641" lon="25.2593161"><ele>20.47</ele><time>2016-05-22T15:26:04+03:00</time><course>96.95</course><roll>-0.22</roll><pitch>-1.96</pitch><mode /></trkpt><trkpt lat="60.3698634" lon="25.2593123"><ele>20.46</ele><time>2016-05-22T15:26:04+03:00</time><course>97.5</course><roll>-0.17</roll><pitch>-2.01</pitch><mode /></trkpt><trkpt lat="60.3698632" lon="25.2593091"><ele>20.51</ele><time>2016-05-22T15:26:04+03:00</time><course>97.96</course><roll>-0.22</roll><pitch>-2.17</pitch><mode /></trkpt><trkpt lat="60.3698635" lon="25.2593066"><ele>20.59</ele><time>2016-05-22T15:26:05+03:00</time><course>98.16</course><roll>-2.6</roll><pitch>-1.75</pitch><mode /></trkpt><trkpt lat="60.3698637" lon="25.2593044"><ele>20.65</ele><time>2016-05-22T15:26:05+03:00</time><course>98.36</course><roll>-2.11</roll><pitch>-1.95</pitch><mode /></trkpt><trkpt lat="60.3698638" lon="25.2593017"><ele>20.67</ele><time>2016-05-22T15:26:05+03:00</time><course>98.53</course><roll>-2.01</roll><pitch>-1.81</pitch><mode /></trkpt><trkpt lat="60.3698637" lon="25.259291"><ele>20.79</ele><time>2016-05-22T15:26:06+03:00</time><course>97.93</course><roll>-2.04</roll><pitch>-1.1</pitch><mode /></trkpt><trkpt lat="60.3698638" lon="25.2592898"><ele>20.79</ele><time>2016-05-22T15:26:06+03:00</time><course>98.01</course><roll>-1.71</roll><pitch>-1.59</pitch><mode /></trkpt><trkpt lat="60.3698639" lon="25.2592889"><ele>20.79</ele><time>2016-05-22T15:26:06+03:00</time><course>98.19</course><roll>-2.18</roll><pitch>-1.94</pitch><mode /></trkpt><trkpt lat="60.3698638" lon="25.2592884"><ele>20.83</ele><time>2016-05-22T15:26:07+03:00</time><course>98.44</course><roll>-0.95</roll><pitch>-3.27</pitch><mode /></trkpt><trkpt lat="60.3698637" lon="25.2592879"><ele>20.89</ele><time>2016-05-22T15:26:07+03:00</time><course>98.76</course><roll>-1.52</roll><pitch>-3.72</pitch><mode /></trkpt><trkpt lat="60.3698636" lon="25.2592873"><ele>21</ele><time>2016-05-22T15:26:07+03:00</time><course>99.02</course><roll>-0.65</roll><pitch>-3.5</pitch><mode /></trkpt><trkpt lat="60.3698637" lon="25.2592853"><ele>21.46</ele><time>2016-05-22T15:26:08+03:00</time><course>98.54</course><roll>-1.14</roll><pitch>-2.67</pitch><mode /></trkpt><trkpt lat="60.3698639" lon="25.2592856"><ele>21.6</ele><time>2016-05-22T15:26:08+03:00</time><course>98.37</course><roll>-0.62</roll><pitch>-2.55</pitch><mode /></trkpt><trkpt lat="60.369864" lon="25.2592859"><ele>21.73</ele><time>2016-05-22T15:26:08+03:00</time><course>98.3</course><roll>-0.73</roll><pitch>-1.93</pitch><mode /></trkpt><trkpt lat="60.3698642" lon="25.259286"><ele>21.93</ele><time>2016-05-22T15:26:08+03:00</time><course>98.33</course><roll>-0.53</roll><pitch>-1.72</pitch><mode /></trkpt><trkpt lat="60.3698645" lon="25.2592861"><ele>22.09</ele><time>2016-05-22T15:26:08+03:00</time><course>98.52</course><roll>-0.97</roll><pitch>-1.91</pitch><mode /></trkpt><trkpt lat="60.3698646" lon="25.2592865"><ele>22.23</ele><time>2016-05-22T15:26:09+03:00</time><course>98.83</course><roll>-2.49</roll><pitch>-2.32</pitch><mode /></trkpt><trkpt lat="60.3698648" lon="25.259287"><ele>22.4</ele><time>2016-05-22T15:26:09+03:00</time><course>98.88</course><roll>-5.25</roll><pitch>-3.2</pitch><mode /></trkpt><trkpt lat="60.369865" lon="25.2592875"><ele>22.48</ele><time>2016-05-22T15:26:09+03:00</time><course>98.85</course><roll>-4.3</roll><pitch>-3.17</pitch><mode /></trkpt><trkpt lat="60.3698651" lon="25.2592882"><ele>22.58</ele><time>2016-05-22T15:26:09+03:00</time><course>98.8</course><roll>-3.22</roll><pitch>-2.56</pitch><mode /></trkpt><trkpt lat="60.3698653" lon="25.2592901"><ele>22.69</ele><time>2016-05-22T15:26:10+03:00</time><course>98.54</course><roll>-1.63</roll><pitch>-1.62</pitch><mode /></trkpt><trkpt lat="60.3698652" lon="25.2592909"><ele>22.74</ele><time>2016-05-22T15:26:10+03:00</time><course>98.45</course><roll>-1.25</roll><pitch>-4.77</pitch><mode /></trkpt><trkpt lat="60.369865" lon="25.2592918"><ele>22.83</ele><time>2016-05-22T15:26:10+03:00</time><course>98.42</course><roll>-1.16</roll><pitch>-5.46</pitch><mode /></trkpt><trkpt lat="60.3698649" lon="25.2592942"><ele>22.93</ele><time>2016-05-22T15:26:11+03:00</time><course>98.61</course><roll>-0.58</roll><pitch>-2.15</pitch><mode /></trkpt><trkpt lat="60.369865" lon="25.2592953"><ele>22.96</ele><time>2016-05-22T15:26:11+03:00</time><course>98.4</course><roll>-0.04</roll><pitch>-0.3</pitch><mode /></trkpt><trkpt lat="60.3698653" lon="25.2592962"><ele>22.97</ele><time>2016-05-22T15:26:11+03:00</time><course>98.15</course><roll>0</roll><pitch>-0.31</pitch><mode /></trkpt><trkpt lat="60.3698656" lon="25.2592972"><ele>22.95</ele><time>2016-05-22T15:26:11+03:00</time><course>97.78</course><roll>-0.02</roll><pitch>-0.24</pitch><mode /></trkpt><trkpt lat="60.3698661" lon="25.2592983"><ele>22.96</ele><time>2016-05-22T15:26:12+03:00</time><course>97.51</course><roll>-0.02</roll><pitch>-0.23</pitch><mode /></trkpt><trkpt lat="60.3698665" lon="25.2592999"><ele>22.97</ele><time>2016-05-22T15:26:12+03:00</time><course>97.25</course><roll>-0.25</roll><pitch>-2.73</pitch><mode /></trkpt><trkpt lat="60.3698673" lon="25.2593017"><ele>22.97</ele><time>2016-05-22T15:26:12+03:00</time><course>97.23</course><roll>-0.27</roll><pitch>-0.36</pitch><mode /></trkpt><trkpt lat="60.3698679" lon="25.2593036"><ele>22.94</ele><time>2016-05-22T15:26:12+03:00</time><course>97.49</course><roll>-0.3</roll><pitch>-1.11</pitch><mode /></trkpt><trkpt lat="60.3698687" lon="25.2593058"><ele>22.9</ele><time>2016-05-22T15:26:12+03:00</time><course>97.97</course><roll>-0.69</roll><pitch>-2.28</pitch><mode /></trkpt><trkpt lat="60.3698697" lon="25.2593083"><ele>22.87</ele><time>2016-05-22T15:26:13+03:00</time><course>98.69</course><roll>-4.59</roll><pitch>-2.82</pitch><mode /></trkpt><trkpt lat="60.3698704" lon="25.2593109"><ele>22.85</ele><time>2016-05-22T15:26:13+03:00</time><course>99.13</course><roll>-5.24</roll><pitch>-2.24</pitch><mode /></trkpt><trkpt lat="60.369871" lon="25.2593136"><ele>22.81</ele><time>2016-05-22T15:26:13+03:00</time><course>99.19</course><roll>-4.62</roll><pitch>-0.61</pitch><mode /></trkpt><trkpt lat="60.3698713" lon="25.259316"><ele>22.79</ele><time>2016-05-22T15:26:13+03:00</time><course>99.01</course><roll>-1.15</roll><pitch>-1.27</pitch><mode /></trkpt><trkpt lat="60.3698716" lon="25.2593185"><ele>22.79</ele><time>2016-05-22T15:26:13+03:00</time><course>98.67</course><roll>0.04</roll><pitch>-0.23</pitch><mode /></trkpt><trkpt lat="60.369872" lon="25.2593212"><ele>22.83</ele><time>2016-05-22T15:26:14+03:00</time><course>98.52</course><roll>0.12</roll><pitch>-0.17</pitch><mode /></trkpt><trkpt lat="60.3698722" lon="25.2593247"><ele>22.84</ele><time>2016-05-22T15:26:14+03:00</time><course>98.5</course><roll>0.15</roll><pitch>-0.18</pitch><mode /></trkpt><trkpt lat="60.3698723" lon="25.2593283"><ele>22.77</ele><time>2016-05-22T15:26:14+03:00</time><course>98.45</course><roll>-0.13</roll><pitch>-0.28</pitch><mode /></trkpt><trkpt lat="60.3698725" lon="25.2593319"><ele>22.68</ele><time>2016-05-22T15:26:14+03:00</time><course>98.43</course><roll>-0.27</roll><pitch>-0.34</pitch><mode /></trkpt><trkpt lat="60.3698731" lon="25.2593357"><ele>22.64</ele><time>2016-05-22T15:26:14+03:00</time><course>98.32</course><roll>-0.07</roll><pitch>-0.39</pitch><mode /></trkpt><trkpt lat="60.3698735" lon="25.2593394"><ele>22.53</ele><time>2016-05-22T15:26:15+03:00</time><course>98.22</course><roll>-0.06</roll><pitch>-3.77</pitch><mode /></trkpt><trkpt lat="60.369874" lon="25.259343"><ele>22.47</ele><time>2016-05-22T15:26:15+03:00</time><course>98.15</course><roll>-0.16</roll><pitch>-3.67</pitch><mode /></trkpt><trkpt lat="60.3698744" lon="25.2593467"><ele>22.39</ele><time>2016-05-22T15:26:15+03:00</time><course>98.08</course><roll>-0.12</roll><pitch>-3.03</pitch><mode /></trkpt><trkpt lat="60.3698751" lon="25.2593502"><ele>22.38</ele><time>2016-05-22T15:26:15+03:00</time><course>97.95</course><roll>-0.08</roll><pitch>-2.91</pitch><mode /></trkpt><trkpt lat="60.3698759" lon="25.2593537"><ele>22.37</ele><time>2016-05-22T15:26:15+03:00</time><course>97.79</course><roll>-0.18</roll><pitch>-2.96</pitch><mode /></trkpt><trkpt lat="60.3698766" lon="25.2593572"><ele>22.34</ele><time>2016-05-22T15:26:16+03:00</time><course>97.67</course><roll>-1.14</roll><pitch>-3.04</pitch><mode /></trkpt><trkpt lat="60.3698774" lon="25.2593606"><ele>22.29</ele><time>2016-05-22T15:26:16+03:00</time><course>97.68</course><roll>-4.91</roll><pitch>-7.07</pitch><mode /></trkpt><trkpt lat="60.3698782" lon="25.2593637"><ele>22.28</ele><time>2016-05-22T15:26:16+03:00</time><course>97.8</course><roll>-6.34</roll><pitch>-10.49</pitch><mode /></trkpt><trkpt lat="60.3698785" lon="25.2593659"><ele>22.21</ele><time>2016-05-22T15:26:16+03:00</time><course>97.7</course><roll>-7.4</roll><pitch>-11.42</pitch><mode /></trkpt><trkpt lat="60.3698787" lon="25.2593672"><ele>22.19</ele><time>2016-05-22T15:26:16+03:00</time><course>97.57</course><roll>-6.49</roll><pitch>-10.64</pitch><mode /></trkpt><trkpt lat="60.3698784" lon="25.2593675"><ele>22.05</ele><time>2016-05-22T15:26:17+03:00</time><course>97.75</course><roll>-7.03</roll><pitch>-10.34</pitch><mode /></trkpt><trkpt lat="60.3698778" lon="25.2593672"><ele>21.97</ele><time>2016-05-22T15:26:17+03:00</time><course>98.13</course><roll>-6.39</roll><pitch>-10.13</pitch><mode /></trkpt><trkpt lat="60.3698771" lon="25.2593662"><ele>21.94</ele><time>2016-05-22T15:26:17+03:00</time><course>98.36</course><roll>-4.86</roll><pitch>-10.07</pitch><mode /></trkpt><trkpt lat="60.3698761" lon="25.2593641"><ele>21.94</ele><time>2016-05-22T15:26:17+03:00</time><course>98.42</course><roll>-0.91</roll><pitch>-10.95</pitch><mode /></trkpt><trkpt lat="60.3698746" lon="25.2593607"><ele>21.87</ele><time>2016-05-22T15:26:17+03:00</time><course>98.41</course><roll>0.41</roll><pitch>-11.2</pitch><mode /></trkpt><trkpt lat="60.369873" lon="25.2593565"><ele>21.76</ele><time>2016-05-22T15:26:18+03:00</time><course>98.23</course><roll>-0.09</roll><pitch>-9.88</pitch><mode /></trkpt><trkpt lat="60.3698716" lon="25.2593514"><ele>21.67</ele><time>2016-05-22T15:26:18+03:00</time><course>97.83</course><roll>-0.33</roll><pitch>-7.97</pitch><mode /></trkpt><trkpt lat="60.36987" lon="25.2593454"><ele>21.62</ele><time>2016-05-22T15:26:18+03:00</time><course>97.58</course><roll>-0.72</roll><pitch>-5.74</pitch><mode /></trkpt><trkpt lat="60.3698686" lon="25.2593394"><ele>21.62</ele><time>2016-05-22T15:26:18+03:00</time><course>97.33</course><roll>0</roll><pitch>-2.54</pitch><mode /></trkpt><trkpt lat="60.3698672" lon="25.2593333"><ele>21.58</ele><time>2016-05-22T15:26:18+03:00</time><course>97.11</course><roll>-0.63</roll><pitch>-2.2</pitch><mode /></trkpt><trkpt lat="60.3698662" lon="25.2593269"><ele>21.66</ele><time>2016-05-22T15:26:19+03:00</time><course>96.93</course><roll>-0.84</roll><pitch>-2.96</pitch><mode /></trkpt><trkpt lat="60.3698651" lon="25.2593204"><ele>21.7</ele><time>2016-05-22T15:26:19+03:00</time><course>96.89</course><roll>-0.78</roll><pitch>-3.16</pitch><mode /></trkpt><trkpt lat="60.3698642" lon="25.2593144"><ele>21.75</ele><time>2016-05-22T15:26:19+03:00</time><course>97</course><roll>-0.75</roll><pitch>-2.74</pitch><mode /></trkpt><trkpt lat="60.3698633" lon="25.2593087"><ele>21.77</ele><time>2016-05-22T15:26:19+03:00</time><course>97.09</course><roll>-0.83</roll><pitch>-2.16</pitch><mode /></trkpt><trkpt lat="60.3698625" lon="25.2593033"><ele>21.86</ele><time>2016-05-22T15:26:19+03:00</time><course>97.12</course><roll>-1.92</roll><pitch>-0.63</pitch><mode /></trkpt><trkpt lat="60.3698615" lon="25.2592979"><ele>21.9</ele><time>2016-05-22T15:26:20+03:00</time><course>97.24</course><roll>-1.5</roll><pitch>-0.49</pitch><mode /></trkpt><trkpt lat="60.3698602" lon="25.2592929"><ele>21.91</ele><time>2016-05-22T15:26:20+03:00</time><course>97.46</course><roll>-2.2</roll><pitch>-0.34</pitch><mode /></trkpt><trkpt lat="60.3698589" lon="25.2592882"><ele>21.97</ele><time>2016-05-22T15:26:20+03:00</time><course>97.77</course><roll>-1.22</roll><pitch>-0.32</pitch><mode /></trkpt><trkpt lat="60.3698574" lon="25.2592838"><ele>22.06</ele><time>2016-05-22T15:26:20+03:00</time><course>98.09</course><roll>-0.52</roll><pitch>-0.34</pitch><mode /></trkpt><trkpt lat="60.3698556" lon="25.2592795"><ele>22.1</ele><time>2016-05-22T15:26:20+03:00</time><course>98.27</course><roll>-0.01</roll><pitch>-0.4</pitch><mode /></trkpt><trkpt lat="60.3698537" lon="25.2592757"><ele>22.12</ele><time>2016-05-22T15:26:21+03:00</time><course>98.36</course><roll>-0.04</roll><pitch>-0.51</pitch><mode /></trkpt><trkpt lat="60.369852" lon="25.2592724"><ele>22.14</ele><time>2016-05-22T15:26:21+03:00</time><course>98.45</course><roll>0.05</roll><pitch>-0.38</pitch><mode /></trkpt><trkpt lat="60.3698506" lon="25.2592692"><ele>22.16</ele><time>2016-05-22T15:26:21+03:00</time><course>98.57</course><roll>-0.23</roll><pitch>-0.66</pitch><mode /></trkpt><trkpt lat="60.3698489" lon="25.2592666"><ele>22.18</ele><time>2016-05-22T15:26:21+03:00</time><course>98.72</course><roll>0.07</roll><pitch>-1.22</pitch><mode /></trkpt><trkpt lat="60.3698474" lon="25.2592645"><ele>22.19</ele><time>2016-05-22T15:26:21+03:00</time><course>98.83</course><roll>0.13</roll><pitch>-1.15</pitch><mode /></trkpt><trkpt lat="60.3698459" lon="25.2592628"><ele>22.22</ele><time>2016-05-22T15:26:22+03:00</time><course>98.89</course><roll>-0.44</roll><pitch>-1.65</pitch><mode /></trkpt><trkpt lat="60.3698449" lon="25.2592613"><ele>22.3</ele><time>2016-05-22T15:26:22+03:00</time><course>98.7</course><roll>-0.15</roll><pitch>-0.73</pitch><mode /></trkpt><trkpt lat="60.369844" lon="25.2592599"><ele>22.34</ele><time>2016-05-22T15:26:22+03:00</time><course>98.47</course><roll>0.15</roll><pitch>-0.34</pitch><mode /></trkpt><trkpt lat="60.3698429" lon="25.2592591"><ele>22.35</ele><time>2016-05-22T15:26:22+03:00</time><course>98.42</course><roll>0.02</roll><pitch>-0.4</pitch><mode /></trkpt><trkpt lat="60.369842" lon="25.2592585"><ele>22.33</ele><time>2016-05-22T15:26:22+03:00</time><course>98.36</course><roll>-0.22</roll><pitch>-0.48</pitch><mode /></trkpt><trkpt lat="60.3698411" lon="25.2592583"><ele>22.33</ele><time>2016-05-22T15:26:23+03:00</time><course>98.16</course><roll>-0.59</roll><pitch>-0.27</pitch><mode /></trkpt><trkpt lat="60.3698402" lon="25.2592584"><ele>22.32</ele><time>2016-05-22T15:26:23+03:00</time><course>98.01</course><roll>-0.5</roll><pitch>-0.35</pitch><mode /></trkpt><trkpt lat="60.3698394" lon="25.2592587"><ele>22.35</ele><time>2016-05-22T15:26:23+03:00</time><course>97.84</course><roll>0.11</roll><pitch>-0.17</pitch><mode /></trkpt><trkpt lat="60.3698387" lon="25.2592592"><ele>22.39</ele><time>2016-05-22T15:26:23+03:00</time><course>97.86</course><roll>0</roll><pitch>-0.07</pitch><mode /></trkpt><trkpt lat="60.369838" lon="25.2592603"><ele>22.43</ele><time>2016-05-22T15:26:23+03:00</time><course>98.2</course><roll>0.11</roll><pitch>-0.07</pitch><mode /></trkpt><trkpt lat="60.3698373" lon="25.2592616"><ele>22.45</ele><time>2016-05-22T15:26:24+03:00</time><course>98.55</course><roll>-0.21</roll><pitch>-0.55</pitch><mode /></trkpt><trkpt lat="60.3698365" lon="25.259263"><ele>22.45</ele><time>2016-05-22T15:26:24+03:00</time><course>98.72</course><roll>-0.1</roll><pitch>-0.58</pitch><mode /></trkpt><trkpt lat="60.3698357" lon="25.2592648"><ele>22.46</ele><time>2016-05-22T15:26:24+03:00</time><course>98.68</course><roll>-0.06</roll><pitch>-0.47</pitch><mode /></trkpt><trkpt lat="60.3698351" lon="25.2592668"><ele>22.48</ele><time>2016-05-22T15:26:24+03:00</time><course>98.45</course><roll>-0.01</roll><pitch>-0.37</pitch><mode /></trkpt><trkpt lat="60.3698344" lon="25.2592691"><ele>22.47</ele><time>2016-05-22T15:26:24+03:00</time><course>97.97</course><roll>-0.04</roll><pitch>-0.37</pitch><mode /></trkpt><trkpt lat="60.3698337" lon="25.2592716"><ele>22.48</ele><time>2016-05-22T15:26:25+03:00</time><course>97.57</course><roll>-0.17</roll><pitch>-0.19</pitch><mode /></trkpt><trkpt lat="60.369833" lon="25.2592742"><ele>22.49</ele><time>2016-05-22T15:26:25+03:00</time><course>97.43</course><roll>-0.16</roll><pitch>0.02</pitch><mode /></trkpt><trkpt lat="60.3698324" lon="25.259277"><ele>22.45</ele><time>2016-05-22T15:26:25+03:00</time><course>97.46</course><roll>-0.07</roll><pitch>-2.37</pitch><mode /></trkpt><trkpt lat="60.369832" lon="25.2592799"><ele>22.36</ele><time>2016-05-22T15:26:25+03:00</time><course>97.66</course><roll>1.2</roll><pitch>-2.64</pitch><mode /></trkpt><trkpt lat="60.3698317" lon="25.2592834"><ele>22.2</ele><time>2016-05-22T15:26:25+03:00</time><course>97.67</course><roll>-0.29</roll><pitch>-0.22</pitch><mode /></trkpt><trkpt lat="60.3698315" lon="25.2592874"><ele>22.14</ele><time>2016-05-22T15:26:26+03:00</time><course>97.67</course><roll>-0.74</roll><pitch>0.02</pitch><mode /></trkpt><trkpt lat="60.3698314" lon="25.2592908"><ele>22.11</ele><time>2016-05-22T15:26:26+03:00</time><course>97.58</course><roll>-0.63</roll><pitch>-0.37</pitch><mode /></trkpt><trkpt lat="60.3698311" lon="25.2592939"><ele>22.01</ele><time>2016-05-22T15:26:26+03:00</time><course>97.3</course><roll>0</roll><pitch>-1.53</pitch><mode /></trkpt><trkpt lat="60.3698307" lon="25.2592971"><ele>21.8</ele><time>2016-05-22T15:26:26+03:00</time><course>97.04</course><roll>0.25</roll><pitch>-1.66</pitch><mode /></trkpt><trkpt lat="60.3698305" lon="25.2593009"><ele>21.61</ele><time>2016-05-22T15:26:26+03:00</time><course>96.55</course><roll>1.06</roll><pitch>-1.82</pitch><mode /></trkpt><trkpt lat="60.3698306" lon="25.2593048"><ele>21.5</ele><time>2016-05-22T15:26:27+03:00</time><course>96.75</course><roll>0.32</roll><pitch>-0.87</pitch><mode /></trkpt><trkpt lat="60.3698307" lon="25.2593125"><ele>21.55</ele><time>2016-05-22T15:26:27+03:00</time><course>98.86</course><roll>-0.55</roll><pitch>-0.06</pitch><mode /></trkpt><trkpt lat="60.3698309" lon="25.2593161"><ele>21.58</ele><time>2016-05-22T15:26:27+03:00</time><course>99.36</course><roll>-1.03</roll><pitch>-0.43</pitch><mode /></trkpt><trkpt lat="60.3698308" lon="25.2593202"><ele>21.54</ele><time>2016-05-22T15:26:27+03:00</time><course>99.34</course><roll>-0.9</roll><pitch>-0.54</pitch><mode /></trkpt><trkpt lat="60.3698306" lon="25.2593242"><ele>21.45</ele><time>2016-05-22T15:26:28+03:00</time><course>98.98</course><roll>-0.18</roll><pitch>-0.75</pitch><mode /></trkpt><trkpt lat="60.3698304" lon="25.2593281"><ele>21.36</ele><time>2016-05-22T15:26:28+03:00</time><course>98.63</course><roll>0.34</roll><pitch>-0.42</pitch><mode /></trkpt><trkpt lat="60.3698301" lon="25.2593324"><ele>21.19</ele><time>2016-05-22T15:26:28+03:00</time><course>98.4</course><roll>0.22</roll><pitch>-0.44</pitch><mode /></trkpt><trkpt lat="60.3698302" lon="25.2593373"><ele>21.15</ele><time>2016-05-22T15:26:28+03:00</time><course>98.39</course><roll>0.15</roll><pitch>-0.22</pitch><mode /></trkpt><trkpt lat="60.3698306" lon="25.2593424"><ele>21.07</ele><time>2016-05-22T15:26:28+03:00</time><course>98.42</course><roll>-0.15</roll><pitch>-0.06</pitch><mode /></trkpt><trkpt lat="60.3698313" lon="25.2593479"><ele>21.02</ele><time>2016-05-22T15:26:29+03:00</time><course>98.42</course><roll>-0.31</roll><pitch>-8.67</pitch><mode /></trkpt><trkpt lat="60.3698316" lon="25.259353"><ele>21</ele><time>2016-05-22T15:26:29+03:00</time><course>98.4</course><roll>-0.31</roll><pitch>-10.55</pitch><mode /></trkpt><trkpt lat="60.3698321" lon="25.2593574"><ele>21.06</ele><time>2016-05-22T15:26:29+03:00</time><course>98.63</course><roll>-0.2</roll><pitch>-9.32</pitch><mode /></trkpt><trkpt lat="60.3698326" lon="25.2593608"><ele>21.07</ele><time>2016-05-22T15:26:29+03:00</time><course>98.95</course><roll>-0.3</roll><pitch>-8.41</pitch><mode /></trkpt><trkpt lat="60.3698331" lon="25.2593634"><ele>21.09</ele><time>2016-05-22T15:26:29+03:00</time><course>99.03</course><roll>-0.36</roll><pitch>-8.47</pitch><mode /></trkpt><trkpt lat="60.3698336" lon="25.2593653"><ele>21.11</ele><time>2016-05-22T15:26:30+03:00</time><course>99.16</course><roll>-0.36</roll><pitch>-8.75</pitch><mode /></trkpt><trkpt lat="60.369834" lon="25.2593662"><ele>21.14</ele><time>2016-05-22T15:26:30+03:00</time><course>99.44</course><roll>-0.41</roll><pitch>-10.73</pitch><mode /></trkpt><trkpt lat="60.3698345" lon="25.2593663"><ele>21.17</ele><time>2016-05-22T15:26:30+03:00</time><course>99.73</course><roll>-0.4</roll><pitch>-9.56</pitch><mode /></trkpt><trkpt lat="60.3698352" lon="25.2593657"><ele>21.27</ele><time>2016-05-22T15:26:30+03:00</time><course>99.8</course><roll>-0.06</roll><pitch>-7.71</pitch><mode /></trkpt><trkpt lat="60.3698359" lon="25.2593645"><ele>21.39</ele><time>2016-05-22T15:26:30+03:00</time><course>99.66</course><roll>-0.21</roll><pitch>-6.16</pitch><mode /></trkpt><trkpt lat="60.3698364" lon="25.2593622"><ele>21.54</ele><time>2016-05-22T15:26:31+03:00</time><course>99.42</course><roll>-0.19</roll><pitch>-5.45</pitch><mode /></trkpt><trkpt lat="60.369837" lon="25.2593591"><ele>21.65</ele><time>2016-05-22T15:26:31+03:00</time><course>99.11</course><roll>0.14</roll><pitch>-5.03</pitch><mode /></trkpt><trkpt lat="60.3698379" lon="25.2593562"><ele>21.75</ele><time>2016-05-22T15:26:31+03:00</time><course>99.22</course><roll>-0.14</roll><pitch>-4.91</pitch><mode /></trkpt><trkpt lat="60.3698385" lon="25.2593532"><ele>21.81</ele><time>2016-05-22T15:26:31+03:00</time><course>99.72</course><roll>-0.21</roll><pitch>-4.39</pitch><mode /></trkpt><trkpt lat="60.3698392" lon="25.2593506"><ele>21.87</ele><time>2016-05-22T15:26:31+03:00</time><course>100.1</course><roll>-0.24</roll><pitch>-4.59</pitch><mode /></trkpt><trkpt lat="60.36984" lon="25.2593472"><ele>22</ele><time>2016-05-22T15:26:32+03:00</time><course>100.21</course><roll>-0.1</roll><pitch>-3.88</pitch><mode /></trkpt><trkpt lat="60.369841" lon="25.2593431"><ele>22.2</ele><time>2016-05-22T15:26:32+03:00</time><course>100.2</course><roll>-0.4</roll><pitch>-3.12</pitch><mode /></trkpt><trkpt lat="60.3698417" lon="25.2593392"><ele>22.38</ele><time>2016-05-22T15:26:32+03:00</time><course>100.13</course><roll>-0.51</roll><pitch>-2.51</pitch><mode /></trkpt><trkpt lat="60.3698425" lon="25.2593357"><ele>22.58</ele><time>2016-05-22T15:26:32+03:00</time><course>100.14</course><roll>-0.18</roll><pitch>-2.04</pitch><mode /></trkpt><trkpt lat="60.3698433" lon="25.2593325"><ele>22.65</ele><time>2016-05-22T15:26:32+03:00</time><course>100.01</course><roll>-0.25</roll><pitch>-2.16</pitch><mode /></trkpt><trkpt lat="60.3698445" lon="25.2593296"><ele>22.83</ele><time>2016-05-22T15:26:33+03:00</time><course>99.91</course><roll>-0.21</roll><pitch>-0.07</pitch><mode /></trkpt><trkpt lat="60.3698457" lon="25.2593272"><ele>22.98</ele><time>2016-05-22T15:26:33+03:00</time><course>99.95</course><roll>0.28</roll><pitch>-0.15</pitch><mode /></trkpt><trkpt lat="60.3698468" lon="25.2593244"><ele>23.06</ele><time>2016-05-22T15:26:33+03:00</time><course>99.92</course><roll>-0.04</roll><pitch>-0.44</pitch><mode /></trkpt><trkpt lat="60.3698481" lon="25.2593214"><ele>23.28</ele><time>2016-05-22T15:26:33+03:00</time><course>99.81</course><roll>-0.32</roll><pitch>-0.98</pitch><mode /></trkpt><trkpt lat="60.3698492" lon="25.2593189"><ele>23.47</ele><time>2016-05-22T15:26:33+03:00</time><course>99.73</course><roll>-0.3</roll><pitch>-0.76</pitch><mode /></trkpt><trkpt lat="60.3698503" lon="25.2593166"><ele>23.62</ele><time>2016-05-22T15:26:34+03:00</time><course>99.75</course><roll>-0.04</roll><pitch>-0.48</pitch><mode /></trkpt><trkpt lat="60.3698515" lon="25.2593147"><ele>23.87</ele><time>2016-05-22T15:26:34+03:00</time><course>99.72</course><roll>-0.33</roll><pitch>-0.71</pitch><mode /></trkpt><trkpt lat="60.3698521" lon="25.259313"><ele>24.04</ele><time>2016-05-22T15:26:34+03:00</time><course>99.53</course><roll>-0.39</roll><pitch>-2.46</pitch><mode /></trkpt><trkpt lat="60.3698529" lon="25.2593114"><ele>24.24</ele><time>2016-05-22T15:26:34+03:00</time><course>99.21</course><roll>-0.35</roll><pitch>-0.79</pitch><mode /></trkpt><trkpt lat="60.3698542" lon="25.2593101"><ele>24.41</ele><time>2016-05-22T15:26:34+03:00</time><course>98.94</course><roll>0.09</roll><pitch>-0.56</pitch><mode /></trkpt><trkpt lat="60.3698554" lon="25.2593091"><ele>24.63</ele><time>2016-05-22T15:26:35+03:00</time><course>98.79</course><roll>-0.14</roll><pitch>-0.4</pitch><mode /></trkpt><trkpt lat="60.369857" lon="25.2593082"><ele>24.92</ele><time>2016-05-22T15:26:35+03:00</time><course>98.73</course><roll>-0.19</roll><pitch>-0.3</pitch><mode /></trkpt><trkpt lat="60.3698584" lon="25.2593074"><ele>25.22</ele><time>2016-05-22T15:26:35+03:00</time><course>98.82</course><roll>0.1</roll><pitch>-1.04</pitch><mode /></trkpt><trkpt lat="60.3698597" lon="25.2593065"><ele>25.54</ele><time>2016-05-22T15:26:35+03:00</time><course>102.97</course><roll>14.94</roll><pitch>9.99</pitch><mode /></trkpt><trkpt lat="60.3698615" lon="25.2593067"><ele>26.07</ele><time>2016-05-22T15:26:35+03:00</time><course>132.14</course><roll>80.43</roll><pitch>23.85</pitch><mode /></trkpt><trkpt lat="60.3698631" lon="25.2593091"><ele>26.2</ele><time>2016-05-22T15:26:36+03:00</time><course>162.53</course><roll>141.41</roll><pitch>-14.96</pitch><mode /></trkpt><trkpt lat="60.3698659" lon="25.259314"><ele>26.16</ele><time>2016-05-22T15:26:36+03:00</time><course>50.97</course><roll>-48.94</roll><pitch>-67.04</pitch><mode /></trkpt><trkpt lat="60.3698688" lon="25.2593194"><ele>25.96</ele><time>2016-05-22T15:26:36+03:00</time><course>87.89</course><roll>59.21</roll><pitch>27.99</pitch><mode /></trkpt><trkpt lat="60.3698736" lon="25.2593257"><ele>25.45</ele><time>2016-05-22T15:26:36+03:00</time><course>235.29</course><roll>85.81</roll><pitch>-77.64</pitch><mode /></trkpt><trkpt lat="60.3698776" lon="25.2593378"><ele>24.15</ele><time>2016-05-22T15:26:36+03:00</time><course>72.48</course><roll>70.74</roll><pitch>42.93</pitch><mode /></trkpt><trkpt lat="60.3698811" lon="25.259353"><ele>22.56</ele><time>2016-05-22T15:26:37+03:00</time><course>244.53</course><roll>101.42</roll><pitch>-62.53</pitch><mode /></trkpt><trkpt lat="60.3698841" lon="25.2593686"><ele>20.38</ele><time>2016-05-22T15:26:37+03:00</time><course>90.02</course><roll>92.4</roll><pitch>18.4</pitch><mode /></trkpt><trkpt lat="60.3698883" lon="25.2593852"><ele>17.56</ele><time>2016-05-22T15:26:37+03:00</time><course>156.93</course><roll>150.72</roll><pitch>-19.95</pitch><mode /></trkpt><trkpt lat="60.3698961" lon="25.2594022"><ele>14.17</ele><time>2016-05-22T15:26:37+03:00</time><course>144.49</course><roll>-162.02</roll><pitch>-65.71</pitch><mode /></trkpt><trkpt lat="60.3699028" lon="25.2594157"><ele>10.11</ele><time>2016-05-22T15:26:37+03:00</time><course>49.58</course><roll>-25.32</roll><pitch>-60.97</pitch><mode /></trkpt><trkpt lat="60.3699072" lon="25.2594325"><ele>6.75</ele><time>2016-05-22T15:26:38+03:00</time><course>48.69</course><roll>-23.85</roll><pitch>-26.76</pitch><mode /></trkpt><trkpt lat="60.3699074" lon="25.2594558"><ele>3.59</ele><time>2016-05-22T15:26:38+03:00</time><course>51.01</course><roll>-20.97</roll><pitch>-19.15</pitch><mode /></trkpt><trkpt lat="60.3699063" lon="25.2594736"><ele>1.25</ele><time>2016-05-22T15:26:38+03:00</time><course>50.34</course><roll>-22.7</roll><pitch>-22.61</pitch><mode /></trkpt><trkpt lat="60.3699055" lon="25.259482"><ele>-0.12</ele><time>2016-05-22T15:26:38+03:00</time><course>50.1</course><roll>-22.35</roll><pitch>-22</pitch><mode /></trkpt><trkpt lat="60.3699038" lon="25.2594894"><ele>-1.61</ele><time>2016-05-22T15:26:38+03:00</time><course>49.91</course><roll>-21.92</roll><pitch>-21.37</pitch><mode /></trkpt><trkpt lat="60.3699032" lon="25.2594933"><ele>-2.48</ele><time>2016-05-22T15:26:39+03:00</time><course>49.74</course><roll>-21.88</roll><pitch>-20.67</pitch><mode /></trkpt><trkpt lat="60.3699028" lon="25.2594944"><ele>-3.2</ele><time>2016-05-22T15:26:39+03:00</time><course>49.58</course><roll>-21.4</roll><pitch>-20.07</pitch><mode /></trkpt><trkpt lat="60.3699023" lon="25.2594955"><ele>-3.69</ele><time>2016-05-22T15:26:39+03:00</time><course>49.38</course><roll>-21.05</roll><pitch>-19.33</pitch><mode /></trkpt><trkpt lat="60.3699017" lon="25.259496"><ele>-3.95</ele><time>2016-05-22T15:26:39+03:00</time><course>49.21</course><roll>-20.82</roll><pitch>-18.58</pitch><mode /></trkpt><trkpt lat="60.3699013" lon="25.2594952"><ele>-3.81</ele><time>2016-05-22T15:26:39+03:00</time><course>49.04</course><roll>-20.5</roll><pitch>-17.89</pitch><mode /></trkpt><trkpt lat="60.3699011" lon="25.2594928"><ele>-3.37</ele><time>2016-05-22T15:26:40+03:00</time><course>48.88</course><roll>-20.14</roll><pitch>-17.22</pitch><mode /></trkpt><trkpt lat="60.3699008" lon="25.2594887"><ele>-2.33</ele><time>2016-05-22T15:26:40+03:00</time><course>48.56</course><roll>-19.85</roll><pitch>-15.74</pitch><mode /></trkpt><trkpt lat="60.3699003" lon="25.2594879"><ele>-1.9</ele><time>2016-05-22T15:26:40+03:00</time><course>48.41</course><roll>-19.6</roll><pitch>-15.05</pitch><mode /></trkpt><trkpt lat="60.3699001" lon="25.2594866"><ele>-1.44</ele><time>2016-05-22T15:26:40+03:00</time><course>48.26</course><roll>-19.53</roll><pitch>-14.34</pitch><mode /></trkpt><trkpt lat="60.3698999" lon="25.2594847"><ele>-0.92</ele><time>2016-05-22T15:26:41+03:00</time><course>48.13</course><roll>-19.16</roll><pitch>-13.76</pitch><mode /></trkpt><trkpt lat="60.3699" lon="25.2594831"><ele>-0.4</ele><time>2016-05-22T15:26:41+03:00</time><course>47.99</course><roll>-18.96</roll><pitch>-13.06</pitch><mode /></trkpt><trkpt lat="60.3698998" lon="25.259479"><ele>0.33</ele><time>2016-05-22T15:26:41+03:00</time><course>47.86</course><roll>-18.73</roll><pitch>-12.42</pitch><mode /></trkpt><trkpt lat="60.3698997" lon="25.259475"><ele>1.07</ele><time>2016-05-22T15:26:41+03:00</time><course>47.72</course><roll>-18.51</roll><pitch>-11.76</pitch><mode /></trkpt><trkpt lat="60.3699" lon="25.259473"><ele>1.53</ele><time>2016-05-22T15:26:41+03:00</time><course>47.6</course><roll>-18.27</roll><pitch>-11.13</pitch><mode /></trkpt><trkpt lat="60.3698998" lon="25.2594715"><ele>2.05</ele><time>2016-05-22T15:26:42+03:00</time><course>47.46</course><roll>-18.06</roll><pitch>-10.48</pitch><mode /></trkpt><trkpt lat="60.3698995" lon="25.2594702"><ele>2.49</ele><time>2016-05-22T15:26:42+03:00</time><course>47.34</course><roll>-17.83</roll><pitch>-9.9</pitch><mode /></trkpt><trkpt lat="60.369899" lon="25.2594691"><ele>2.89</ele><time>2016-05-22T15:26:42+03:00</time><course>47.22</course><roll>-17.66</roll><pitch>-9.27</pitch><mode /></trkpt><trkpt lat="60.3698996" lon="25.2594666"><ele>3.43</ele><time>2016-05-22T15:26:42+03:00</time><course>47.09</course><roll>-17.38</roll><pitch>-8.64</pitch><mode /></trkpt><trkpt lat="60.3699004" lon="25.2594646"><ele>3.99</ele><time>2016-05-22T15:26:42+03:00</time><course>46.98</course><roll>-17.2</roll><pitch>-8.06</pitch><mode /></trkpt><trkpt lat="60.3699007" lon="25.2594618"><ele>4.43</ele><time>2016-05-22T15:26:43+03:00</time><course>46.86</course><roll>-17.03</roll><pitch>-7.49</pitch><mode /></trkpt><trkpt lat="60.3699" lon="25.2594597"><ele>4.62</ele><time>2016-05-22T15:26:43+03:00</time><course>46.74</course><roll>-16.86</roll><pitch>-6.92</pitch><mode /></trkpt><trkpt lat="60.3698994" lon="25.259458"><ele>4.96</ele><time>2016-05-22T15:26:43+03:00</time><course>46.64</course><roll>-16.71</roll><pitch>-6.37</pitch><mode /></trkpt><trkpt lat="60.3699" lon="25.2594495"><ele>5.97</ele><time>2016-05-22T15:26:43+03:00</time><course>46.42</course><roll>-16.34</roll><pitch>-5.23</pitch><mode /></trkpt><trkpt lat="60.3699005" lon="25.2594469"><ele>6.43</ele><time>2016-05-22T15:26:44+03:00</time><course>46.32</course><roll>-16.22</roll><pitch>-4.73</pitch><mode /></trkpt><trkpt lat="60.3699006" lon="25.2594439"><ele>6.86</ele><time>2016-05-22T15:26:44+03:00</time><course>46.21</course><roll>-16.1</roll><pitch>-4.18</pitch><mode /></trkpt><trkpt lat="60.3699005" lon="25.2594404"><ele>7.21</ele><time>2016-05-22T15:26:44+03:00</time><course>46.12</course><roll>-15.86</roll><pitch>-3.74</pitch><mode /></trkpt><trkpt lat="60.3699007" lon="25.2594349"><ele>7.79</ele><time>2016-05-22T15:26:44+03:00</time><course>45.93</course><roll>-15.54</roll><pitch>-2.69</pitch><mode /></trkpt><trkpt lat="60.3699008" lon="25.2594325"><ele>8.04</ele><time>2016-05-22T15:26:45+03:00</time><course>45.84</course><roll>-15.36</roll><pitch>-2.18</pitch><mode /></trkpt><trkpt lat="60.3699014" lon="25.2594293"><ele>8.39</ele><time>2016-05-22T15:26:45+03:00</time><course>45.75</course><roll>-15.19</roll><pitch>-1.75</pitch><mode /></trkpt><trkpt lat="60.3699018" lon="25.2594268"><ele>8.72</ele><time>2016-05-22T15:26:45+03:00</time><course>45.66</course><roll>-15.08</roll><pitch>-1.26</pitch><mode /></trkpt><trkpt lat="60.3699014" lon="25.2594256"><ele>8.88</ele><time>2016-05-22T15:26:45+03:00</time><course>45.56</course><roll>-15.02</roll><pitch>-0.76</pitch><mode /></trkpt><trkpt lat="60.3699011" lon="25.2594237"><ele>9.01</ele><time>2016-05-22T15:26:45+03:00</time><course>45.48</course><roll>-14.83</roll><pitch>-0.37</pitch><mode /></trkpt><trkpt lat="60.3699009" lon="25.2594219"><ele>9.12</ele><time>2016-05-22T15:26:46+03:00</time><course>45.39</course><roll>-14.68</roll><pitch>0.07</pitch><mode /></trkpt><trkpt lat="60.3699008" lon="25.2594191"><ele>9.46</ele><time>2016-05-22T15:26:46+03:00</time><course>45.16</course><roll>-14.45</roll><pitch>0.94</pitch><mode /></trkpt><trkpt lat="60.3699004" lon="25.2594174"><ele>9.79</ele><time>2016-05-22T15:26:47+03:00</time><course>44.74</course><roll>-14.09</roll><pitch>2.16</pitch><mode /></trkpt><trkpt lat="60.3699001" lon="25.2594173"><ele>9.88</ele><time>2016-05-22T15:26:47+03:00</time><course>44.57</course><roll>-13.99</roll><pitch>2.51</pitch><mode /></trkpt><trkpt lat="60.3698998" lon="25.2594175"><ele>9.97</ele><time>2016-05-22T15:26:47+03:00</time><course>44.38</course><roll>-13.85</roll><pitch>2.9</pitch><mode /></trkpt><trkpt lat="60.3698997" lon="25.2594176"><ele>10.08</ele><time>2016-05-22T15:26:47+03:00</time><course>44.18</course><roll>-13.78</roll><pitch>3.28</pitch><mode /></trkpt><trkpt lat="60.3698993" lon="25.2594173"><ele>10.13</ele><time>2016-05-22T15:26:47+03:00</time><course>43.99</course><roll>-13.62</roll><pitch>3.62</pitch><mode /></trkpt><trkpt lat="60.369899" lon="25.2594169"><ele>10.21</ele><time>2016-05-22T15:26:48+03:00</time><course>43.78</course><roll>-13.53</roll><pitch>3.93</pitch><mode /></trkpt><trkpt lat="60.3698985" lon="25.259416"><ele>10.2</ele><time>2016-05-22T15:26:48+03:00</time><course>43.59</course><roll>-13.33</roll><pitch>4.22</pitch><mode /></trkpt><trkpt lat="60.3698981" lon="25.259415"><ele>10.19</ele><time>2016-05-22T15:26:48+03:00</time><course>43.35</course><roll>-13.26</roll><pitch>4.58</pitch><mode /></trkpt><trkpt lat="60.3698976" lon="25.2594149"><ele>10.32</ele><time>2016-05-22T15:26:48+03:00</time><course>42.85</course><roll>-13.22</roll><pitch>5.24</pitch><mode /></trkpt><trkpt lat="60.3698975" lon="25.2594143"><ele>10.4</ele><time>2016-05-22T15:26:49+03:00</time><course>42.62</course><roll>-13.01</roll><pitch>5.49</pitch><mode /></trkpt><trkpt lat="60.3698971" lon="25.2594137"><ele>10.46</ele><time>2016-05-22T15:26:49+03:00</time><course>42.35</course><roll>-12.94</roll><pitch>5.78</pitch><mode /></trkpt><trkpt lat="60.3698969" lon="25.2594132"><ele>10.52</ele><time>2016-05-22T15:26:49+03:00</time><course>42.07</course><roll>-12.9</roll><pitch>6.03</pitch><mode /></trkpt><trkpt lat="60.3698967" lon="25.2594126"><ele>10.59</ele><time>2016-05-22T15:26:49+03:00</time><course>41.5</course><roll>-12.78</roll><pitch>6.66</pitch><mode /></trkpt><trkpt lat="60.3698966" lon="25.2594121"><ele>10.66</ele><time>2016-05-22T15:26:50+03:00</time><course>41.2</course><roll>-12.72</roll><pitch>6.94</pitch><mode /></trkpt><trkpt lat="60.3698963" lon="25.2594115"><ele>10.73</ele><time>2016-05-22T15:26:50+03:00</time><course>40.88</course><roll>-12.71</roll><pitch>7.2</pitch><mode /></trkpt><trkpt lat="60.3698962" lon="25.2594104"><ele>10.8</ele><time>2016-05-22T15:26:50+03:00</time><course>40.58</course><roll>-12.6</roll><pitch>7.43</pitch><mode /></trkpt><trkpt lat="60.369896" lon="25.2594097"><ele>10.82</ele><time>2016-05-22T15:26:50+03:00</time><course>40.26</course><roll>-12.54</roll><pitch>7.72</pitch><mode /></trkpt><trkpt lat="60.3698957" lon="25.2594085"><ele>10.88</ele><time>2016-05-22T15:26:50+03:00</time><course>39.93</course><roll>-12.57</roll><pitch>7.99</pitch><mode /></trkpt><trkpt lat="60.3698955" lon="25.259407"><ele>10.94</ele><time>2016-05-22T15:26:51+03:00</time><course>39.6</course><roll>-12.5</roll><pitch>8.18</pitch><mode /></trkpt><trkpt lat="60.3698952" lon="25.2594056"><ele>11.01</ele><time>2016-05-22T15:26:51+03:00</time><course>39.26</course><roll>-12.44</roll><pitch>8.4</pitch><mode /></trkpt><trkpt lat="60.3698949" lon="25.2594043"><ele>11.09</ele><time>2016-05-22T15:26:51+03:00</time><course>38.91</course><roll>-12.45</roll><pitch>8.63</pitch><mode /></trkpt></trkseg></trk><wpt lat="60.3698226" lon="25.2590513"><name>0</name></wpt><wpt lat="60.3698235" lon="25.2590512"><name>1</name></wpt><wpt lat="60.3698237" lon="25.2590511"><name>2</name></wpt><wpt lat="60.3698238" lon="25.2590509"><name>3</name></wpt><wpt lat="60.369824" lon="25.2590509"><name>4</name></wpt><wpt lat="60.3698241" lon="25.259051"><name>5</name></wpt><wpt lat="60.3698242" lon="25.2590511"><name>6</name></wpt><wpt lat="60.3698243" lon="25.259051"><name>7</name></wpt><wpt lat="60.3698245" lon="25.2590509"><name>8</name></wpt><wpt lat="60.3698246" lon="25.2590508"><name>9</name></wpt><wpt lat="60.3698248" lon="25.2590506"><name>10</name></wpt><wpt lat="60.3698249" lon="25.2590505"><name>11</name></wpt><wpt lat="60.3698248" lon="25.2590504"><name>12</name></wpt><wpt lat="60.3698249" lon="25.2590505"><name>13</name></wpt><wpt lat="60.369825" lon="25.2590508"><name>14</name></wpt><wpt lat="60.3698251" lon="25.2590507"><name>15</name></wpt><wpt lat="60.3698253" lon="25.2590507"><name>16</name></wpt><wpt lat="60.3698255" lon="25.2590508"><name>17</name></wpt><wpt lat="60.3698256" lon="25.2590509"><name>18</name></wpt><wpt lat="60.3698258" lon="25.2590507"><name>19</name></wpt><wpt lat="60.3698261" lon="25.2590505"><name>20</name></wpt><wpt lat="60.3698263" lon="25.2590502"><name>21</name></wpt><wpt lat="60.3698264" lon="25.2590501"><name>22</name></wpt><wpt lat="60.3698263" lon="25.2590496"><name>23</name></wpt><wpt lat="60.3698258" lon="25.2590478"><name>24</name></wpt><wpt lat="60.3698242" lon="25.2590467"><name>25</name></wpt><wpt lat="60.3698222" lon="25.2590486"><name>26</name></wpt><wpt lat="60.3698193" lon="25.2590521"><name>27</name></wpt><wpt lat="60.3698161" lon="25.2590566"><name>28</name></wpt><wpt lat="60.3698134" lon="25.2590609"><name>29</name></wpt><wpt lat="60.369811" lon="25.2590654"><name>30</name></wpt><wpt lat="60.3698084" lon="25.2590699"><name>31</name></wpt><wpt lat="60.3698063" lon="25.2590742"><name>32</name></wpt><wpt lat="60.3698043" lon="25.2590774"><name>33</name></wpt><wpt lat="60.3698032" lon="25.2590812"><name>34</name></wpt><wpt lat="60.3698025" lon="25.2590851"><name>35</name></wpt><wpt lat="60.3698022" lon="25.2590868"><name>36</name></wpt><wpt lat="60.3698025" lon="25.2590886"><name>37</name></wpt><wpt lat="60.3698023" lon="25.2590916"><name>38</name></wpt><wpt lat="60.3698014" lon="25.2590948"><name>39</name></wpt><wpt lat="60.3698007" lon="25.2590982"><name>40</name></wpt><wpt lat="60.3698005" lon="25.2591002"><name>41</name></wpt><wpt lat="60.3698018" lon="25.2590985"><name>42</name></wpt><wpt lat="60.3698015" lon="25.2590972"><name>43</name></wpt><wpt lat="60.3698009" lon="25.2590963"><name>44</name></wpt><wpt lat="60.3698007" lon="25.2590965"><name>45</name></wpt><wpt lat="60.3698005" lon="25.2590967"><name>46</name></wpt><wpt lat="60.3698006" lon="25.2590973"><name>47</name></wpt><wpt lat="60.3698007" lon="25.2590975"><name>48</name></wpt><wpt lat="60.3698006" lon="25.2590985"><name>49</name></wpt><wpt lat="60.3698006" lon="25.2590993"><name>50</name></wpt><wpt lat="60.3698005" lon="25.2590998"><name>51</name></wpt><wpt lat="60.3698007" lon="25.2591001"><name>52</name></wpt><wpt lat="60.3698004" lon="25.2591004"><name>53</name></wpt><wpt lat="60.3698007" lon="25.2591007"><name>54</name></wpt><wpt lat="60.3698006" lon="25.259101"><name>55</name></wpt><wpt lat="60.3698004" lon="25.2591009"><name>56</name></wpt><wpt lat="60.3698003" lon="25.2591006"><name>57</name></wpt><wpt lat="60.3698002" lon="25.2591008"><name>58</name></wpt><wpt lat="60.3698" lon="25.2591015"><name>59</name></wpt><wpt lat="60.3697999" lon="25.2591014"><name>60</name></wpt><wpt lat="60.3697997" lon="25.2591013"><name>61</name></wpt><wpt lat="60.3697996" lon="25.2591015"><name>62</name></wpt><wpt lat="60.3697995" lon="25.2591021"><name>63</name></wpt><wpt lat="60.3697994" lon="25.2591027"><name>64</name></wpt><wpt lat="60.3697993" lon="25.259103"><name>65</name></wpt><wpt lat="60.3697992" lon="25.2591033"><name>66</name></wpt><wpt lat="60.3697991" lon="25.2591036"><name>67</name></wpt><wpt lat="60.3697989" lon="25.2591038"><name>68</name></wpt><wpt lat="60.3697988" lon="25.2591048"><name>69</name></wpt><wpt lat="60.3697987" lon="25.2591051"><name>70</name></wpt><wpt lat="60.3697986" lon="25.2591052"><name>71</name></wpt><wpt lat="60.3697985" lon="25.2591054"><name>72</name></wpt><wpt lat="60.3697983" lon="25.2591055"><name>73</name></wpt><wpt lat="60.3697984" lon="25.2591058"><name>74</name></wpt><wpt lat="60.3697983" lon="25.2591062"><name>75</name></wpt><wpt lat="60.369798" lon="25.2591064"><name>76</name></wpt><wpt lat="60.3697981" lon="25.259107"><name>77</name></wpt><wpt lat="60.3697983" lon="25.2591084"><name>78</name></wpt><wpt lat="60.3697984" lon="25.2591085"><name>79</name></wpt><wpt lat="60.3697983" lon="25.2591081"><name>80</name></wpt><wpt lat="60.3697982" lon="25.2591086"><name>81</name></wpt><wpt lat="60.3697983" lon="25.2591089"><name>82</name></wpt><wpt lat="60.3697984" lon="25.2591092"><name>83</name></wpt><wpt lat="60.3697985" lon="25.2591094"><name>84</name></wpt><wpt lat="60.3698484" lon="25.2590771"><name>85</name></wpt><wpt lat="60.3698483" lon="25.2590777"><name>86</name></wpt><wpt lat="60.3698484" lon="25.2590784"><name>87</name></wpt><wpt lat="60.3698483" lon="25.2590787"><name>88</name></wpt><wpt lat="60.3698482" lon="25.2590788"><name>89</name></wpt><wpt lat="60.3698481" lon="25.2590794"><name>90</name></wpt><wpt lat="60.369848" lon="25.2590792"><name>91</name></wpt><wpt lat="60.3698481" lon="25.2590795"><name>92</name></wpt><wpt lat="60.3698482" lon="25.2590797"><name>93</name></wpt><wpt lat="60.3698483" lon="25.2590801"><name>94</name></wpt><wpt lat="60.3698484" lon="25.2590804"><name>95</name></wpt><wpt lat="60.3698483" lon="25.2590807"><name>96</name></wpt><wpt lat="60.3698484" lon="25.2590816"><name>97</name></wpt><wpt lat="60.3698485" lon="25.2590821"><name>98</name></wpt><wpt lat="60.3698486" lon="25.2590827"><name>99</name></wpt><wpt lat="60.3698488" lon="25.2590834"><name>100</name></wpt><wpt lat="60.3698489" lon="25.2590845"><name>101</name></wpt><wpt lat="60.3698491" lon="25.2590879"><name>102</name></wpt><wpt lat="60.3698493" lon="25.25909"><name>103</name></wpt><wpt lat="60.3698497" lon="25.2590923"><name>104</name></wpt><wpt lat="60.3698504" lon="25.2590943"><name>105</name></wpt><wpt lat="60.3698511" lon="25.2590963"><name>106</name></wpt><wpt lat="60.3698521" lon="25.2590984"><name>107</name></wpt><wpt lat="60.3698532" lon="25.2591005"><name>108</name></wpt><wpt lat="60.3698543" lon="25.2591021"><name>109</name></wpt><wpt lat="60.3698548" lon="25.2591033"><name>110</name></wpt><wpt lat="60.3698553" lon="25.2591045"><name>111</name></wpt><wpt lat="60.3698556" lon="25.2591062"><name>112</name></wpt><wpt lat="60.3698559" lon="25.2591075"><name>113</name></wpt><wpt lat="60.3698564" lon="25.2591081"><name>114</name></wpt><wpt lat="60.3698567" lon="25.2591083"><name>115</name></wpt><wpt lat="60.3698568" lon="25.2591078"><name>116</name></wpt><wpt lat="60.3698567" lon="25.2591069"><name>117</name></wpt><wpt lat="60.3698566" lon="25.2591054"><name>118</name></wpt><wpt lat="60.3698563" lon="25.2591037"><name>119</name></wpt><wpt lat="60.3698558" lon="25.2591018"><name>120</name></wpt><wpt lat="60.3698553" lon="25.2590999"><name>121</name></wpt><wpt lat="60.369855" lon="25.259098"><name>122</name></wpt><wpt lat="60.3698547" lon="25.2590958"><name>123</name></wpt><wpt lat="60.3698541" lon="25.2590932"><name>124</name></wpt><wpt lat="60.3698536" lon="25.2590906"><name>125</name></wpt><wpt lat="60.3698533" lon="25.2590877"><name>126</name></wpt><wpt lat="60.3698529" lon="25.2590849"><name>127</name></wpt><wpt lat="60.3698527" lon="25.2590825"><name>128</name></wpt><wpt lat="60.3698526" lon="25.25908"><name>129</name></wpt><wpt lat="60.3698524" lon="25.2590774"><name>130</name></wpt><wpt lat="60.3698517" lon="25.2590749"><name>131</name></wpt><wpt lat="60.3698507" lon="25.2590726"><name>132</name></wpt><wpt lat="60.3698499" lon="25.259071"><name>133</name></wpt><wpt lat="60.3698496" lon="25.2590694"><name>134</name></wpt><wpt lat="60.369849" lon="25.2590678"><name>135</name></wpt><wpt lat="60.3698484" lon="25.2590664"><name>136</name></wpt><wpt lat="60.3698478" lon="25.2590652"><name>137</name></wpt><wpt lat="60.369847" lon="25.2590643"><name>138</name></wpt><wpt lat="60.3698461" lon="25.2590635"><name>139</name></wpt><wpt lat="60.3698452" lon="25.2590626"><name>140</name></wpt><wpt lat="60.3698444" lon="25.259062"><name>141</name></wpt><wpt lat="60.3698435" lon="25.2590615"><name>142</name></wpt><wpt lat="60.3698424" lon="25.2590607"><name>143</name></wpt><wpt lat="60.3698413" lon="25.2590603"><name>144</name></wpt><wpt lat="60.3698403" lon="25.2590606"><name>145</name></wpt><wpt lat="60.3698393" lon="25.2590611"><name>146</name></wpt><wpt lat="60.3698383" lon="25.2590615"><name>147</name></wpt><wpt lat="60.3698373" lon="25.2590623"><name>148</name></wpt><wpt lat="60.3698361" lon="25.259063"><name>149</name></wpt><wpt lat="60.3698352" lon="25.2590638"><name>150</name></wpt><wpt lat="60.3698346" lon="25.2590645"><name>151</name></wpt><wpt lat="60.369834" lon="25.2590653"><name>152</name></wpt><wpt lat="60.3698333" lon="25.2590663"><name>153</name></wpt><wpt lat="60.3698325" lon="25.2590672"><name>154</name></wpt><wpt lat="60.3698317" lon="25.259068"><name>155</name></wpt><wpt lat="60.369831" lon="25.2590685"><name>156</name></wpt><wpt lat="60.3698301" lon="25.2590687"><name>157</name></wpt><wpt lat="60.3698295" lon="25.2590686"><name>158</name></wpt><wpt lat="60.369829" lon="25.2590683"><name>159</name></wpt><wpt lat="60.3698285" lon="25.259068"><name>160</name></wpt><wpt lat="60.3698283" lon="25.2590673"><name>161</name></wpt><wpt lat="60.3698282" lon="25.259066"><name>162</name></wpt><wpt lat="60.3698279" lon="25.2590649"><name>163</name></wpt><wpt lat="60.3698278" lon="25.2590627"><name>164</name></wpt><wpt lat="60.369828" lon="25.2590619"><name>165</name></wpt><wpt lat="60.3698282" lon="25.2590611"><name>166</name></wpt><wpt lat="60.3698283" lon="25.2590599"><name>167</name></wpt><wpt lat="60.3698285" lon="25.2590585"><name>168</name></wpt><wpt lat="60.3698289" lon="25.2590574"><name>169</name></wpt><wpt lat="60.3698292" lon="25.2590565"><name>170</name></wpt><wpt lat="60.3698295" lon="25.2590558"><name>171</name></wpt><wpt lat="60.3698298" lon="25.2590551"><name>172</name></wpt><wpt lat="60.36983" lon="25.2590541"><name>173</name></wpt><wpt lat="60.3698302" lon="25.2590527"><name>174</name></wpt><wpt lat="60.3698309" lon="25.2590509"><name>175</name></wpt><wpt lat="60.3698316" lon="25.2590491"><name>176</name></wpt><wpt lat="60.369832" lon="25.2590477"><name>177</name></wpt><wpt lat="60.3698325" lon="25.2590463"><name>178</name></wpt><wpt lat="60.3698329" lon="25.2590446"><name>179</name></wpt><wpt lat="60.3698333" lon="25.2590429"><name>180</name></wpt><wpt lat="60.3698338" lon="25.2590411"><name>181</name></wpt><wpt lat="60.3698344" lon="25.2590393"><name>182</name></wpt><wpt lat="60.369835" lon="25.2590376"><name>183</name></wpt><wpt lat="60.3698355" lon="25.2590358"><name>184</name></wpt><wpt lat="60.3698361" lon="25.2590342"><name>185</name></wpt><wpt lat="60.3698367" lon="25.2590329"><name>186</name></wpt><wpt lat="60.3698372" lon="25.2590315"><name>187</name></wpt><wpt lat="60.3698377" lon="25.2590303"><name>188</name></wpt><wpt lat="60.3698384" lon="25.2590293"><name>189</name></wpt><wpt lat="60.3698394" lon="25.259028"><name>190</name></wpt><wpt lat="60.3698406" lon="25.2590271"><name>191</name></wpt><wpt lat="60.3698418" lon="25.2590263"><name>192</name></wpt><wpt lat="60.3698432" lon="25.2590256"><name>193</name></wpt><wpt lat="60.3698466" lon="25.2590254"><name>194</name></wpt><wpt lat="60.3698506" lon="25.2590265"><name>195</name></wpt><wpt lat="60.3698527" lon="25.259028"><name>196</name></wpt><wpt lat="60.3698549" lon="25.2590292"><name>197</name></wpt><wpt lat="60.369857" lon="25.2590306"><name>198</name></wpt><wpt lat="60.3698591" lon="25.259032"><name>199</name></wpt><wpt lat="60.3698614" lon="25.2590336"><name>200</name></wpt><wpt lat="60.3698638" lon="25.259035"><name>201</name></wpt><wpt lat="60.3698661" lon="25.2590365"><name>202</name></wpt><wpt lat="60.369868" lon="25.2590383"><name>203</name></wpt><wpt lat="60.3698699" lon="25.2590399"><name>204</name></wpt><wpt lat="60.3698719" lon="25.2590411"><name>205</name></wpt><wpt lat="60.3698738" lon="25.259042"><name>206</name></wpt><wpt lat="60.3698752" lon="25.2590426"><name>207</name></wpt><wpt lat="60.3698765" lon="25.2590428"><name>208</name></wpt><wpt lat="60.3698779" lon="25.2590429"><name>209</name></wpt><wpt lat="60.3698793" lon="25.259043"><name>210</name></wpt><wpt lat="60.3698822" lon="25.2590427"><name>211</name></wpt><wpt lat="60.369883" lon="25.259042"><name>212</name></wpt><wpt lat="60.3698839" lon="25.2590415"><name>213</name></wpt><wpt lat="60.3698845" lon="25.2590409"><name>214</name></wpt><wpt lat="60.3698852" lon="25.2590403"><name>215</name></wpt><wpt lat="60.369886" lon="25.2590398"><name>216</name></wpt><wpt lat="60.3698867" lon="25.2590389"><name>217</name></wpt><wpt lat="60.3698875" lon="25.2590378"><name>218</name></wpt><wpt lat="60.3698881" lon="25.2590367"><name>219</name></wpt><wpt lat="60.3698885" lon="25.2590358"><name>220</name></wpt><wpt lat="60.3698888" lon="25.2590342"><name>221</name></wpt><wpt lat="60.3698891" lon="25.2590327"><name>222</name></wpt><wpt lat="60.369889" lon="25.2590316"><name>223</name></wpt><wpt lat="60.3698884" lon="25.2590307"><name>224</name></wpt><wpt lat="60.3698877" lon="25.2590301"><name>225</name></wpt><wpt lat="60.369887" lon="25.2590299"><name>226</name></wpt><wpt lat="60.3698864" lon="25.25903"><name>227</name></wpt><wpt lat="60.3698857" lon="25.2590304"><name>228</name></wpt><wpt lat="60.3698846" lon="25.2590309"><name>229</name></wpt><wpt lat="60.3698834" lon="25.2590314"><name>230</name></wpt><wpt lat="60.3698821" lon="25.2590323"><name>231</name></wpt><wpt lat="60.369881" lon="25.2590338"><name>232</name></wpt><wpt lat="60.3698799" lon="25.2590358"><name>233</name></wpt><wpt lat="60.3698787" lon="25.2590373"><name>234</name></wpt><wpt lat="60.3698775" lon="25.2590381"><name>235</name></wpt><wpt lat="60.3698763" lon="25.2590392"><name>236</name></wpt><wpt lat="60.3698753" lon="25.2590406"><name>237</name></wpt><wpt lat="60.3698742" lon="25.2590423"><name>238</name></wpt><wpt lat="60.3698726" lon="25.2590434"><name>239</name></wpt><wpt lat="60.3698716" lon="25.2590441"><name>240</name></wpt><wpt lat="60.3698708" lon="25.2590451"><name>241</name></wpt><wpt lat="60.3698698" lon="25.2590459"><name>242</name></wpt><wpt lat="60.369869" lon="25.2590464"><name>243</name></wpt><wpt lat="60.3698685" lon="25.2590473"><name>244</name></wpt><wpt lat="60.3698683" lon="25.2590482"><name>245</name></wpt><wpt lat="60.3698684" lon="25.2590488"><name>246</name></wpt><wpt lat="60.3698686" lon="25.2590495"><name>247</name></wpt><wpt lat="60.369869" lon="25.2590501"><name>248</name></wpt><wpt lat="60.3698696" lon="25.2590504"><name>249</name></wpt><wpt lat="60.3698706" lon="25.2590508"><name>250</name></wpt><wpt lat="60.3698716" lon="25.2590516"><name>251</name></wpt><wpt lat="60.3698725" lon="25.2590525"><name>252</name></wpt><wpt lat="60.3698733" lon="25.2590535"><name>253</name></wpt><wpt lat="60.3698739" lon="25.2590547"><name>254</name></wpt><wpt lat="60.3698742" lon="25.2590557"><name>255</name></wpt><wpt lat="60.3698739" lon="25.2590575"><name>256</name></wpt><wpt lat="60.3698735" lon="25.2590587"><name>257</name></wpt><wpt lat="60.3698731" lon="25.2590601"><name>258</name></wpt><wpt lat="60.3698726" lon="25.2590613"><name>259</name></wpt><wpt lat="60.3698722" lon="25.2590631"><name>260</name></wpt><wpt lat="60.3698717" lon="25.2590651"><name>261</name></wpt><wpt lat="60.3698712" lon="25.2590666"><name>262</name></wpt><wpt lat="60.3698707" lon="25.2590682"><name>263</name></wpt><wpt lat="60.3698702" lon="25.2590696"><name>264</name></wpt><wpt lat="60.3698696" lon="25.2590713"><name>265</name></wpt><wpt lat="60.3698688" lon="25.259073"><name>266</name></wpt><wpt lat="60.3698682" lon="25.2590746"><name>267</name></wpt><wpt lat="60.3698675" lon="25.259076"><name>268</name></wpt><wpt lat="60.3698668" lon="25.2590774"><name>269</name></wpt><wpt lat="60.3698659" lon="25.2590788"><name>270</name></wpt><wpt lat="60.3698651" lon="25.2590802"><name>271</name></wpt><wpt lat="60.3698644" lon="25.2590818"><name>272</name></wpt><wpt lat="60.3698636" lon="25.2590835"><name>273</name></wpt><wpt lat="60.3698627" lon="25.2590853"><name>274</name></wpt><wpt lat="60.3698621" lon="25.259087"><name>275</name></wpt><wpt lat="60.3698616" lon="25.2590886"><name>276</name></wpt><wpt lat="60.3698611" lon="25.2590901"><name>277</name></wpt><wpt lat="60.3698606" lon="25.2590916"><name>278</name></wpt><wpt lat="60.3698603" lon="25.2590931"><name>279</name></wpt><wpt lat="60.3698599" lon="25.2590946"><name>280</name></wpt><wpt lat="60.3698595" lon="25.2590962"><name>281</name></wpt><wpt lat="60.3698591" lon="25.2590975"><name>282</name></wpt><wpt lat="60.3698589" lon="25.2590989"><name>283</name></wpt><wpt lat="60.3698588" lon="25.2591003"><name>284</name></wpt><wpt lat="60.3698589" lon="25.2591016"><name>285</name></wpt><wpt lat="60.3698588" lon="25.2591029"><name>286</name></wpt><wpt lat="60.3698585" lon="25.2591043"><name>287</name></wpt><wpt lat="60.369858" lon="25.2591056"><name>288</name></wpt><wpt lat="60.3698574" lon="25.2591062"><name>289</name></wpt><wpt lat="60.3698564" lon="25.2591069"><name>290</name></wpt><wpt lat="60.3698552" lon="25.2591072"><name>291</name></wpt><wpt lat="60.3698542" lon="25.2591069"><name>292</name></wpt><wpt lat="60.3698531" lon="25.2591059"><name>293</name></wpt><wpt lat="60.369852" lon="25.2591043"><name>294</name></wpt><wpt lat="60.3698508" lon="25.259102"><name>295</name></wpt><wpt lat="60.3698497" lon="25.2590998"><name>296</name></wpt><wpt lat="60.3698488" lon="25.2590971"><name>297</name></wpt><wpt lat="60.3698482" lon="25.2590939"><name>298</name></wpt><wpt lat="60.3698474" lon="25.2590906"><name>299</name></wpt><wpt lat="60.3698468" lon="25.2590875"><name>300</name></wpt><wpt lat="60.3698462" lon="25.2590845"><name>301</name></wpt><wpt lat="60.3698456" lon="25.2590817"><name>302</name></wpt><wpt lat="60.3698452" lon="25.2590782"><name>303</name></wpt><wpt lat="60.3698451" lon="25.259075"><name>304</name></wpt><wpt lat="60.3698453" lon="25.2590695"><name>305</name></wpt><wpt lat="60.3698456" lon="25.2590666"><name>306</name></wpt><wpt lat="60.3698458" lon="25.2590634"><name>307</name></wpt><wpt lat="60.369846" lon="25.2590601"><name>308</name></wpt><wpt lat="60.3698461" lon="25.2590563"><name>309</name></wpt><wpt lat="60.3698467" lon="25.2590521"><name>310</name></wpt><wpt lat="60.3698473" lon="25.2590477"><name>311</name></wpt><wpt lat="60.3698482" lon="25.2590437"><name>312</name></wpt><wpt lat="60.3698493" lon="25.25904"><name>313</name></wpt><wpt lat="60.3698503" lon="25.2590361"><name>314</name></wpt><wpt lat="60.3698512" lon="25.2590319"><name>315</name></wpt><wpt lat="60.3698522" lon="25.2590279"><name>316</name></wpt><wpt lat="60.3698533" lon="25.2590235"><name>317</name></wpt><wpt lat="60.3698547" lon="25.2590189"><name>318</name></wpt><wpt lat="60.3698564" lon="25.2590149"><name>319</name></wpt><wpt lat="60.369858" lon="25.2590114"><name>320</name></wpt><wpt lat="60.3698593" lon="25.2590079"><name>321</name></wpt><wpt lat="60.3698607" lon="25.2590044"><name>322</name></wpt><wpt lat="60.369862" lon="25.2590011"><name>323</name></wpt><wpt lat="60.3698632" lon="25.258998"><name>324</name></wpt><wpt lat="60.3698644" lon="25.2589951"><name>325</name></wpt><wpt lat="60.3698654" lon="25.258992"><name>326</name></wpt><wpt lat="60.3698662" lon="25.2589894"><name>327</name></wpt><wpt lat="60.369867" lon="25.258987"><name>328</name></wpt><wpt lat="60.3698676" lon="25.2589852"><name>329</name></wpt><wpt lat="60.3698683" lon="25.2589836"><name>330</name></wpt><wpt lat="60.3698688" lon="25.2589824"><name>331</name></wpt><wpt lat="60.3698693" lon="25.2589815"><name>332</name></wpt><wpt lat="60.3698697" lon="25.2589811"><name>333</name></wpt><wpt lat="60.36987" lon="25.2589812"><name>334</name></wpt><wpt lat="60.3698701" lon="25.2589808"><name>335</name></wpt><wpt lat="60.3698703" lon="25.2589806"><name>336</name></wpt><wpt lat="60.3698702" lon="25.2589828"><name>337</name></wpt><wpt lat="60.3698699" lon="25.2589845"><name>338</name></wpt><wpt lat="60.3698694" lon="25.258986"><name>339</name></wpt><wpt lat="60.3698691" lon="25.2589874"><name>340</name></wpt><wpt lat="60.3698688" lon="25.2589894"><name>341</name></wpt><wpt lat="60.3698683" lon="25.2589922"><name>342</name></wpt><wpt lat="60.3698677" lon="25.2589947"><name>343</name></wpt><wpt lat="60.3698672" lon="25.2589972"><name>344</name></wpt><wpt lat="60.3698669" lon="25.259"><name>345</name></wpt><wpt lat="60.3698666" lon="25.2590029"><name>346</name></wpt><wpt lat="60.3698663" lon="25.2590063"><name>347</name></wpt><wpt lat="60.3698657" lon="25.2590097"><name>348</name></wpt><wpt lat="60.369865" lon="25.2590129"><name>349</name></wpt><wpt lat="60.3698641" lon="25.2590164"><name>350</name></wpt><wpt lat="60.3698633" lon="25.2590202"><name>351</name></wpt><wpt lat="60.3698624" lon="25.2590238"><name>352</name></wpt><wpt lat="60.3698615" lon="25.2590271"><name>353</name></wpt><wpt lat="60.3698605" lon="25.2590305"><name>354</name></wpt><wpt lat="60.3698594" lon="25.2590336"><name>355</name></wpt><wpt lat="60.3698584" lon="25.2590362"><name>356</name></wpt><wpt lat="60.3698576" lon="25.2590382"><name>357</name></wpt><wpt lat="60.3698571" lon="25.2590408"><name>358</name></wpt><wpt lat="60.3698563" lon="25.2590433"><name>359</name></wpt><wpt lat="60.3698554" lon="25.2590458"><name>360</name></wpt><wpt lat="60.3698548" lon="25.2590479"><name>361</name></wpt><wpt lat="60.3698542" lon="25.2590503"><name>362</name></wpt><wpt lat="60.3698531" lon="25.2590522"><name>363</name></wpt><wpt lat="60.3698522" lon="25.2590544"><name>364</name></wpt><wpt lat="60.3698518" lon="25.2590565"><name>365</name></wpt><wpt lat="60.369851" lon="25.2590577"><name>366</name></wpt><wpt lat="60.3698501" lon="25.2590588"><name>367</name></wpt><wpt lat="60.3698488" lon="25.25906"><name>368</name></wpt><wpt lat="60.3698478" lon="25.2590612"><name>369</name></wpt><wpt lat="60.3698473" lon="25.2590621"><name>370</name></wpt><wpt lat="60.3698469" lon="25.2590632"><name>371</name></wpt><wpt lat="60.3698463" lon="25.2590648"><name>372</name></wpt><wpt lat="60.3698458" lon="25.2590671"><name>373</name></wpt><wpt lat="60.3698449" lon="25.25907"><name>374</name></wpt><wpt lat="60.3698446" lon="25.2590732"><name>375</name></wpt><wpt lat="60.3698443" lon="25.2590766"><name>376</name></wpt><wpt lat="60.3698437" lon="25.2590801"><name>377</name></wpt><wpt lat="60.3698434" lon="25.2590835"><name>378</name></wpt><wpt lat="60.3698431" lon="25.2590868"><name>379</name></wpt><wpt lat="60.3698432" lon="25.2590939"><name>380</name></wpt><wpt lat="60.3698433" lon="25.2590973"><name>381</name></wpt><wpt lat="60.3698439" lon="25.2591045"><name>382</name></wpt><wpt lat="60.3698447" lon="25.2591084"><name>383</name></wpt><wpt lat="60.3698453" lon="25.2591125"><name>384</name></wpt><wpt lat="60.3698459" lon="25.2591164"><name>385</name></wpt><wpt lat="60.3698467" lon="25.2591208"><name>386</name></wpt><wpt lat="60.3698475" lon="25.2591256"><name>387</name></wpt><wpt lat="60.3698481" lon="25.2591302"><name>388</name></wpt><wpt lat="60.3698486" lon="25.259135"><name>389</name></wpt><wpt lat="60.3698492" lon="25.2591401"><name>390</name></wpt><wpt lat="60.3698497" lon="25.2591458"><name>391</name></wpt><wpt lat="60.36985" lon="25.2591515"><name>392</name></wpt><wpt lat="60.3698507" lon="25.2591575"><name>393</name></wpt><wpt lat="60.3698514" lon="25.259164"><name>394</name></wpt><wpt lat="60.3698518" lon="25.2591712"><name>395</name></wpt><wpt lat="60.3698523" lon="25.2591786"><name>396</name></wpt><wpt lat="60.369853" lon="25.2591862"><name>397</name></wpt><wpt lat="60.3698536" lon="25.2591937"><name>398</name></wpt><wpt lat="60.3698538" lon="25.2592005"><name>399</name></wpt><wpt lat="60.369854" lon="25.2592073"><name>400</name></wpt><wpt lat="60.3698546" lon="25.2592147"><name>401</name></wpt><wpt lat="60.369855" lon="25.2592214"><name>402</name></wpt><wpt lat="60.3698559" lon="25.2592272"><name>403</name></wpt><wpt lat="60.3698569" lon="25.2592326"><name>404</name></wpt><wpt lat="60.3698576" lon="25.2592377"><name>405</name></wpt><wpt lat="60.3698585" lon="25.2592432"><name>406</name></wpt><wpt lat="60.3698596" lon="25.2592492"><name>407</name></wpt><wpt lat="60.3698607" lon="25.2592548"><name>408</name></wpt><wpt lat="60.3698619" lon="25.2592591"><name>409</name></wpt><wpt lat="60.3698631" lon="25.2592631"><name>410</name></wpt><wpt lat="60.3698642" lon="25.2592672"><name>411</name></wpt><wpt lat="60.3698652" lon="25.259271"><name>412</name></wpt><wpt lat="60.3698662" lon="25.2592743"><name>413</name></wpt><wpt lat="60.3698678" lon="25.2592774"><name>414</name></wpt><wpt lat="60.369869" lon="25.2592801"><name>415</name></wpt><wpt lat="60.3698701" lon="25.2592826"><name>416</name></wpt><wpt lat="60.3698714" lon="25.2592845"><name>417</name></wpt><wpt lat="60.3698726" lon="25.2592865"><name>418</name></wpt><wpt lat="60.3698738" lon="25.2592885"><name>419</name></wpt><wpt lat="60.3698749" lon="25.25929"><name>420</name></wpt><wpt lat="60.3698761" lon="25.2592913"><name>421</name></wpt><wpt lat="60.3698768" lon="25.2592924"><name>422</name></wpt><wpt lat="60.3698777" lon="25.2592932"><name>423</name></wpt><wpt lat="60.3698789" lon="25.2592941"><name>424</name></wpt><wpt lat="60.3698802" lon="25.2592951"><name>425</name></wpt><wpt lat="60.3698815" lon="25.2592961"><name>426</name></wpt><wpt lat="60.3698828" lon="25.259297"><name>427</name></wpt><wpt lat="60.3698843" lon="25.2592977"><name>428</name></wpt><wpt lat="60.3698856" lon="25.2592983"><name>429</name></wpt><wpt lat="60.3698873" lon="25.2592987"><name>430</name></wpt><wpt lat="60.369889" lon="25.2592992"><name>431</name></wpt><wpt lat="60.3698906" lon="25.2592997"><name>432</name></wpt><wpt lat="60.3698923" lon="25.2593"><name>433</name></wpt><wpt lat="60.369894" lon="25.2593004"><name>434</name></wpt><wpt lat="60.3698958" lon="25.2593012"><name>435</name></wpt><wpt lat="60.3698977" lon="25.2593017"><name>436</name></wpt><wpt lat="60.3698998" lon="25.259302"><name>437</name></wpt><wpt lat="60.3699019" lon="25.2593024"><name>438</name></wpt><wpt lat="60.3699039" lon="25.259303"><name>439</name></wpt><wpt lat="60.369906" lon="25.259304"><name>440</name></wpt><wpt lat="60.3699082" lon="25.2593054"><name>441</name></wpt><wpt lat="60.3699101" lon="25.2593071"><name>442</name></wpt><wpt lat="60.3699118" lon="25.2593094"><name>443</name></wpt><wpt lat="60.3699135" lon="25.259312"><name>444</name></wpt><wpt lat="60.3699148" lon="25.2593151"><name>445</name></wpt><wpt lat="60.3699159" lon="25.2593176"><name>446</name></wpt><wpt lat="60.3699172" lon="25.2593199"><name>447</name></wpt><wpt lat="60.3699187" lon="25.259322"><name>448</name></wpt><wpt lat="60.36992" lon="25.2593238"><name>449</name></wpt><wpt lat="60.3699214" lon="25.2593257"><name>450</name></wpt><wpt lat="60.3699231" lon="25.2593273"><name>451</name></wpt><wpt lat="60.3699249" lon="25.2593284"><name>452</name></wpt><wpt lat="60.3699266" lon="25.2593297"><name>453</name></wpt><wpt lat="60.3699284" lon="25.2593314"><name>454</name></wpt><wpt lat="60.3699299" lon="25.2593328"><name>455</name></wpt><wpt lat="60.3699316" lon="25.259334"><name>456</name></wpt><wpt lat="60.3699337" lon="25.2593355"><name>457</name></wpt><wpt lat="60.3699358" lon="25.2593371"><name>458</name></wpt><wpt lat="60.3699376" lon="25.259339"><name>459</name></wpt><wpt lat="60.3699395" lon="25.2593412"><name>460</name></wpt><wpt lat="60.3699413" lon="25.2593433"><name>461</name></wpt><wpt lat="60.3699433" lon="25.2593452"><name>462</name></wpt><wpt lat="60.3699452" lon="25.2593479"><name>463</name></wpt><wpt lat="60.369947" lon="25.2593509"><name>464</name></wpt><wpt lat="60.3699483" lon="25.2593536"><name>465</name></wpt><wpt lat="60.3699494" lon="25.2593561"><name>466</name></wpt><wpt lat="60.3699505" lon="25.2593583"><name>467</name></wpt><wpt lat="60.3699512" lon="25.2593598"><name>468</name></wpt><wpt lat="60.3699515" lon="25.2593606"><name>469</name></wpt><wpt lat="60.3699512" lon="25.2593601"><name>470</name></wpt><wpt lat="60.3699506" lon="25.2593594"><name>471</name></wpt><wpt lat="60.3699494" lon="25.2593582"><name>472</name></wpt><wpt lat="60.3699482" lon="25.2593565"><name>473</name></wpt><wpt lat="60.3699467" lon="25.2593545"><name>474</name></wpt><wpt lat="60.3699448" lon="25.2593522"><name>475</name></wpt><wpt lat="60.3699428" lon="25.2593497"><name>476</name></wpt><wpt lat="60.3699409" lon="25.2593467"><name>477</name></wpt><wpt lat="60.369939" lon="25.2593431"><name>478</name></wpt><wpt lat="60.369937" lon="25.2593392"><name>479</name></wpt><wpt lat="60.3699348" lon="25.2593352"><name>480</name></wpt><wpt lat="60.3699326" lon="25.2593308"><name>481</name></wpt><wpt lat="60.3699306" lon="25.259326"><name>482</name></wpt><wpt lat="60.3699285" lon="25.2593214"><name>483</name></wpt><wpt lat="60.3699266" lon="25.2593173"><name>484</name></wpt><wpt lat="60.3699246" lon="25.2593133"><name>485</name></wpt><wpt lat="60.3699228" lon="25.2593095"><name>486</name></wpt><wpt lat="60.3699213" lon="25.259306"><name>487</name></wpt><wpt lat="60.3699194" lon="25.2593025"><name>488</name></wpt><wpt lat="60.3699176" lon="25.2592992"><name>489</name></wpt><wpt lat="60.3699158" lon="25.2592961"><name>490</name></wpt><wpt lat="60.3699138" lon="25.2592924"><name>491</name></wpt><wpt lat="60.3699122" lon="25.2592885"><name>492</name></wpt><wpt lat="60.3699106" lon="25.2592847"><name>493</name></wpt><wpt lat="60.3699085" lon="25.2592806"><name>494</name></wpt><wpt lat="60.3699065" lon="25.2592765"><name>495</name></wpt><wpt lat="60.3699048" lon="25.2592726"><name>496</name></wpt><wpt lat="60.369903" lon="25.2592687"><name>497</name></wpt><wpt lat="60.3699012" lon="25.2592652"><name>498</name></wpt><wpt lat="60.3698987" lon="25.259262"><name>499</name></wpt><wpt lat="60.3698963" lon="25.2592594"><name>500</name></wpt><wpt lat="60.3698945" lon="25.2592575"><name>501</name></wpt><wpt lat="60.3698927" lon="25.2592559"><name>502</name></wpt><wpt lat="60.3698902" lon="25.2592552"><name>503</name></wpt><wpt lat="60.3698875" lon="25.2592553"><name>504</name></wpt><wpt lat="60.369882" lon="25.2592556"><name>505</name></wpt><wpt lat="60.3698788" lon="25.2592562"><name>506</name></wpt><wpt lat="60.3698757" lon="25.2592568"><name>507</name></wpt><wpt lat="60.3698728" lon="25.2592574"><name>508</name></wpt><wpt lat="60.36987" lon="25.2592584"><name>509</name></wpt><wpt lat="60.3698674" lon="25.2592596"><name>510</name></wpt><wpt lat="60.369865" lon="25.2592605"><name>511</name></wpt><wpt lat="60.3698627" lon="25.2592619"><name>512</name></wpt><wpt lat="60.3698609" lon="25.2592643"><name>513</name></wpt><wpt lat="60.3698596" lon="25.2592665"><name>514</name></wpt><wpt lat="60.3698584" lon="25.2592686"><name>515</name></wpt><wpt lat="60.3698574" lon="25.259271"><name>516</name></wpt><wpt lat="60.3698563" lon="25.2592732"><name>517</name></wpt><wpt lat="60.3698552" lon="25.2592755"><name>518</name></wpt><wpt lat="60.3698542" lon="25.2592781"><name>519</name></wpt><wpt lat="60.3698534" lon="25.2592807"><name>520</name></wpt><wpt lat="60.3698528" lon="25.2592832"><name>521</name></wpt><wpt lat="60.3698521" lon="25.2592856"><name>522</name></wpt><wpt lat="60.3698511" lon="25.2592875"><name>523</name></wpt><wpt lat="60.3698507" lon="25.2592891"><name>524</name></wpt><wpt lat="60.3698504" lon="25.2592905"><name>525</name></wpt><wpt lat="60.36985" lon="25.2592912"><name>526</name></wpt><wpt lat="60.3698496" lon="25.2592914"><name>527</name></wpt><wpt lat="60.3698492" lon="25.2592915"><name>528</name></wpt><wpt lat="60.3698489" lon="25.2592916"><name>529</name></wpt><wpt lat="60.369849" lon="25.2592936"><name>530</name></wpt><wpt lat="60.3698491" lon="25.2592945"><name>531</name></wpt><wpt lat="60.3698495" lon="25.2592958"><name>532</name></wpt><wpt lat="60.3698498" lon="25.2592973"><name>533</name></wpt><wpt lat="60.3698503" lon="25.2592991"><name>534</name></wpt><wpt lat="60.369851" lon="25.2593013"><name>535</name></wpt><wpt lat="60.3698516" lon="25.2593036"><name>536</name></wpt><wpt lat="60.3698519" lon="25.2593067"><name>537</name></wpt><wpt lat="60.3698526" lon="25.2593101"><name>538</name></wpt><wpt lat="60.3698535" lon="25.2593134"><name>539</name></wpt><wpt lat="60.369854" lon="25.2593166"><name>540</name></wpt><wpt lat="60.369855" lon="25.2593198"><name>541</name></wpt><wpt lat="60.3698563" lon="25.2593238"><name>542</name></wpt><wpt lat="60.3698577" lon="25.2593282"><name>543</name></wpt><wpt lat="60.3698593" lon="25.2593326"><name>544</name></wpt><wpt lat="60.3698613" lon="25.2593368"><name>545</name></wpt><wpt lat="60.3698626" lon="25.2593406"><name>546</name></wpt><wpt lat="60.3698639" lon="25.2593439"><name>547</name></wpt><wpt lat="60.3698652" lon="25.2593466"><name>548</name></wpt><wpt lat="60.3698664" lon="25.2593492"><name>549</name></wpt><wpt lat="60.3698674" lon="25.2593515"><name>550</name></wpt><wpt lat="60.3698683" lon="25.2593532"><name>551</name></wpt><wpt lat="60.3698689" lon="25.2593545"><name>552</name></wpt><wpt lat="60.3698697" lon="25.2593551"><name>553</name></wpt><wpt lat="60.3698706" lon="25.2593552"><name>554</name></wpt><wpt lat="60.3698709" lon="25.2593545"><name>555</name></wpt><wpt lat="60.3698712" lon="25.2593532"><name>556</name></wpt><wpt lat="60.3698708" lon="25.2593453"><name>557</name></wpt><wpt lat="60.36987" lon="25.2593416"><name>558</name></wpt><wpt lat="60.3698689" lon="25.2593375"><name>559</name></wpt><wpt lat="60.3698678" lon="25.259333"><name>560</name></wpt><wpt lat="60.3698665" lon="25.2593283"><name>561</name></wpt><wpt lat="60.3698655" lon="25.259324"><name>562</name></wpt><wpt lat="60.3698648" lon="25.2593201"><name>563</name></wpt><wpt lat="60.3698641" lon="25.2593161"><name>564</name></wpt><wpt lat="60.3698634" lon="25.2593123"><name>565</name></wpt><wpt lat="60.3698632" lon="25.2593091"><name>566</name></wpt><wpt lat="60.3698635" lon="25.2593066"><name>567</name></wpt><wpt lat="60.3698637" lon="25.2593044"><name>568</name></wpt><wpt lat="60.3698638" lon="25.2593017"><name>569</name></wpt><wpt lat="60.3698637" lon="25.259291"><name>570</name></wpt><wpt lat="60.3698638" lon="25.2592898"><name>571</name></wpt><wpt lat="60.3698639" lon="25.2592889"><name>572</name></wpt><wpt lat="60.3698638" lon="25.2592884"><name>573</name></wpt><wpt lat="60.3698637" lon="25.2592879"><name>574</name></wpt><wpt lat="60.3698636" lon="25.2592873"><name>575</name></wpt><wpt lat="60.3698637" lon="25.2592853"><name>576</name></wpt><wpt lat="60.3698639" lon="25.2592856"><name>577</name></wpt><wpt lat="60.369864" lon="25.2592859"><name>578</name></wpt><wpt lat="60.3698642" lon="25.259286"><name>579</name></wpt><wpt lat="60.3698645" lon="25.2592861"><name>580</name></wpt><wpt lat="60.3698646" lon="25.2592865"><name>581</name></wpt><wpt lat="60.3698648" lon="25.259287"><name>582</name></wpt><wpt lat="60.369865" lon="25.2592875"><name>583</name></wpt><wpt lat="60.3698651" lon="25.2592882"><name>584</name></wpt><wpt lat="60.3698653" lon="25.2592901"><name>585</name></wpt><wpt lat="60.3698652" lon="25.2592909"><name>586</name></wpt><wpt lat="60.369865" lon="25.2592918"><name>587</name></wpt><wpt lat="60.3698649" lon="25.2592942"><name>588</name></wpt><wpt lat="60.369865" lon="25.2592953"><name>589</name></wpt><wpt lat="60.3698653" lon="25.2592962"><name>590</name></wpt><wpt lat="60.3698656" lon="25.2592972"><name>591</name></wpt><wpt lat="60.3698661" lon="25.2592983"><name>592</name></wpt><wpt lat="60.3698665" lon="25.2592999"><name>593</name></wpt><wpt lat="60.3698673" lon="25.2593017"><name>594</name></wpt><wpt lat="60.3698679" lon="25.2593036"><name>595</name></wpt><wpt lat="60.3698687" lon="25.2593058"><name>596</name></wpt><wpt lat="60.3698697" lon="25.2593083"><name>597</name></wpt><wpt lat="60.3698704" lon="25.2593109"><name>598</name></wpt><wpt lat="60.369871" lon="25.2593136"><name>599</name></wpt><wpt lat="60.3698713" lon="25.259316"><name>600</name></wpt><wpt lat="60.3698716" lon="25.2593185"><name>601</name></wpt><wpt lat="60.369872" lon="25.2593212"><name>602</name></wpt><wpt lat="60.3698722" lon="25.2593247"><name>603</name></wpt><wpt lat="60.3698723" lon="25.2593283"><name>604</name></wpt><wpt lat="60.3698725" lon="25.2593319"><name>605</name></wpt><wpt lat="60.3698731" lon="25.2593357"><name>606</name></wpt><wpt lat="60.3698735" lon="25.2593394"><name>607</name></wpt><wpt lat="60.369874" lon="25.259343"><name>608</name></wpt><wpt lat="60.3698744" lon="25.2593467"><name>609</name></wpt><wpt lat="60.3698751" lon="25.2593502"><name>610</name></wpt><wpt lat="60.3698759" lon="25.2593537"><name>611</name></wpt><wpt lat="60.3698766" lon="25.2593572"><name>612</name></wpt><wpt lat="60.3698774" lon="25.2593606"><name>613</name></wpt><wpt lat="60.3698782" lon="25.2593637"><name>614</name></wpt><wpt lat="60.3698785" lon="25.2593659"><name>615</name></wpt><wpt lat="60.3698787" lon="25.2593672"><name>616</name></wpt><wpt lat="60.3698784" lon="25.2593675"><name>617</name></wpt><wpt lat="60.3698778" lon="25.2593672"><name>618</name></wpt><wpt lat="60.3698771" lon="25.2593662"><name>619</name></wpt><wpt lat="60.3698761" lon="25.2593641"><name>620</name></wpt><wpt lat="60.3698746" lon="25.2593607"><name>621</name></wpt><wpt lat="60.369873" lon="25.2593565"><name>622</name></wpt><wpt lat="60.3698716" lon="25.2593514"><name>623</name></wpt><wpt lat="60.36987" lon="25.2593454"><name>624</name></wpt><wpt lat="60.3698686" lon="25.2593394"><name>625</name></wpt><wpt lat="60.3698672" lon="25.2593333"><name>626</name></wpt><wpt lat="60.3698662" lon="25.2593269"><name>627</name></wpt><wpt lat="60.3698651" lon="25.2593204"><name>628</name></wpt><wpt lat="60.3698642" lon="25.2593144"><name>629</name></wpt><wpt lat="60.3698633" lon="25.2593087"><name>630</name></wpt><wpt lat="60.3698625" lon="25.2593033"><name>631</name></wpt><wpt lat="60.3698615" lon="25.2592979"><name>632</name></wpt><wpt lat="60.3698602" lon="25.2592929"><name>633</name></wpt><wpt lat="60.3698589" lon="25.2592882"><name>634</name></wpt><wpt lat="60.3698574" lon="25.2592838"><name>635</name></wpt><wpt lat="60.3698556" lon="25.2592795"><name>636</name></wpt><wpt lat="60.3698537" lon="25.2592757"><name>637</name></wpt><wpt lat="60.369852" lon="25.2592724"><name>638</name></wpt><wpt lat="60.3698506" lon="25.2592692"><name>639</name></wpt><wpt lat="60.3698489" lon="25.2592666"><name>640</name></wpt><wpt lat="60.3698474" lon="25.2592645"><name>641</name></wpt><wpt lat="60.3698459" lon="25.2592628"><name>642</name></wpt><wpt lat="60.3698449" lon="25.2592613"><name>643</name></wpt><wpt lat="60.369844" lon="25.2592599"><name>644</name></wpt><wpt lat="60.3698429" lon="25.2592591"><name>645</name></wpt><wpt lat="60.369842" lon="25.2592585"><name>646</name></wpt><wpt lat="60.3698411" lon="25.2592583"><name>647</name></wpt><wpt lat="60.3698402" lon="25.2592584"><name>648</name></wpt><wpt lat="60.3698394" lon="25.2592587"><name>649</name></wpt><wpt lat="60.3698387" lon="25.2592592"><name>650</name></wpt><wpt lat="60.369838" lon="25.2592603"><name>651</name></wpt><wpt lat="60.3698373" lon="25.2592616"><name>652</name></wpt><wpt lat="60.3698365" lon="25.259263"><name>653</name></wpt><wpt lat="60.3698357" lon="25.2592648"><name>654</name></wpt><wpt lat="60.3698351" lon="25.2592668"><name>655</name></wpt><wpt lat="60.3698344" lon="25.2592691"><name>656</name></wpt><wpt lat="60.3698337" lon="25.2592716"><name>657</name></wpt><wpt lat="60.369833" lon="25.2592742"><name>658</name></wpt><wpt lat="60.3698324" lon="25.259277"><name>659</name></wpt><wpt lat="60.369832" lon="25.2592799"><name>660</name></wpt><wpt lat="60.3698317" lon="25.2592834"><name>661</name></wpt><wpt lat="60.3698315" lon="25.2592874"><name>662</name></wpt><wpt lat="60.3698314" lon="25.2592908"><name>663</name></wpt><wpt lat="60.3698311" lon="25.2592939"><name>664</name></wpt><wpt lat="60.3698307" lon="25.2592971"><name>665</name></wpt><wpt lat="60.3698305" lon="25.2593009"><name>666</name></wpt><wpt lat="60.3698306" lon="25.2593048"><name>667</name></wpt><wpt lat="60.3698307" lon="25.2593125"><name>668</name></wpt><wpt lat="60.3698309" lon="25.2593161"><name>669</name></wpt><wpt lat="60.3698308" lon="25.2593202"><name>670</name></wpt><wpt lat="60.3698306" lon="25.2593242"><name>671</name></wpt><wpt lat="60.3698304" lon="25.2593281"><name>672</name></wpt><wpt lat="60.3698301" lon="25.2593324"><name>673</name></wpt><wpt lat="60.3698302" lon="25.2593373"><name>674</name></wpt><wpt lat="60.3698306" lon="25.2593424"><name>675</name></wpt><wpt lat="60.3698313" lon="25.2593479"><name>676</name></wpt><wpt lat="60.3698316" lon="25.259353"><name>677</name></wpt><wpt lat="60.3698321" lon="25.2593574"><name>678</name></wpt><wpt lat="60.3698326" lon="25.2593608"><name>679</name></wpt><wpt lat="60.3698331" lon="25.2593634"><name>680</name></wpt><wpt lat="60.3698336" lon="25.2593653"><name>681</name></wpt><wpt lat="60.369834" lon="25.2593662"><name>682</name></wpt><wpt lat="60.3698345" lon="25.2593663"><name>683</name></wpt><wpt lat="60.3698352" lon="25.2593657"><name>684</name></wpt><wpt lat="60.3698359" lon="25.2593645"><name>685</name></wpt><wpt lat="60.3698364" lon="25.2593622"><name>686</name></wpt><wpt lat="60.369837" lon="25.2593591"><name>687</name></wpt><wpt lat="60.3698379" lon="25.2593562"><name>688</name></wpt><wpt lat="60.3698385" lon="25.2593532"><name>689</name></wpt><wpt lat="60.3698392" lon="25.2593506"><name>690</name></wpt><wpt lat="60.36984" lon="25.2593472"><name>691</name></wpt><wpt lat="60.369841" lon="25.2593431"><name>692</name></wpt><wpt lat="60.3698417" lon="25.2593392"><name>693</name></wpt><wpt lat="60.3698425" lon="25.2593357"><name>694</name></wpt><wpt lat="60.3698433" lon="25.2593325"><name>695</name></wpt><wpt lat="60.3698445" lon="25.2593296"><name>696</name></wpt><wpt lat="60.3698457" lon="25.2593272"><name>697</name></wpt><wpt lat="60.3698468" lon="25.2593244"><name>698</name></wpt><wpt lat="60.3698481" lon="25.2593214"><name>699</name></wpt><wpt lat="60.3698492" lon="25.2593189"><name>700</name></wpt><wpt lat="60.3698503" lon="25.2593166"><name>701</name></wpt><wpt lat="60.3698515" lon="25.2593147"><name>702</name></wpt><wpt lat="60.3698521" lon="25.259313"><name>703</name></wpt><wpt lat="60.3698529" lon="25.2593114"><name>704</name></wpt><wpt lat="60.3698542" lon="25.2593101"><name>705</name></wpt><wpt lat="60.3698554" lon="25.2593091"><name>706</name></wpt><wpt lat="60.369857" lon="25.2593082"><name>707</name></wpt><wpt lat="60.3698584" lon="25.2593074"><name>708</name></wpt><wpt lat="60.3698597" lon="25.2593065"><name>709</name></wpt><wpt lat="60.3698615" lon="25.2593067"><name>710</name></wpt><wpt lat="60.3698631" lon="25.2593091"><name>711</name></wpt><wpt lat="60.3698659" lon="25.259314"><name>712</name></wpt><wpt lat="60.3698688" lon="25.2593194"><name>713</name></wpt><wpt lat="60.3698736" lon="25.2593257"><name>714</name></wpt><wpt lat="60.3698776" lon="25.2593378"><name>715</name></wpt><wpt lat="60.3698811" lon="25.259353"><name>716</name></wpt><wpt lat="60.3698841" lon="25.2593686"><name>717</name></wpt><wpt lat="60.3698883" lon="25.2593852"><name>718</name></wpt><wpt lat="60.3698961" lon="25.2594022"><name>719</name></wpt><wpt lat="60.3699028" lon="25.2594157"><name>720</name></wpt><wpt lat="60.3699072" lon="25.2594325"><name>721</name></wpt><wpt lat="60.3699074" lon="25.2594558"><name>722</name></wpt><wpt lat="60.3699063" lon="25.2594736"><name>723</name></wpt><wpt lat="60.3699055" lon="25.259482"><name>724</name></wpt><wpt lat="60.3699038" lon="25.2594894"><name>725</name></wpt><wpt lat="60.3699032" lon="25.2594933"><name>726</name></wpt><wpt lat="60.3699028" lon="25.2594944"><name>727</name></wpt><wpt lat="60.3699023" lon="25.2594955"><name>728</name></wpt><wpt lat="60.3699017" lon="25.259496"><name>729</name></wpt><wpt lat="60.3699013" lon="25.2594952"><name>730</name></wpt><wpt lat="60.3699011" lon="25.2594928"><name>731</name></wpt><wpt lat="60.3699008" lon="25.2594887"><name>732</name></wpt><wpt lat="60.3699003" lon="25.2594879"><name>733</name></wpt><wpt lat="60.3699001" lon="25.2594866"><name>734</name></wpt><wpt lat="60.3698999" lon="25.2594847"><name>735</name></wpt><wpt lat="60.3699" lon="25.2594831"><name>736</name></wpt><wpt lat="60.3698998" lon="25.259479"><name>737</name></wpt><wpt lat="60.3698997" lon="25.259475"><name>738</name></wpt><wpt lat="60.3699" lon="25.259473"><name>739</name></wpt><wpt lat="60.3698998" lon="25.2594715"><name>740</name></wpt><wpt lat="60.3698995" lon="25.2594702"><name>741</name></wpt><wpt lat="60.369899" lon="25.2594691"><name>742</name></wpt><wpt lat="60.3698996" lon="25.2594666"><name>743</name></wpt><wpt lat="60.3699004" lon="25.2594646"><name>744</name></wpt><wpt lat="60.3699007" lon="25.2594618"><name>745</name></wpt><wpt lat="60.3699" lon="25.2594597"><name>746</name></wpt><wpt lat="60.3698994" lon="25.259458"><name>747</name></wpt><wpt lat="60.3699" lon="25.2594495"><name>748</name></wpt><wpt lat="60.3699005" lon="25.2594469"><name>749</name></wpt><wpt lat="60.3699006" lon="25.2594439"><name>750</name></wpt><wpt lat="60.3699005" lon="25.2594404"><name>751</name></wpt><wpt lat="60.3699007" lon="25.2594349"><name>752</name></wpt><wpt lat="60.3699008" lon="25.2594325"><name>753</name></wpt><wpt lat="60.3699014" lon="25.2594293"><name>754</name></wpt><wpt lat="60.3699018" lon="25.2594268"><name>755</name></wpt><wpt lat="60.3699014" lon="25.2594256"><name>756</name></wpt><wpt lat="60.3699011" lon="25.2594237"><name>757</name></wpt><wpt lat="60.3699009" lon="25.2594219"><name>758</name></wpt><wpt lat="60.3699008" lon="25.2594191"><name>759</name></wpt><wpt lat="60.3699004" lon="25.2594174"><name>760</name></wpt><wpt lat="60.3699001" lon="25.2594173"><name>761</name></wpt><wpt lat="60.3698998" lon="25.2594175"><name>762</name></wpt><wpt lat="60.3698997" lon="25.2594176"><name>763</name></wpt><wpt lat="60.3698993" lon="25.2594173"><name>764</name></wpt><wpt lat="60.369899" lon="25.2594169"><name>765</name></wpt><wpt lat="60.3698985" lon="25.259416"><name>766</name></wpt><wpt lat="60.3698981" lon="25.259415"><name>767</name></wpt><wpt lat="60.3698976" lon="25.2594149"><name>768</name></wpt><wpt lat="60.3698975" lon="25.2594143"><name>769</name></wpt><wpt lat="60.3698971" lon="25.2594137"><name>770</name></wpt><wpt lat="60.3698969" lon="25.2594132"><name>771</name></wpt><wpt lat="60.3698967" lon="25.2594126"><name>772</name></wpt><wpt lat="60.3698966" lon="25.2594121"><name>773</name></wpt><wpt lat="60.3698963" lon="25.2594115"><name>774</name></wpt><wpt lat="60.3698962" lon="25.2594104"><name>775</name></wpt><wpt lat="60.369896" lon="25.2594097"><name>776</name></wpt><wpt lat="60.3698957" lon="25.2594085"><name>777</name></wpt><wpt lat="60.3698955" lon="25.259407"><name>778</name></wpt><wpt lat="60.3698952" lon="25.2594056"><name>779</name></wpt><wpt lat="60.3698949" lon="25.2594043"><name>780</name></wpt></gpx>